AF456 / F-GSPS 7700 Squawk Report (26th of March, 2019)

Aircraft B772 Reg No. F-GSPS Age 17 years old
Model 777 Jet engines 2 First flight 23-10-01
Registered 06-11-01 Rollout 07-10-01 Delivered 02-11-01
Construction No. 32306 Line No. 0370 Series 228(ER)
ADSHEX 3949F2 Airline name Air France Owner N/A
Airfield based Paris-Charles de Gaulle~Val-d'Oise~F First tracked 2017-07-13 15:22:00
Time Lat Lon Altitude Heading Speed Vertical Rate
2019-03-27 04:06:41 GMT -23.436539 -46.491699 2,450 73 139 -704
2019-03-27 04:06:32 GMT -23.437981 -46.497089 2,550 73 140 -704
2019-03-27 04:06:21 GMT -23.440018 -46.504627 2,675 73 140 -704
2019-03-27 04:06:11 GMT -23.442078 -46.512367 2,825 73 140 -704
2019-03-27 04:06:01 GMT -23.443848 -46.518909 2,925 73 138 -768
2019-03-27 04:05:54 GMT -23.445290 -46.524250 3,025 73 137 -640
2019-03-27 04:05:49 GMT -23.445803 -46.526234 3,050 73 137 -640
2019-03-27 04:05:40 GMT -23.447710 -46.533253 3,175 73 135 -704
2019-03-27 04:05:29 GMT -23.449526 -46.540173 3,300 74 134 -640
2019-03-27 04:05:18 GMT -23.451342 -46.547039 3,425 73 133 -704
2019-03-27 04:05:11 GMT -23.452789 -46.552319 3,500 73 131 -640
2019-03-27 04:05:07 GMT -23.453297 -46.554157 3,550 73 130 -640
2019-03-27 04:04:57 GMT -23.455170 -46.560909 3,650 73 129 -704
2019-03-27 04:04:46 GMT -23.456974 -46.567432 3,775 74 128 -640
2019-03-27 04:04:39 GMT -23.458099 -46.571945 3,850 75 128 -640
2019-03-27 04:04:34 GMT -23.458694 -46.574440 3,900 75 128 -640
2019-03-27 04:04:28 GMT -23.459814 -46.578724 3,975 74 127 -832
2019-03-27 04:04:25 GMT -23.460297 -46.580532 4,000 73 128 -768
2019-03-27 04:04:14 GMT -23.462219 -46.587475 4,125 73 129 -640
2019-03-27 04:04:06 GMT -23.463409 -46.591820 4,200 73 130 -704
2019-03-27 04:04:03 GMT -23.464005 -46.593967 4,250 73 130 -640
2019-03-27 04:03:56 GMT -23.465355 -46.599072 4,325 74 131 -704
2019-03-27 04:03:52 GMT -23.465818 -46.600903 4,375 74 132 -704
2019-03-27 04:03:42 GMT -23.467621 -46.607948 4,475 74 142 -832
2019-03-27 04:03:31 GMT -23.469635 -46.615639 4,625 73 150 -768
2019-03-27 04:03:24 GMT -23.471191 -46.621231 4,700 73 154 -576
2019-03-27 04:03:19 GMT -23.471825 -46.623535 4,750 74 153 -512
2019-03-27 04:03:13 GMT -23.473114 -46.629124 4,800 77 152 0
2019-03-27 04:03:10 GMT -23.473547 -46.631622 4,800 80 152 192
2019-03-27 04:03:01 GMT -23.473967 -46.637115 4,775 93 152 128
2019-03-27 04:02:58 GMT -23.473480 -46.640610 4,750 110 151 0
2019-03-27 04:02:51 GMT -23.471498 -46.644745 4,775 129 155 -192
2019-03-27 04:02:46 GMT -23.469131 -46.647598 4,800 136 157 -320
2019-03-27 04:02:41 GMT -23.465836 -46.650345 4,850 146 162 -320
2019-03-27 04:02:36 GMT -23.462540 -46.652393 4,875 155 167 -1088
2019-03-27 04:02:30 GMT -23.458374 -46.654091 4,975 164 174 -1088
2019-03-27 04:02:27 GMT -23.456085 -46.654793 5,050 164 178 -1088
2019-03-27 04:02:19 GMT -23.449539 -46.656689 5,200 164 185 -1280
2019-03-27 04:02:15 GMT -23.447021 -46.657436 5,250 164 187 -1280
2019-03-27 04:02:08 GMT -23.440384 -46.659336 5,425 165 194 -1152
2019-03-27 04:02:04 GMT -23.437225 -46.660183 5,475 165 196 -1088
2019-03-27 04:01:55 GMT -23.427925 -46.662750 5,650 165 204 -640
2019-03-27 04:01:47 GMT -23.420517 -46.664677 5,725 166 211 -832
2019-03-27 04:01:44 GMT -23.418102 -46.665295 5,750 166 214 -768
2019-03-27 04:01:35 GMT -23.410538 -46.667225 5,850 166 220 -1216
2019-03-27 04:01:32 GMT -23.407104 -46.668076 5,925 166 222 -896
2019-03-27 04:01:25 GMT -23.399296 -46.670025 6,050 168 224 -1024
2019-03-27 04:01:22 GMT -23.395706 -46.670719 6,100 172 226 -1024
2019-03-27 04:01:15 GMT -23.388077 -46.671448 6,225 178 228 -768
2019-03-27 04:01:12 GMT -23.385406 -46.671471 6,250 182 229 -128
2019-03-27 04:01:04 GMT -23.376392 -46.670582 6,275 190 232 -512
2019-03-27 04:01:01 GMT -23.373833 -46.670025 6,275 194 236 -512
2019-03-27 04:00:53 GMT -23.365639 -46.667480 6,350 198 248 -1088
2019-03-27 04:00:50 GMT -23.361969 -46.666225 6,425 198 253 -1216
2019-03-27 04:00:43 GMT -23.353304 -46.663258 6,600 198 256 -1216
2019-03-27 04:00:38 GMT -23.349289 -46.661880 6,675 198 258 -1088
2019-03-27 04:00:32 GMT -23.340637 -46.658836 6,800 198 259 -1344
2019-03-27 04:00:27 GMT -23.336637 -46.657410 6,875 198 259 -1600
2019-03-27 04:00:18 GMT -23.324533 -46.653187 7,225 199 254 -1920
2019-03-27 04:00:10 GMT -23.316853 -46.650494 7,400 198 259 -1728
2019-03-27 04:00:06 GMT -23.311033 -46.648457 7,525 198 262 -1728
2019-03-27 04:00:00 GMT -23.304468 -46.646168 7,675 198 269 -1664
2019-03-27 03:59:55 GMT -23.299576 -46.644455 7,800 198 272 -1728
2019-03-27 03:59:49 GMT -23.290970 -46.641388 8,000 199 278 -1792
2019-03-27 03:59:44 GMT -23.285934 -46.639610 8,100 199 280 -1920
2019-03-27 03:59:38 GMT -23.277924 -46.636814 8,425 198 282 -3200
2019-03-27 03:59:35 GMT -23.272934 -46.635063 8,625 198 283 -3264
2019-03-27 03:59:26 GMT -23.261902 -46.631222 9,100 198 282 -3584
2019-03-27 03:59:23 GMT -23.259430 -46.630371 9,200 198 282 -3648
2019-03-27 03:59:15 GMT -23.248077 -46.626427 9,550 198 288 -1344
2019-03-27 03:59:09 GMT -23.240891 -46.623928 9,700 198 289 -1408
2019-03-27 03:59:05 GMT -23.237091 -46.622631 9,750 198 289 -1408
2019-03-27 03:59:02 GMT -23.233246 -46.621281 9,825 198 289 -1344
2019-03-27 03:58:54 GMT -23.221390 -46.617188 10,025 198 290 -1280
2019-03-27 03:58:51 GMT -23.217695 -46.615856 10,075 198 291 -1280
2019-03-27 03:58:45 GMT -23.204754 -46.611378 10,250 198 292 -1344
2019-03-27 03:58:41 GMT -23.204754 -46.611378 10,300 198 293 -1344
2019-03-27 03:58:34 GMT -23.196304 -46.608498 10,425 198 293 -1344
2019-03-27 03:58:30 GMT -23.190975 -46.606647 10,525 198 294 -1280
2019-03-27 03:58:24 GMT -23.184860 -46.604553 10,650 198 295 -1216
2019-03-27 03:58:21 GMT -23.179523 -46.602680 10,725 198 296 -1216
2019-03-27 03:58:18 GMT -23.176357 -46.601612 10,725 198 296 -1216
2019-03-27 03:58:15 GMT -23.170212 -46.599461 10,850 199 297 -1216
2019-03-27 03:58:11 GMT -23.165726 -46.597912 10,900 199 297 -1280
2019-03-27 03:58:08 GMT -23.162437 -46.596729 10,950 198 298 -1408
2019-03-27 03:58:04 GMT -23.156387 -46.594646 11,075 198 298 -1408
2019-03-27 03:58:00 GMT -23.152313 -46.593266 11,125 198 298 -1472
2019-03-27 03:57:57 GMT -23.147552 -46.591618 11,225 198 297 -1536
2019-03-27 03:57:50 GMT -23.137627 -46.588238 11,425 198 297 -1728
2019-03-27 03:57:47 GMT -23.133717 -46.586914 11,500 198 296 -1664
2019-03-27 03:57:42 GMT -23.127665 -46.584827 11,625 198 296 -1728
2019-03-27 03:57:39 GMT -23.124115 -46.583630 11,700 198 296 -1600
2019-03-27 03:57:35 GMT -23.118851 -46.581833 11,775 198 295 -1536
2019-03-27 03:57:31 GMT -23.113512 -46.579998 11,900 198 296 -1472
2019-03-27 03:57:28 GMT -23.109835 -46.578724 11,975 199 296 -1344
2019-03-27 03:57:25 GMT -23.105133 -46.577045 12,050 199 296 -1280
2019-03-27 03:57:21 GMT -23.099991 -46.575241 12,125 199 297 -1280
2019-03-27 03:57:18 GMT -23.095825 -46.573742 12,175 199 298 -1216
2019-03-27 03:57:14 GMT -23.091446 -46.572216 12,250 198 299 -1088
2019-03-27 03:57:10 GMT -23.085251 -46.570045 12,325 198 301 -896
2019-03-27 03:57:05 GMT -23.078293 -46.567600 12,450 198 306 -512
2019-03-27 03:57:02 GMT -23.076269 -46.566925 12,400 198 303 -640
2019-03-27 03:56:59 GMT -23.071060 -46.565102 12,450 198 306 -512
2019-03-27 03:56:56 GMT -23.067535 -46.563854 12,475 198 308 -576
2019-03-27 03:56:53 GMT -23.062490 -46.562092 12,500 199 310 -576
2019-03-27 03:56:48 GMT -23.054626 -46.559361 12,575 199 313 -640
2019-03-27 03:56:45 GMT -23.051737 -46.558331 12,575 199 313 -640
2019-03-27 03:56:41 GMT -23.046844 -46.556614 12,625 199 316 -640
2019-03-27 03:56:35 GMT -23.037552 -46.553318 12,700 198 320 -640
2019-03-27 03:56:31 GMT -23.031876 -46.551369 12,725 198 322 -704
2019-03-27 03:56:23 GMT -23.021944 -46.547901 12,800 198 327 -704
2019-03-27 03:56:20 GMT -23.016861 -46.546127 12,850 198 329 -704
2019-03-27 03:56:14 GMT -23.006882 -46.542629 12,925 198 335 -768
2019-03-27 03:56:11 GMT -23.002579 -46.541138 12,975 198 337 -832
2019-03-27 03:56:08 GMT -22.999878 -46.540222 12,975 198 338 -768
2019-03-27 03:56:03 GMT -22.990128 -46.536839 13,050 198 342 -640
2019-03-27 03:55:59 GMT -22.984516 -46.534882 13,100 198 345 -640
2019-03-27 03:55:53 GMT -22.974518 -46.531445 13,175 198 350 -704
2019-03-27 03:55:50 GMT -22.970642 -46.530102 13,200 198 352 -704
2019-03-27 03:55:42 GMT -22.957947 -46.525700 13,300 198 357 -960
2019-03-27 03:55:39 GMT -22.952999 -46.523998 13,350 198 360 -960
2019-03-27 03:55:36 GMT -22.950766 -46.523235 13,375 198 361 -896
2019-03-27 03:55:31 GMT -22.939873 -46.519470 13,525 198 364 -1984
2019-03-27 03:55:26 GMT -22.933594 -46.517311 13,650 198 365 -2048
2019-03-27 03:55:21 GMT -22.924696 -46.514233 13,875 198 364 -3264
2019-03-27 03:55:18 GMT -22.919357 -46.512417 14,025 198 364 -3008
2019-03-27 03:55:15 GMT -22.915293 -46.511078 14,100 198 364 -3392
2019-03-27 03:55:10 GMT -22.906494 -46.508022 14,425 198 359 -4160
2019-03-27 03:55:05 GMT -22.898441 -46.505230 14,750 198 354 -3904
2019-03-27 03:54:59 GMT -22.889191 -46.502083 15,050 198 352 -2560
2019-03-27 03:54:56 GMT -22.884661 -46.500500 15,150 198 353 -1920
2019-03-27 03:54:53 GMT -22.880447 -46.499084 15,250 198 353 -1792
2019-03-27 03:54:49 GMT -22.873856 -46.496838 15,350 198 354 -1856
2019-03-27 03:54:45 GMT -22.867264 -46.494591 15,475 198 354 -1792
2019-03-27 03:54:42 GMT -22.864923 -46.493786 15,525 198 355 -1792
2019-03-27 03:54:38 GMT -22.856125 -46.490833 15,675 198 356 -1792
2019-03-27 03:54:32 GMT -22.848404 -46.488197 15,825 198 356 -1728
2019-03-27 03:54:27 GMT -22.839523 -46.485252 15,975 198 358 -1728
2019-03-27 03:54:24 GMT -22.834122 -46.483402 16,075 198 358 -1728
2019-03-27 03:54:21 GMT -22.830322 -46.482155 16,150 198 359 -1792
2019-03-27 03:54:15 GMT -22.821396 -46.479160 16,300 198 359 -1792
2019-03-27 03:54:11 GMT -22.813751 -46.476662 16,375 198 359 -1728
2019-03-27 03:54:06 GMT -22.805740 -46.474014 16,575 197 360 -1728
2019-03-27 03:54:00 GMT -22.795652 -46.470692 16,750 198 361 -1792
2019-03-27 03:53:54 GMT -22.786621 -46.467693 16,925 198 363 -1792
2019-03-27 03:53:51 GMT -22.778568 -46.465046 17,075 198 363 -1792
2019-03-27 03:53:44 GMT -22.770996 -46.462528 17,225 198 364 -1792
2019-03-27 03:53:41 GMT -22.765503 -46.460682 17,325 198 364 -1792
2019-03-27 03:53:38 GMT -22.762253 -46.459583 17,350 198 365 -1792
2019-03-27 03:53:33 GMT -22.752869 -46.456387 17,525 198 366 -1792
2019-03-27 03:53:30 GMT -22.748016 -46.454739 17,600 198 366 -1792
2019-03-27 03:53:27 GMT -22.743805 -46.453293 17,675 198 366 -1792
2019-03-27 03:53:23 GMT -22.734903 -46.450146 17,850 199 368 -1792
2019-03-27 03:53:20 GMT -22.730991 -46.448772 17,900 199 368 -1792
2019-03-27 03:53:17 GMT -22.726105 -46.447041 18,000 199 368 -1792
2019-03-27 03:53:12 GMT -22.718811 -46.444405 18,125 199 369 -1792
2019-03-27 03:53:09 GMT -22.713116 -46.442310 18,225 199 370 -1792
2019-03-27 03:53:06 GMT -22.708227 -46.440533 18,300 200 370 -1728
2019-03-27 03:53:01 GMT -22.699430 -46.437225 18,450 200 372 -1600
2019-03-27 03:52:58 GMT -22.695518 -46.435699 18,500 200 372 -1536
2019-03-27 03:52:54 GMT -22.691483 -46.434166 18,575 200 373 -1408
2019-03-27 03:52:50 GMT -22.684296 -46.431320 18,675 201 375 -832
2019-03-27 03:52:47 GMT -22.678436 -46.428970 18,725 201 375 -896
2019-03-27 03:52:39 GMT -22.665710 -46.423630 18,825 203 377 -1152
2019-03-27 03:52:36 GMT -22.660538 -46.421383 18,900 203 377 -1152
2019-03-27 03:52:33 GMT -22.655531 -46.419117 18,950 203 379 -1088
2019-03-27 03:52:29 GMT -22.648544 -46.415890 19,025 204 379 -1152
2019-03-27 03:52:26 GMT -22.644379 -46.413891 19,100 205 380 -1536
2019-03-27 03:52:23 GMT -22.638885 -46.411243 19,150 205 380 -1728
2019-03-27 03:52:18 GMT -22.630718 -46.407116 19,300 206 381 -1856
2019-03-27 03:52:12 GMT -22.621353 -46.402157 19,475 207 382 -1920
2019-03-27 03:52:07 GMT -22.613262 -46.397755 19,650 207 383 -1920
2019-03-27 03:52:04 GMT -22.608793 -46.395367 19,725 207 383 -1920
2019-03-27 03:51:58 GMT -22.598740 -46.389969 19,925 207 385 -1920
2019-03-27 03:51:53 GMT -22.591568 -46.386059 20,050 207 385 -1920
2019-03-27 03:51:49 GMT -22.586075 -46.383160 20,150 207 386 -1920
2019-03-27 03:51:44 GMT -22.579046 -46.379345 20,300 207 387 -1984
2019-03-27 03:51:40 GMT -22.569901 -46.374340 20,475 207 388 -1984
2019-03-27 03:51:34 GMT -22.560099 -46.368969 20,575 208 389 -1920
2019-03-27 03:51:31 GMT -22.556717 -46.367100 20,725 208 389 -1984
2019-03-27 03:51:28 GMT -22.551067 -46.363983 20,825 208 390 -1920
2019-03-27 03:51:24 GMT -22.544924 -46.360626 20,950 208 391 -1856
2019-03-27 03:51:21 GMT -22.539431 -46.357574 21,050 208 392 -1856
2019-03-27 03:51:18 GMT -22.534424 -46.354763 21,150 208 392 -1856
2019-03-27 03:51:14 GMT -22.530025 -46.352337 21,225 208 393 -1856
2019-03-27 03:51:10 GMT -22.522385 -46.348122 21,375 208 394 -1984
2019-03-27 03:51:06 GMT -22.518017 -46.345673 21,450 208 394 -2176
2019-03-27 03:51:03 GMT -22.511627 -46.342178 21,600 207 394 -2560
2019-03-27 03:50:59 GMT -22.504608 -46.338398 21,775 207 394 -1984
2019-03-27 03:50:55 GMT -22.499395 -46.335552 21,950 207 395 -1984
2019-03-27 03:50:52 GMT -22.492310 -46.331741 22,000 207 395 -1920
2019-03-27 03:50:49 GMT -22.487411 -46.329044 22,100 207 396 -1984
2019-03-27 03:50:46 GMT -22.481983 -46.326141 22,200 207 396 -2048
2019-03-27 03:50:41 GMT -22.473745 -46.321716 22,350 207 397 -2048
2019-03-27 03:50:38 GMT -22.468918 -46.319157 22,450 207 398 -1984
2019-03-27 03:50:34 GMT -22.456055 -46.312218 22,600 207 398 -2048
2019-03-27 03:50:30 GMT -22.456055 -46.312218 22,700 207 398 -2240
2019-03-27 03:50:24 GMT -22.446606 -46.307171 22,900 206 399 -2176
2019-03-27 03:50:21 GMT -22.442047 -46.304825 23,000 205 400 -2112
2019-03-27 03:50:18 GMT -22.437853 -46.302746 23,075 204 401 -1920
2019-03-27 03:50:15 GMT -22.432526 -46.300282 23,175 203 401 -1664
2019-03-27 03:50:11 GMT -22.424240 -46.296585 23,275 202 405 -960
2019-03-27 03:50:06 GMT -22.415276 -46.292927 23,350 200 406 -704
2019-03-27 03:50:03 GMT -22.408897 -46.290539 23,400 199 406 -704
2019-03-27 03:49:58 GMT -22.401356 -46.287891 23,425 198 407 -768
2019-03-27 03:49:55 GMT -22.394838 -46.285755 23,475 197 407 -768
2019-03-27 03:49:51 GMT -22.388647 -46.283924 23,525 195 408 -704
2019-03-27 03:49:47 GMT -22.380919 -46.281788 23,575 194 409 -640
2019-03-27 03:49:43 GMT -22.375380 -46.280415 23,600 193 410 -704
2019-03-27 03:49:39 GMT -22.365143 -46.278111 23,650 192 409 -640
2019-03-27 03:49:36 GMT -22.359737 -46.276855 23,700 193 410 -704
2019-03-27 03:49:33 GMT -22.356171 -46.276012 23,725 193 410 -704
2019-03-27 03:49:28 GMT -22.345959 -46.273701 23,775 193 411 -768
2019-03-27 03:49:23 GMT -22.336441 -46.271469 23,850 193 411 -768
2019-03-27 03:49:16 GMT -22.324312 -46.268719 23,925 193 411 -768
2019-03-27 03:49:12 GMT -22.315567 -46.266724 24,000 192 410 -768
2019-03-27 03:49:07 GMT -22.305271 -46.264343 24,075 192 410 -768
2019-03-27 03:49:01 GMT -22.296524 -46.262379 24,125 192 410 -768
2019-03-27 03:48:58 GMT -22.288885 -46.260632 24,175 192 410 -768
2019-03-27 03:48:50 GMT -22.275604 -46.257584 24,250 193 412 -704
2019-03-27 03:48:44 GMT -22.264957 -46.255138 24,325 193 412 -640
2019-03-27 03:48:40 GMT -22.255974 -46.253101 24,375 193 412 -704
2019-03-27 03:48:33 GMT -22.245499 -46.250713 24,450 193 413 -832
2019-03-27 03:48:29 GMT -22.234280 -46.248169 24,525 193 413 -832
2019-03-27 03:48:24 GMT -22.225668 -46.246185 24,575 193 413 -832
2019-03-27 03:48:19 GMT -22.215729 -46.243900 24,650 193 413 -704
2019-03-27 03:48:15 GMT -22.208023 -46.242168 24,700 193 413 -640
2019-03-27 03:48:07 GMT -22.195450 -46.239307 24,775 192 414 -704
2019-03-27 03:48:04 GMT -22.187210 -46.237411 24,825 192 414 -896
2019-03-27 03:47:57 GMT -22.175171 -46.234665 24,925 193 413 -896
2019-03-27 03:47:52 GMT -22.165421 -46.232414 25,000 192 414 -768
2019-03-27 03:47:46 GMT -22.154350 -46.229908 25,050 192 414 -768
2019-03-27 03:47:41 GMT -22.144201 -46.227570 25,125 192 414 -896
2019-03-27 03:47:34 GMT -22.134798 -46.225433 25,200 192 414 -896
2019-03-27 03:47:29 GMT -22.124649 -46.223145 25,300 192 413 -1024
2019-03-27 03:47:24 GMT -22.114128 -46.220753 25,375 192 413 -960
2019-03-27 03:47:20 GMT -22.104904 -46.218681 25,450 192 414 -960
2019-03-27 03:47:13 GMT -22.093832 -46.216175 25,525 192 414 -960
2019-03-27 03:47:09 GMT -22.085724 -46.214340 25,600 192 414 -896
2019-03-27 03:47:03 GMT -22.073162 -46.211445 25,700 192 414 -896
2019-03-27 03:46:57 GMT -22.064505 -46.209461 25,750 192 414 -896
2019-03-27 03:46:52 GMT -22.053984 -46.207073 25,850 192 414 -896
2019-03-27 03:46:48 GMT -22.045166 -46.205051 25,900 193 414 -960
2019-03-27 03:46:41 GMT -22.033905 -46.202454 26,000 193 414 -896
2019-03-27 03:46:37 GMT -22.025074 -46.200409 26,075 193 414 -896
2019-03-27 03:46:30 GMT -22.013018 -46.197662 26,150 192 415 -832
2019-03-27 03:46:25 GMT -22.003784 -46.195560 26,225 192 415 -832
2019-03-27 03:46:20 GMT -21.993465 -46.193237 26,300 192 415 -768
2019-03-27 03:46:15 GMT -21.984192 -46.191116 26,350 192 415 -768
2019-03-27 03:46:08 GMT -21.972153 -46.188370 26,425 193 416 -704
2019-03-27 03:46:05 GMT -21.964788 -46.186676 26,475 193 416 -768
2019-03-27 03:45:58 GMT -21.952103 -46.183826 26,575 192 416 -832
2019-03-27 03:45:54 GMT -21.944725 -46.182148 26,625 192 416 -832
2019-03-27 03:45:48 GMT -21.931829 -46.179199 26,700 192 416 -832
2019-03-27 03:45:43 GMT -21.923309 -46.177284 26,775 192 417 -832
2019-03-27 03:45:37 GMT -21.911766 -46.174671 26,850 192 417 -832
2019-03-27 03:45:33 GMT -21.904179 -46.172993 26,900 192 417 -768
2019-03-27 03:45:26 GMT -21.891609 -46.170197 27,000 192 418 -896
2019-03-27 03:45:22 GMT -21.883648 -46.168365 27,050 192 418 -896
2019-03-27 03:45:15 GMT -21.870707 -46.165466 27,150 192 418 -896
2019-03-27 03:45:10 GMT -21.862152 -46.163551 27,225 192 418 -896
2019-03-27 03:45:05 GMT -21.850021 -46.160854 27,300 192 418 -768
2019-03-27 03:44:59 GMT -21.841425 -46.158905 27,350 192 419 -704
2019-03-27 03:44:54 GMT -21.830021 -46.156311 27,425 193 419 -832
2019-03-27 03:44:50 GMT -21.822014 -46.154480 27,500 193 419 -832
2019-03-27 03:44:42 GMT -21.808699 -46.151428 27,600 192 420 -768
2019-03-27 03:44:38 GMT -21.800320 -46.149548 27,625 192 420 -768
2019-03-27 03:44:32 GMT -21.788681 -46.146873 27,725 193 420 -960
2019-03-27 03:44:28 GMT -21.779697 -46.144817 27,800 192 421 -960
2019-03-27 03:44:22 GMT -21.769037 -46.142376 27,875 192 421 -832
2019-03-27 03:44:16 GMT -21.758881 -46.140133 27,950 192 421 -832
2019-03-27 03:44:08 GMT -21.742035 -46.136288 28,075 192 422 -832
2019-03-27 03:44:00 GMT -21.728071 -46.133118 28,175 193 422 -832
2019-03-27 03:43:56 GMT -21.719055 -46.131042 28,225 193 423 -768
2019-03-27 03:43:49 GMT -21.706516 -46.128235 28,325 192 424 -768
2019-03-27 03:43:45 GMT -21.698639 -46.126450 28,350 192 425 -768
2019-03-27 03:43:39 GMT -21.683800 -46.123047 28,475 192 426 -768
2019-03-27 03:43:34 GMT -21.675282 -46.121113 28,525 192 426 -704
2019-03-27 03:43:26 GMT -21.659180 -46.117508 28,600 192 428 -576
2019-03-27 03:43:23 GMT -21.656067 -46.116810 28,600 192 428 -576
2019-03-27 03:43:18 GMT -21.644976 -46.114300 28,675 192 429 -704
2019-03-27 03:43:14 GMT -21.636978 -46.112465 28,725 192 430 -768
2019-03-27 03:43:07 GMT -21.623886 -46.109570 28,800 192 431 -768
2019-03-27 03:43:01 GMT -21.613495 -46.107224 28,875 192 431 -704
2019-03-27 03:42:56 GMT -21.602333 -46.104736 28,925 192 432 -512
2019-03-27 03:42:51 GMT -21.591888 -46.102379 28,975 192 433 -512
2019-03-27 03:42:44 GMT -21.581059 -46.099903 29,025 193 434 -576
2019-03-27 03:42:40 GMT -21.571190 -46.097668 29,075 193 434 -1024
2019-03-27 03:42:34 GMT -21.560760 -46.095238 29,175 193 434 -1408
2019-03-27 03:42:29 GMT -21.548704 -46.092529 29,325 192 433 -1280
2019-03-27 03:42:24 GMT -21.539474 -46.090393 29,425 193 433 -1088
2019-03-27 03:42:21 GMT -21.528854 -46.087997 29,475 193 433 -1024
2019-03-27 03:42:13 GMT -21.517456 -46.085400 29,600 192 433 -960
2019-03-27 03:42:10 GMT -21.510773 -46.083851 29,650 192 433 -1024
2019-03-27 03:42:07 GMT -21.506622 -46.082916 29,675 192 433 -960
2019-03-27 03:42:02 GMT -21.496380 -46.080627 29,775 192 433 -960
2019-03-27 03:41:57 GMT -21.476316 -46.076050 29,900 192 434 -832
2019-03-27 03:41:51 GMT -21.476316 -46.076050 29,925 192 434 -832
2019-03-27 03:41:48 GMT -21.467983 -46.074169 29,975 192 435 -832
2019-03-27 03:41:44 GMT -21.460907 -46.072590 30,025 192 435 -896
2019-03-27 03:41:41 GMT -21.453964 -46.071018 30,075 192 435 -896
2019-03-27 03:41:35 GMT -21.442705 -46.068470 30,125 192 436 -896
2019-03-27 03:41:30 GMT -21.433411 -46.066422 30,225 192 436 -896
2019-03-27 03:41:26 GMT -21.426270 -46.064823 30,275 192 436 -832
2019-03-27 03:41:21 GMT -21.416336 -46.062576 30,350 192 437 -768
2019-03-27 03:41:18 GMT -21.412399 -46.061680 30,350 192 437 -640
2019-03-27 03:41:14 GMT -21.403461 -46.059673 30,400 192 438 -640
2019-03-27 03:41:11 GMT -21.394665 -46.057690 30,450 192 439 -704
2019-03-27 03:41:08 GMT -21.391079 -46.056873 30,475 192 439 -768
2019-03-27 03:41:05 GMT -21.383120 -46.055096 30,525 192 440 -768
2019-03-27 03:41:01 GMT -21.374496 -46.053188 30,550 192 440 -768
2019-03-27 03:40:56 GMT -21.364883 -46.051041 30,600 192 441 -768
2019-03-27 03:40:52 GMT -21.356873 -46.049244 30,700 192 441 -704
2019-03-27 03:40:49 GMT -21.352674 -46.048279 30,800 192 442 -704
2019-03-27 03:40:45 GMT -21.343828 -46.046295 30,775 192 443 -704
2019-03-27 03:40:41 GMT -21.334564 -46.044209 30,825 192 443 -704
2019-03-27 03:40:34 GMT -21.321075 -46.041203 30,900 192 444 -768
2019-03-27 03:40:30 GMT -21.312973 -46.039356 30,950 192 445 -832
2019-03-27 03:40:27 GMT -21.308212 -46.038307 30,975 192 445 -832
2019-03-27 03:40:24 GMT -21.302956 -46.037140 31,025 192 445 -896
2019-03-27 03:40:21 GMT -21.295990 -46.035561 31,075 192 446 -896
2019-03-27 03:40:18 GMT -21.291138 -46.034462 31,125 192 446 -832
2019-03-27 03:40:15 GMT -21.282211 -46.032467 31,175 192 446 -832
2019-03-27 03:40:09 GMT -21.273487 -46.030529 31,275 192 448 -768
2019-03-27 03:40:05 GMT -21.264313 -46.028469 31,275 192 448 -768
2019-03-27 03:40:02 GMT -21.256210 -46.026623 31,325 192 448 -1088
2019-03-27 03:39:57 GMT -21.245371 -46.024220 31,425 192 448 -1344
2019-03-27 03:39:52 GMT -21.238678 -46.022728 31,550 192 448 -1152
2019-03-27 03:39:49 GMT -21.229916 -46.020763 31,600 192 448 -1088
2019-03-27 03:39:46 GMT -21.223398 -46.019337 31,650 192 448 -1088
2019-03-27 03:39:41 GMT -21.215252 -46.017506 31,775 192 447 -1216
2019-03-27 03:39:38 GMT -21.206909 -46.015587 31,800 192 447 -1216
2019-03-27 03:39:35 GMT -21.202057 -46.014488 31,850 192 447 -1216
2019-03-27 03:39:30 GMT -21.190859 -46.011963 31,950 192 447 -1408
2019-03-27 03:39:27 GMT -21.184807 -46.010590 32,025 193 446 -1536
2019-03-27 03:39:24 GMT -21.180130 -46.009544 32,100 192 446 -1600
2019-03-27 03:39:21 GMT -21.172440 -46.007797 32,175 192 445 -1728
2019-03-27 03:39:16 GMT -21.162323 -46.005501 32,325 192 444 -1728
2019-03-27 03:39:13 GMT -21.157471 -46.004452 32,375 192 443 -1536
2019-03-27 03:39:10 GMT -21.152252 -46.003250 32,450 192 443 -1408
2019-03-27 03:39:03 GMT -21.135973 -45.999603 32,600 192 442 -1152
2019-03-27 03:38:58 GMT -21.126011 -45.997314 32,700 192 442 -1024
2019-03-27 03:38:55 GMT -21.120564 -45.996094 32,750 192 443 -960
2019-03-27 03:38:52 GMT -21.115677 -45.995010 32,800 192 443 -960
2019-03-27 03:38:47 GMT -21.104782 -45.992565 32,850 192 443 -960
2019-03-27 03:38:43 GMT -21.098171 -45.991058 32,925 192 443 -896
2019-03-27 03:38:40 GMT -21.093330 -45.989990 32,950 192 444 -896
2019-03-27 03:38:35 GMT -21.082020 -45.987446 33,025 192 444 -896
2019-03-27 03:38:31 GMT -21.072098 -45.985172 33,125 192 445 -896
2019-03-27 03:38:28 GMT -21.065166 -45.983631 33,175 192 445 -960
2019-03-27 03:38:20 GMT -21.050455 -45.980328 33,275 192 446 -896
2019-03-27 03:38:15 GMT -21.039322 -45.977833 33,350 192 447 -896
2019-03-27 03:38:12 GMT -21.035839 -45.977070 33,400 192 447 -896
2019-03-27 03:38:09 GMT -21.027739 -45.975235 33,400 192 447 -896
2019-03-27 03:38:04 GMT -21.018997 -45.973270 33,475 192 448 -896
2019-03-27 03:38:00 GMT -21.009201 -45.971066 33,550 192 448 -896
2019-03-27 03:37:57 GMT -21.006186 -45.970390 33,575 192 448 -896
2019-03-27 03:37:53 GMT -20.995331 -45.967926 33,650 192 449 -832
2019-03-27 03:37:49 GMT -20.984119 -45.965401 33,725 192 450 -704
2019-03-27 03:37:43 GMT -20.974091 -45.963120 33,775 193 451 -640
2019-03-27 03:37:37 GMT -20.962189 -45.960468 33,850 192 452 -704
2019-03-27 03:37:34 GMT -20.957026 -45.959305 33,875 192 453 -704
2019-03-27 03:37:29 GMT -20.947529 -45.957157 33,950 192 454 -704
2019-03-27 03:37:26 GMT -20.940308 -45.955517 33,975 192 454 -768
2019-03-27 03:37:21 GMT -20.929184 -45.953014 34,025 192 455 -832
2019-03-27 03:37:17 GMT -20.919937 -45.950954 34,100 192 456 -832
2019-03-27 03:37:14 GMT -20.917694 -45.950466 34,150 192 457 -832
2019-03-27 03:37:11 GMT -20.907623 -45.948208 34,150 192 457 -832
2019-03-27 03:37:05 GMT -20.889725 -45.944237 34,250 192 458 -640
2019-03-27 03:37:02 GMT -20.889725 -45.944237 34,300 192 459 -576
2019-03-27 03:36:59 GMT -20.885756 -45.943375 34,300 192 459 -640
2019-03-27 03:36:56 GMT -20.876633 -45.941341 34,350 192 461 -640
2019-03-27 03:36:53 GMT -20.872395 -45.940380 34,375 192 461 -640
2019-03-27 03:36:50 GMT -20.863548 -45.938431 34,425 192 462 -704
2019-03-27 03:36:43 GMT -20.850311 -45.935505 34,500 192 464 -832
2019-03-27 03:36:39 GMT -20.840784 -45.933388 34,550 192 464 -960
2019-03-27 03:36:33 GMT -20.828339 -45.930599 34,675 192 465 -1408
2019-03-27 03:36:30 GMT -20.822800 -45.929375 34,725 192 465 -1536
2019-03-27 03:36:21 GMT -20.805542 -45.925549 34,925 192 465 -1600
2019-03-27 03:36:18 GMT -20.796249 -45.923439 35,050 192 464 -1664
2019-03-27 03:36:14 GMT -20.790390 -45.922115 35,125 192 464 -1600
2019-03-27 03:36:10 GMT -20.781555 -45.920155 35,225 192 463 -1600
2019-03-27 03:36:07 GMT -20.775238 -45.918732 35,300 192 462 -1536
2019-03-27 03:36:00 GMT -20.759087 -45.915112 35,500 192 461 -1600
2019-03-27 03:35:56 GMT -20.750336 -45.913139 35,550 192 461 -1536
2019-03-27 03:35:49 GMT -20.736694 -45.910099 35,775 192 460 -1536
2019-03-27 03:35:45 GMT -20.729141 -45.908432 35,850 192 460 -1472
2019-03-27 03:35:41 GMT -20.722683 -45.907021 35,925 192 460 -1408
2019-03-27 03:35:38 GMT -20.713093 -45.904873 36,050 192 459 -1408
2019-03-27 03:35:34 GMT -20.704926 -45.903038 36,125 192 459 -1408
2019-03-27 03:35:31 GMT -20.700989 -45.902176 36,175 192 459 -1280
2019-03-27 03:35:27 GMT -20.690369 -45.899799 36,275 192 459 -1280
2019-03-27 03:35:24 GMT -20.683439 -45.898281 36,350 192 459 -1280
2019-03-27 03:35:18 GMT -20.670916 -45.895485 36,475 192 459 -1152
2019-03-27 03:35:15 GMT -20.664871 -45.894112 36,525 192 459 -1152
2019-03-27 03:35:12 GMT -20.661942 -45.893475 36,550 192 459 -1152
2019-03-27 03:35:06 GMT -20.645870 -45.889893 36,700 192 459 -1216
2019-03-27 03:35:02 GMT -20.638596 -45.888226 36,750 192 459 -1152
2019-03-27 03:34:55 GMT -20.623810 -45.884937 36,875 192 459 -1280
2019-03-27 03:34:52 GMT -20.616440 -45.883270 37,000 192 459 -1408
2019-03-27 03:34:46 GMT -20.604767 -45.880672 37,150 192 459 -1472
2019-03-27 03:34:43 GMT -20.598715 -45.879307 37,200 192 459 -1472
2019-03-27 03:34:34 GMT -20.579952 -45.875111 37,450 192 458 -1472
2019-03-27 03:34:31 GMT -20.573090 -45.873562 37,500 192 458 -1472
2019-03-27 03:34:23 GMT -20.557468 -45.870068 37,700 192 457 -1280
2019-03-27 03:34:20 GMT -20.550201 -45.868408 37,750 192 457 -1216
2019-03-27 03:34:12 GMT -20.533539 -45.864731 37,875 192 458 -704
2019-03-27 03:34:08 GMT -20.527908 -45.863476 37,900 192 458 -704
2019-03-27 03:34:04 GMT -20.519806 -45.861691 37,950 192 459 -448
2019-03-27 03:34:00 GMT -20.508499 -45.859192 37,975 192 460 -128
2019-03-27 03:33:57 GMT -20.504211 -45.858231 37,975 192 460 -64
2019-03-27 03:33:51 GMT -20.489874 -45.855038 38,000 192 461 0
2019-03-27 03:33:48 GMT -20.482132 -45.853306 37,975 192 461 0
2019-03-27 03:33:42 GMT -20.470413 -45.850704 38,000 192 461 0
2019-03-27 03:33:39 GMT -20.465155 -45.849545 38,000 192 461 0
2019-03-27 03:33:29 GMT -20.445417 -45.845146 37,975 192 461 0
2019-03-27 03:33:26 GMT -20.437134 -45.843300 38,000 192 461 0
2019-03-27 03:33:18 GMT -20.416351 -45.838688 38,000 192 461 0
2019-03-27 03:33:15 GMT -20.416351 -45.838688 37,975 192 461 0
2019-03-27 03:33:10 GMT -20.403763 -45.835892 37,975 192 461 0
2019-03-27 03:33:06 GMT -20.395559 -45.834061 37,975 192 461 0
2019-03-27 03:32:57 GMT -20.370621 -45.828487 38,000 192 462 0
2019-03-27 03:32:54 GMT -20.370621 -45.828487 37,975 192 462 0
2019-03-27 03:32:47 GMT -20.357986 -45.825691 38,000 192 462 0
2019-03-27 03:32:44 GMT -20.349197 -45.823730 38,000 192 462 0
2019-03-27 03:32:37 GMT -20.335974 -45.820778 37,975 192 462 0
2019-03-27 03:32:34 GMT -20.327547 -45.818932 38,000 192 462 0
2019-03-27 03:32:27 GMT -20.313255 -45.815735 38,000 192 462 0
2019-03-27 03:32:22 GMT -20.303833 -45.813675 38,000 192 462 64
2019-03-27 03:32:15 GMT -20.289328 -45.810440 38,000 192 462 -64
2019-03-27 03:32:12 GMT -20.283646 -45.809212 38,000 192 462 -64
2019-03-27 03:32:09 GMT -20.274399 -45.807152 38,000 192 462 0
2019-03-27 03:32:03 GMT -20.264515 -45.804947 38,000 192 462 0
2019-03-27 03:32:00 GMT -20.258011 -45.803520 38,000 192 462 0
2019-03-27 03:31:55 GMT -20.246567 -45.800972 38,000 192 462 0
2019-03-27 03:31:52 GMT -20.239330 -45.799355 38,000 192 462 0
2019-03-27 03:31:48 GMT -20.231140 -45.797539 37,975 192 462 64
2019-03-27 03:31:43 GMT -20.222305 -45.795578 37,975 192 462 0
2019-03-27 03:31:40 GMT -20.215820 -45.794163 37,975 192 462 0
2019-03-27 03:31:37 GMT -20.208023 -45.792439 37,975 192 462 0
2019-03-27 03:31:32 GMT -20.200058 -45.790672 37,975 192 462 0
2019-03-27 03:31:29 GMT -20.190399 -45.788513 37,975 192 463 0
2019-03-27 03:31:26 GMT -20.178347 -45.785824 38,000 192 463 0
2019-03-27 03:31:21 GMT -20.178347 -45.785824 38,000 192 463 0
2019-03-27 03:31:18 GMT -20.171860 -45.784393 38,000 192 463 0
2019-03-27 03:31:15 GMT -20.162979 -45.782383 38,000 192 463 0
2019-03-27 03:31:12 GMT -20.156250 -45.780910 37,975 192 463 0
2019-03-27 03:31:07 GMT -20.131981 -45.775536 37,975 192 464 -64
2019-03-27 03:31:01 GMT -20.131981 -45.775536 37,975 192 464 64
2019-03-27 03:30:56 GMT -20.121693 -45.773239 37,975 192 464 0
2019-03-27 03:30:53 GMT -20.114710 -45.771690 37,975 192 464 -64
2019-03-27 03:30:48 GMT -20.105621 -45.769680 37,975 192 464 0
2019-03-27 03:30:45 GMT -20.099068 -45.768246 37,975 192 464 0
2019-03-27 03:30:40 GMT -20.088318 -45.765854 37,975 192 464 0
2019-03-27 03:30:37 GMT -20.083237 -45.764729 38,000 192 465 0
2019-03-27 03:30:34 GMT -20.075226 -45.762962 38,000 192 465 0
2019-03-27 03:30:29 GMT -20.065689 -45.760853 37,975 192 464 64
2019-03-27 03:30:26 GMT -20.059479 -45.759480 37,975 192 464 0
2019-03-27 03:30:23 GMT -20.052841 -45.758007 37,975 192 464 0
2019-03-27 03:30:17 GMT -20.042042 -45.755661 38,000 192 464 0
2019-03-27 03:30:12 GMT -20.030457 -45.753101 37,975 192 464 0
2019-03-27 03:30:08 GMT -20.014624 -45.749565 38,000 192 464 -192
2019-03-27 03:30:04 GMT -20.014624 -45.749565 37,975 192 464 0
2019-03-27 03:30:01 GMT -20.006149 -45.747719 38,000 192 464 0
2019-03-27 03:29:57 GMT -19.996840 -45.745670 37,975 192 464 0
2019-03-27 03:29:52 GMT -19.987576 -45.743626 38,000 192 464 0
2019-03-27 03:29:49 GMT -19.983385 -45.742676 38,000 192 464 -64
2019-03-27 03:29:46 GMT -19.975332 -45.740879 37,975 192 464 -64
2019-03-27 03:29:43 GMT -19.968796 -45.739468 37,975 192 465 64
2019-03-27 03:29:40 GMT -19.962067 -45.737949 38,000 192 464 0
2019-03-27 03:29:36 GMT -19.953825 -45.736134 38,000 192 464 0
2019-03-27 03:29:32 GMT -19.945633 -45.734318 38,000 192 464 0
2019-03-27 03:29:29 GMT -19.938231 -45.732689 37,975 192 464 0
2019-03-27 03:29:23 GMT -19.927244 -45.730240 37,975 192 464 0
2019-03-27 03:29:20 GMT -19.923008 -45.729343 37,975 192 464 0
2019-03-27 03:29:17 GMT -19.914581 -45.727444 37,975 192 464 0
2019-03-27 03:29:13 GMT -19.906769 -45.725735 37,975 192 465 0
2019-03-27 03:29:07 GMT -19.891983 -45.722450 38,000 192 465 0
2019-03-27 03:29:03 GMT -19.885813 -45.721104 38,000 192 465 0
2019-03-27 03:29:00 GMT -19.877340 -45.719204 37,975 192 466 0
2019-03-27 03:28:55 GMT -19.868729 -45.717358 37,975 192 466 0
2019-03-27 03:28:52 GMT -19.861496 -45.715729 38,000 192 466 0
2019-03-27 03:28:49 GMT -19.854902 -45.714260 37,975 192 466 0
2019-03-27 03:28:46 GMT -19.847687 -45.712711 37,975 192 467 0
2019-03-27 03:28:42 GMT -19.839020 -45.710777 37,975 192 467 0
2019-03-27 03:28:38 GMT -19.830917 -45.709011 38,000 192 467 0
2019-03-27 03:28:34 GMT -19.823273 -45.707294 38,000 192 467 0
2019-03-27 03:28:29 GMT -19.814121 -45.705273 37,975 192 468 0
2019-03-27 03:28:24 GMT -19.800705 -45.702339 38,000 192 468 0
2019-03-27 03:28:20 GMT -19.793060 -45.700672 37,975 192 469 0
2019-03-27 03:28:15 GMT -19.785782 -45.699055 37,975 192 469 0
2019-03-27 03:28:11 GMT -19.774704 -45.696651 38,000 192 469 0
2019-03-27 03:28:06 GMT -19.762543 -45.693935 37,975 192 469 -64
2019-03-27 03:28:00 GMT -19.752720 -45.691788 38,000 192 469 64
2019-03-27 03:27:57 GMT -19.745085 -45.690090 38,000 192 469 64
2019-03-27 03:27:54 GMT -19.738724 -45.688705 37,975 192 470 -128
2019-03-27 03:27:51 GMT -19.730301 -45.686844 38,000 192 470 0
2019-03-27 03:27:48 GMT -19.723671 -45.685349 37,975 192 470 64
2019-03-27 03:27:44 GMT -19.717484 -45.683998 38,000 192 470 -256
2019-03-27 03:27:40 GMT -19.705994 -45.681446 37,975 192 469 0
2019-03-27 03:27:37 GMT -19.700628 -45.680252 38,000 192 469 0
2019-03-27 03:27:32 GMT -19.693365 -45.678654 38,000 192 469 0
2019-03-27 03:27:29 GMT -19.683380 -45.676445 38,000 192 469 0
2019-03-27 03:27:26 GMT -19.677958 -45.675259 37,975 192 469 0
2019-03-27 03:27:23 GMT -19.671207 -45.673813 37,975 192 468 0
2019-03-27 03:27:18 GMT -19.660128 -45.671314 38,000 192 469 0
2019-03-27 03:27:15 GMT -19.648453 -45.668743 38,000 192 469 0
2019-03-27 03:27:12 GMT -19.648453 -45.668743 38,000 192 469 0
2019-03-27 03:27:07 GMT -19.637596 -45.666321 37,975 192 468 0
2019-03-27 03:27:03 GMT -19.630142 -45.664673 37,975 192 468 0
2019-03-27 03:26:58 GMT -19.620346 -45.662514 38,000 192 468 0
2019-03-27 03:26:54 GMT -19.609526 -45.660130 37,975 192 468 0
2019-03-27 03:26:46 GMT -19.590134 -45.655846 38,000 192 469 0
2019-03-27 03:26:43 GMT -19.586109 -45.654984 38,000 192 469 0
2019-03-27 03:26:40 GMT -19.579266 -45.653439 38,000 192 469 -64
2019-03-27 03:26:32 GMT -19.562693 -45.649792 38,000 192 469 0
2019-03-27 03:26:29 GMT -19.556030 -45.648338 37,975 192 469 0
2019-03-27 03:26:24 GMT -19.545191 -45.645947 38,000 192 469 0
2019-03-27 03:26:21 GMT -19.538767 -45.644547 37,975 192 469 0
2019-03-27 03:26:18 GMT -19.533005 -45.643288 38,000 192 470 0
2019-03-27 03:26:11 GMT -19.519541 -45.640354 37,975 192 470 0
2019-03-27 03:26:07 GMT -19.509888 -45.638237 38,000 192 471 0
2019-03-27 03:25:59 GMT -19.493134 -45.634560 38,000 192 472 0
2019-03-27 03:25:55 GMT -19.487183 -45.633232 37,975 192 472 0
2019-03-27 03:25:49 GMT -19.469357 -45.629368 37,975 192 473 0
2019-03-27 03:25:45 GMT -19.463928 -45.628181 37,975 192 474 64
2019-03-27 03:25:38 GMT -19.446079 -45.624271 38,000 192 475 0
2019-03-27 03:25:35 GMT -19.440674 -45.623081 38,000 192 475 -64
2019-03-27 03:25:27 GMT -19.421825 -45.618980 38,000 192 476 0
2019-03-27 03:25:24 GMT -19.416870 -45.617882 38,000 192 476 0
2019-03-27 03:25:16 GMT -19.398285 -45.613762 37,975 192 476 0
2019-03-27 03:25:12 GMT -19.393936 -45.612782 37,975 192 476 0
2019-03-27 03:25:05 GMT -19.374481 -45.608467 38,000 192 476 0
2019-03-27 03:25:02 GMT -19.371002 -45.607681 38,000 192 476 0
2019-03-27 03:24:55 GMT -19.356216 -45.604443 37,975 192 476 0
2019-03-27 03:24:52 GMT -19.347702 -45.602531 38,000 192 476 0
2019-03-27 03:24:49 GMT -19.340332 -45.600914 38,000 192 476 0
2019-03-27 03:24:43 GMT -19.329327 -45.598503 37,975 192 475 0
2019-03-27 03:24:39 GMT -19.319365 -45.596310 38,000 192 475 0
2019-03-27 03:24:34 GMT -19.308100 -45.593910 38,000 192 476 -64
2019-03-27 03:24:28 GMT -19.294785 -45.591015 38,000 192 475 0
2019-03-27 03:24:21 GMT -19.281967 -45.588211 37,975 192 475 0
2019-03-27 03:24:16 GMT -19.268967 -45.585365 37,975 192 475 0
2019-03-27 03:24:11 GMT -19.258163 -45.583012 38,000 192 476 0
2019-03-27 03:24:08 GMT -19.254272 -45.582127 37,975 192 476 0
2019-03-27 03:24:01 GMT -19.240227 -45.579029 38,000 192 477 0
2019-03-27 03:23:58 GMT -19.230310 -45.576881 37,975 192 476 0
2019-03-27 03:23:51 GMT -19.213783 -45.573288 38,000 192 477 0
2019-03-27 03:23:47 GMT -19.207685 -45.571938 38,000 192 477 64
2019-03-27 03:23:42 GMT -19.196001 -45.569389 38,000 192 477 64
2019-03-27 03:23:38 GMT -19.188812 -45.567806 38,000 192 478 0
2019-03-27 03:23:35 GMT -19.184271 -45.566795 38,000 192 478 0
2019-03-27 03:23:25 GMT -19.160667 -45.561649 37,975 192 479 0
2019-03-27 03:23:19 GMT -19.145782 -45.558392 37,975 192 478 0
2019-03-27 03:23:15 GMT -19.138603 -45.556808 37,975 192 478 -64
2019-03-27 03:23:12 GMT -19.128387 -45.554611 37,975 192 479 -64
2019-03-27 03:23:08 GMT -19.122078 -45.553211 38,000 192 479 -64
2019-03-27 03:23:04 GMT -19.112951 -45.551212 38,000 192 479 0
2019-03-27 03:22:55 GMT -19.093872 -45.547012 37,975 192 477 0
2019-03-27 03:22:52 GMT -19.088606 -45.545872 37,975 192 477 0
2019-03-27 03:22:45 GMT -19.075151 -45.542973 38,000 192 477 0
2019-03-27 03:22:41 GMT -19.066912 -45.541176 37,975 192 476 0
2019-03-27 03:22:34 GMT -19.046814 -45.536762 37,975 192 475 0
2019-03-27 03:22:30 GMT -19.042511 -45.535782 37,975 192 475 0
2019-03-27 03:22:25 GMT -19.028549 -45.532738 37,975 192 475 0
2019-03-27 03:22:21 GMT -19.020493 -45.530972 38,000 192 474 0
2019-03-27 03:22:12 GMT -19.000671 -45.526657 37,975 192 473 0
2019-03-27 03:22:09 GMT -18.995268 -45.525497 37,975 192 473 0
2019-03-27 03:22:00 GMT -18.974396 -45.520920 37,975 192 473 0
2019-03-27 03:21:57 GMT -18.969896 -45.519955 38,000 192 472 0
2019-03-27 03:21:51 GMT -18.954906 -45.516659 37,975 192 471 0
2019-03-27 03:21:48 GMT -18.951044 -45.515808 37,975 192 471 0
2019-03-27 03:21:37 GMT -18.926186 -45.510414 38,000 192 471 0
2019-03-27 03:21:27 GMT -18.904633 -45.505714 38,000 192 470 0
2019-03-27 03:21:16 GMT -18.881104 -45.500614 38,000 192 469 0
2019-03-27 03:21:04 GMT -18.857620 -45.495464 38,000 192 468 0
2019-03-27 03:20:55 GMT -18.834848 -45.490490 38,000 192 469 0
2019-03-27 03:20:44 GMT -18.812027 -45.485508 37,975 192 469 0
2019-03-27 03:20:32 GMT -18.790283 -45.480801 37,975 192 469 0
2019-03-27 03:20:21 GMT -18.766388 -45.475601 38,000 192 470 -64
2019-03-27 03:20:12 GMT -18.743362 -45.470547 37,975 192 469 0
2019-03-27 03:20:01 GMT -18.720564 -45.465572 38,000 192 468 0
2019-03-27 03:19:50 GMT -18.697567 -45.460575 37,975 192 468 0
2019-03-27 03:19:39 GMT -18.675201 -45.455734 38,000 192 468 -64
2019-03-27 03:19:28 GMT -18.651398 -45.450588 37,975 192 468 0
2019-03-27 03:19:21 GMT -18.638580 -45.447792 37,975 192 468 0
2019-03-27 03:19:18 GMT -18.628996 -45.445694 38,000 192 468 0
2019-03-27 03:19:07 GMT -18.605997 -45.440701 37,975 192 468 0
2019-03-27 03:19:00 GMT -18.593033 -45.437885 38,000 192 468 0
2019-03-27 03:18:55 GMT -18.583145 -45.435726 38,000 192 468 0
2019-03-27 03:18:49 GMT -18.569780 -45.432861 38,000 192 468 0
2019-03-27 03:18:46 GMT -18.560005 -45.430714 37,975 192 468 0
2019-03-27 03:18:38 GMT -18.547668 -45.428017 37,975 192 468 0
2019-03-27 03:18:35 GMT -18.537643 -45.425819 37,975 192 468 0
2019-03-27 03:18:29 GMT -18.525091 -45.423122 37,975 192 468 0
2019-03-27 03:18:24 GMT -18.513592 -45.420628 37,975 192 468 0
2019-03-27 03:18:16 GMT -18.500372 -45.417728 37,975 192 468 0
2019-03-27 03:18:12 GMT -18.491432 -45.415783 37,975 192 468 0
2019-03-27 03:18:06 GMT -18.478212 -45.412937 37,975 192 469 0
2019-03-27 03:18:01 GMT -18.467552 -45.410641 38,000 192 469 -64
2019-03-27 03:17:55 GMT -18.455841 -45.408066 37,975 192 469 0
2019-03-27 03:17:51 GMT -18.444717 -45.405659 38,000 192 469 0
2019-03-27 03:17:41 GMT -18.421280 -45.400558 38,000 192 469 0
2019-03-27 03:17:34 GMT -18.408463 -45.397762 37,975 192 469 0
2019-03-27 03:17:30 GMT -18.397957 -45.395508 37,975 192 469 0
2019-03-27 03:17:18 GMT -18.375425 -45.390564 37,975 192 469 0
2019-03-27 03:17:12 GMT -18.363461 -45.387966 38,000 192 469 0
2019-03-27 03:17:02 GMT -18.340046 -45.382824 37,975 192 469 0
2019-03-27 03:16:56 GMT -18.326685 -45.379875 38,000 192 469 0
2019-03-27 03:16:51 GMT -18.316315 -45.377655 38,000 192 469 0
2019-03-27 03:16:47 GMT -18.306061 -45.375446 38,000 192 470 0
2019-03-27 03:16:41 GMT -18.294331 -45.372887 37,975 192 470 0
2019-03-27 03:16:32 GMT -18.274687 -45.368641 37,975 192 470 0
2019-03-27 03:16:29 GMT -18.271408 -45.367943 37,975 192 470 0
2019-03-27 03:16:19 GMT -18.249207 -45.363087 37,975 192 471 0
2019-03-27 03:16:08 GMT -18.224350 -45.357693 38,000 192 471 0
2019-03-27 03:15:58 GMT -18.203182 -45.353111 38,000 192 471 0
2019-03-27 03:15:47 GMT -18.179352 -45.347996 38,000 192 471 0
2019-03-27 03:15:35 GMT -18.154907 -45.342747 37,975 192 471 0
2019-03-27 03:15:25 GMT -18.131607 -45.337734 37,975 192 473 0
2019-03-27 03:15:14 GMT -18.111099 -45.333447 37,975 192 473 0
2019-03-27 03:14:48 GMT -18.053051 -45.321251 38,000 192 475 0
2019-03-27 03:14:40 GMT -18.035934 -45.317688 38,000 192 476 0
2019-03-27 03:14:31 GMT -18.017998 -45.313946 37,975 192 476 0
2019-03-27 03:14:21 GMT -17.996349 -45.309433 37,975 192 475 0
2019-03-27 03:14:10 GMT -17.972563 -45.304333 37,975 192 475 -64
2019-03-27 03:14:06 GMT -17.961136 -45.301834 38,000 194 475 0
2019-03-27 03:13:58 GMT -17.936554 -45.296295 38,000 194 475 0
2019-03-27 03:13:45 GMT -17.917374 -45.291138 38,000 196 473 0
2019-03-27 03:13:40 GMT -17.905563 -45.287476 38,000 198 472 0
2019-03-27 03:13:26 GMT -17.875671 -45.276684 37,975 202 470 0
2019-03-27 03:13:21 GMT -17.866283 -45.272793 37,975 203 469 0
2019-03-27 03:13:10 GMT -17.844177 -45.262707 38,000 206 468 0
2019-03-27 03:13:03 GMT -17.831463 -45.256313 38,000 207 467 0
2019-03-27 03:12:52 GMT -17.809349 -45.244789 38,000 207 467 0
2019-03-27 03:12:40 GMT -17.787983 -45.233753 38,000 207 467 0
2019-03-27 03:12:37 GMT -17.780581 -45.229927 37,975 207 467 0
2019-03-27 03:12:30 GMT -17.768150 -45.223454 37,975 207 467 0
2019-03-27 03:12:26 GMT -17.760378 -45.219433 38,000 207 467 0
2019-03-27 03:12:20 GMT -17.747156 -45.212616 37,975 207 467 0
2019-03-27 03:12:15 GMT -17.738663 -45.208210 38,000 207 467 0
2019-03-27 03:12:08 GMT -17.724838 -45.201080 38,000 207 467 0
2019-03-27 03:11:57 GMT -17.705631 -45.191086 38,000 207 467 0
2019-03-27 03:11:46 GMT -17.684555 -45.179878 38,000 208 467 0
2019-03-27 03:11:37 GMT -17.664015 -45.168571 38,000 208 467 0
2019-03-27 03:11:25 GMT -17.641903 -45.156406 38,000 208 467 -64
2019-03-27 03:11:15 GMT -17.621838 -45.145275 37,975 208 467 0
2019-03-27 03:11:04 GMT -17.601913 -45.134239 37,975 208 467 0
2019-03-27 03:10:59 GMT -17.592087 -45.128799 38,000 208 467 0
2019-03-27 03:10:52 GMT -17.581375 -45.122921 38,000 208 467 64
2019-03-27 03:10:48 GMT -17.572725 -45.118153 38,000 208 468 0
2019-03-27 03:10:43 GMT -17.560684 -45.111454 38,000 209 467 0
2019-03-27 03:10:38 GMT -17.552427 -45.106873 37,975 209 468 0
2019-03-27 03:10:32 GMT -17.540558 -45.100250 37,975 209 468 0
2019-03-27 03:10:27 GMT -17.527756 -45.093140 37,975 209 469 -64
2019-03-27 03:10:21 GMT -17.519257 -45.088421 37,975 209 469 -64
2019-03-27 03:10:09 GMT -17.498753 -45.077003 38,000 208 468 -64
2019-03-27 03:09:58 GMT -17.477829 -45.065388 38,000 209 467 256
2019-03-27 03:09:49 GMT -17.457596 -45.054161 37,975 209 465 0
2019-03-27 03:09:43 GMT -17.446754 -45.048115 37,975 208 464 0
2019-03-27 03:09:38 GMT -17.436264 -45.042355 37,975 208 464 64
2019-03-27 03:09:27 GMT -17.415890 -45.031292 37,975 207 465 0
2019-03-27 03:09:16 GMT -17.394197 -45.019913 37,975 207 465 -64
2019-03-27 03:09:04 GMT -17.373550 -45.009106 38,000 207 466 0
2019-03-27 03:08:53 GMT -17.352486 -44.998089 38,000 207 466 -64
2019-03-27 03:08:44 GMT -17.332535 -44.987713 38,000 207 466 0
2019-03-27 03:08:33 GMT -17.311054 -44.976460 37,975 207 467 0
2019-03-27 03:08:22 GMT -17.290283 -44.965595 38,000 207 468 64
2019-03-27 03:08:11 GMT -17.268539 -44.954174 37,975 207 470 0
2019-03-27 03:08:00 GMT -17.248260 -44.943577 38,000 207 470 0
2019-03-27 03:07:49 GMT -17.226562 -44.932365 38,000 207 470 64
2019-03-27 03:07:42 GMT -17.211136 -44.924351 37,975 207 470 0
2019-03-27 03:07:38 GMT -17.204498 -44.920879 37,975 207 470 0
2019-03-27 03:07:31 GMT -17.192207 -44.914463 38,000 207 471 0
2019-03-27 03:07:28 GMT -17.184013 -44.910198 37,975 207 471 0
2019-03-27 03:07:17 GMT -17.162460 -44.898964 37,975 207 472 0
2019-03-27 03:07:08 GMT -17.147936 -44.891411 37,975 207 472 0
2019-03-27 03:07:05 GMT -17.142071 -44.888321 38,000 207 473 0
2019-03-27 03:06:55 GMT -17.121368 -44.877560 38,000 207 473 0
2019-03-27 03:06:45 GMT -17.100126 -44.866497 37,975 207 473 0
2019-03-27 03:06:34 GMT -17.078339 -44.855106 38,000 207 473 0
2019-03-27 03:06:23 GMT -17.057556 -44.844311 37,975 207 473 0
2019-03-27 03:06:11 GMT -17.036583 -44.833389 37,975 207 473 0
2019-03-27 03:06:00 GMT -17.014801 -44.822048 37,975 207 473 0
2019-03-27 03:05:50 GMT -16.992592 -44.810535 37,975 207 474 0
2019-03-27 03:05:40 GMT -16.972687 -44.800220 37,975 207 474 0
2019-03-27 03:05:29 GMT -16.951578 -44.789249 38,000 207 474 0
2019-03-27 03:05:17 GMT -16.929886 -44.778065 38,000 207 474 0
2019-03-27 03:05:06 GMT -16.908192 -44.766834 38,000 207 475 0
2019-03-27 03:04:57 GMT -16.887451 -44.756084 38,000 207 476 0
2019-03-27 03:04:46 GMT -16.865923 -44.744812 37,975 207 476 0
2019-03-27 03:04:35 GMT -16.844833 -44.733677 38,000 207 477 0
2019-03-27 03:04:24 GMT -16.823502 -44.722401 38,000 207 477 0
2019-03-27 03:04:12 GMT -16.802124 -44.711174 37,975 207 478 0
2019-03-27 03:04:01 GMT -16.780172 -44.699593 37,975 207 478 0
2019-03-27 03:03:52 GMT -16.758636 -44.688240 38,000 207 477 0
2019-03-27 03:03:41 GMT -16.737858 -44.677277 38,000 207 478 0
2019-03-27 03:03:29 GMT -16.716339 -44.665928 38,000 208 477 0
2019-03-27 03:03:19 GMT -16.695635 -44.655010 38,000 207 476 0
2019-03-27 03:03:09 GMT -16.674133 -44.643665 38,000 207 476 0
2019-03-27 03:03:04 GMT -16.666447 -44.639660 37,975 207 476 0
2019-03-27 03:02:58 GMT -16.652666 -44.632401 37,975 207 476 0
2019-03-27 03:02:47 GMT -16.631346 -44.621120 37,975 207 476 0
2019-03-27 03:02:42 GMT -16.623852 -44.617195 37,975 207 476 0
2019-03-27 03:02:36 GMT -16.609863 -44.609795 38,000 207 476 0
2019-03-27 03:02:31 GMT -16.602158 -44.605717 38,000 207 476 0
2019-03-27 03:02:25 GMT -16.588806 -44.598663 37,975 207 477 0
2019-03-27 03:02:15 GMT -16.567612 -44.587532 37,975 207 477 0
2019-03-27 03:02:04 GMT -16.546234 -44.576305 37,975 207 478 0
2019-03-27 03:01:56 GMT -16.533073 -44.569374 38,000 207 478 0
2019-03-27 03:01:53 GMT -16.524649 -44.564960 38,000 207 478 0
2019-03-27 03:01:47 GMT -16.514923 -44.559826 38,000 207 479 0
2019-03-27 03:01:41 GMT -16.503187 -44.553680 37,975 207 479 64
2019-03-27 03:01:37 GMT -16.494062 -44.548874 38,000 207 479 -64
2019-03-27 03:01:30 GMT -16.481773 -44.542400 37,975 207 480 0
2019-03-27 03:01:25 GMT -16.471811 -44.537151 37,975 207 481 0
2019-03-27 03:01:21 GMT -16.460686 -44.531315 37,975 207 481 0
2019-03-27 03:01:14 GMT -16.449141 -44.525234 38,000 207 481 0
2019-03-27 03:01:09 GMT -16.438156 -44.519444 38,000 207 481 0
2019-03-27 03:00:59 GMT -16.416834 -44.508263 37,975 207 482 0
2019-03-27 03:00:48 GMT -16.395447 -44.497086 37,975 207 482 0
2019-03-27 03:00:36 GMT -16.374298 -44.485954 37,975 207 482 0
2019-03-27 03:00:26 GMT -16.352325 -44.474438 37,975 207 482 0
2019-03-27 03:00:16 GMT -16.331085 -44.463306 37,975 207 483 0
2019-03-27 03:00:05 GMT -16.309343 -44.451862 37,975 207 484 0
2019-03-27 02:59:54 GMT -16.287231 -44.440235 38,000 207 484 0
2019-03-27 02:59:42 GMT -16.266129 -44.429192 37,975 207 485 0
2019-03-27 02:59:31 GMT -16.243845 -44.417480 38,000 207 485 0
2019-03-27 02:59:22 GMT -16.222198 -44.406052 38,000 207 485 64
2019-03-27 02:59:11 GMT -16.200504 -44.394672 38,000 207 485 0
2019-03-27 02:58:59 GMT -16.177048 -44.382309 37,975 207 484 0
2019-03-27 02:58:49 GMT -16.157164 -44.371964 37,975 207 484 64
2019-03-27 02:58:37 GMT -16.135712 -44.360722 37,975 207 484 0
2019-03-27 02:58:26 GMT -16.113602 -44.349205 38,000 207 485 0
2019-03-27 02:58:17 GMT -16.092085 -44.337975 38,000 207 485 0
2019-03-27 02:58:06 GMT -16.070810 -44.326843 38,000 207 485 64
2019-03-27 02:57:55 GMT -16.049286 -44.315620 38,000 207 484 0
2019-03-27 02:57:51 GMT -16.038437 -44.309982 37,975 207 485 0
2019-03-27 02:57:43 GMT -16.026585 -44.303791 37,975 207 485 -64
2019-03-27 02:57:39 GMT -16.014156 -44.297268 38,000 207 485 -64
2019-03-27 02:57:33 GMT -16.004938 -44.292412 37,975 207 483 0
2019-03-27 02:57:27 GMT -15.989868 -44.284588 38,000 207 483 0
2019-03-27 02:57:23 GMT -15.984083 -44.281574 38,000 207 483 0
2019-03-27 02:57:12 GMT -15.961853 -44.269985 38,000 207 482 0
2019-03-27 02:57:00 GMT -15.941071 -44.259148 37,975 207 482 0
2019-03-27 02:56:50 GMT -15.916306 -44.246231 38,000 207 481 0
2019-03-27 02:56:38 GMT -15.892562 -44.233852 37,975 207 482 64
2019-03-27 02:56:29 GMT -15.876389 -44.225414 37,975 207 482 0
2019-03-27 02:56:18 GMT -15.854249 -44.213791 38,000 208 481 0
2019-03-27 02:56:06 GMT -15.833359 -44.202816 37,975 207 481 0
2019-03-27 02:55:56 GMT -15.811654 -44.191425 38,000 207 480 0
2019-03-27 02:55:46 GMT -15.789963 -44.180122 38,000 207 480 -192
2019-03-27 02:55:35 GMT -15.768686 -44.169010 38,000 207 478 0
2019-03-27 02:55:24 GMT -15.747070 -44.157665 37,975 207 478 64
2019-03-27 02:55:12 GMT -15.725905 -44.146599 37,975 207 478 64
2019-03-27 02:55:02 GMT -15.704584 -44.135319 37,975 207 478 0
2019-03-27 02:54:56 GMT -15.687964 -44.126587 37,975 207 478 0
2019-03-27 02:54:52 GMT -15.682844 -44.123890 38,000 207 478 0
2019-03-27 02:54:41 GMT -15.661849 -44.112953 38,000 207 478 0
2019-03-27 02:54:30 GMT -15.618881 -44.091080 38,000 207 477 0
2019-03-27 02:54:18 GMT -15.618881 -44.091080 37,975 207 477 -64
2019-03-27 02:54:09 GMT -15.597565 -44.080376 37,975 206 477 0
2019-03-27 02:53:58 GMT -15.576050 -44.069534 38,000 206 477 0
2019-03-27 02:53:47 GMT -15.554169 -44.058548 37,975 206 477 0
2019-03-27 02:53:41 GMT -15.540068 -44.051449 38,000 206 477 0
2019-03-27 02:53:36 GMT -15.532700 -44.047756 37,975 207 477 0
2019-03-27 02:53:24 GMT -15.511392 -44.036980 38,000 207 477 0
2019-03-27 02:53:13 GMT -15.489466 -44.025944 37,975 206 478 0
2019-03-27 02:53:04 GMT -15.468109 -44.015278 38,000 207 478 0
2019-03-27 02:52:53 GMT -15.446960 -44.004627 37,975 207 477 0
2019-03-27 02:52:42 GMT -15.424301 -43.993160 37,975 207 477 64
2019-03-27 02:52:31 GMT -15.404182 -43.983078 37,975 207 477 -64
2019-03-27 02:52:19 GMT -15.381884 -43.971848 37,975 206 478 0
2019-03-27 02:52:10 GMT -15.360947 -43.961311 38,000 206 478 64
2019-03-27 02:51:59 GMT -15.339195 -43.950413 37,975 207 477 0
2019-03-27 02:51:48 GMT -15.318479 -43.940018 38,000 206 477 64
2019-03-27 02:51:36 GMT -15.295166 -43.928352 37,975 206 476 0
2019-03-27 02:51:27 GMT -15.274887 -43.918182 38,000 206 476 0
2019-03-27 02:51:16 GMT -15.253235 -43.907341 38,000 206 475 0
2019-03-27 02:51:04 GMT -15.231995 -43.896694 37,975 206 474 -64
2019-03-27 02:50:53 GMT -15.210804 -43.886066 38,000 207 474 0
2019-03-27 02:50:44 GMT -15.189902 -43.875568 37,975 206 473 0
2019-03-27 02:50:33 GMT -15.168732 -43.864986 38,000 206 472 0
2019-03-27 02:50:22 GMT -15.147491 -43.854340 38,000 207 471 0
2019-03-27 02:50:10 GMT -15.126032 -43.843590 38,000 206 471 64
2019-03-27 02:50:00 GMT -15.104599 -43.832893 37,975 206 471 0
2019-03-27 02:49:50 GMT -15.083359 -43.822247 38,000 206 471 0
2019-03-27 02:49:39 GMT -15.062119 -43.811646 38,000 206 470 0
2019-03-27 02:49:28 GMT -15.040924 -43.800995 38,000 206 470 0
2019-03-27 02:49:17 GMT -15.020142 -43.790588 37,975 207 469 0
2019-03-27 02:49:06 GMT -14.998581 -43.779797 37,975 206 469 0
2019-03-27 02:48:56 GMT -14.978043 -43.769482 38,000 206 469 -64
2019-03-27 02:48:45 GMT -14.955917 -43.758450 38,000 206 468 0
2019-03-27 02:48:34 GMT -14.934814 -43.747849 37,975 206 468 0
2019-03-27 02:48:22 GMT -14.913940 -43.737408 37,975 206 466 0
2019-03-27 02:48:11 GMT -14.892700 -43.726837 37,975 206 466 0
2019-03-27 02:48:02 GMT -14.872649 -43.716854 38,000 206 465 0
2019-03-27 02:47:51 GMT -14.851700 -43.706459 37,975 206 464 0
2019-03-27 02:47:40 GMT -14.830170 -43.695808 38,000 206 462 0
2019-03-27 02:47:28 GMT -14.809296 -43.685429 38,000 206 462 -64
2019-03-27 02:47:19 GMT -14.788622 -43.675182 37,975 206 462 128
2019-03-27 02:47:08 GMT -14.768005 -43.664925 37,975 206 460 0
2019-03-27 02:46:57 GMT -14.747004 -43.654560 37,975 206 460 0
2019-03-27 02:46:46 GMT -14.726715 -43.644562 37,975 206 460 0
2019-03-27 02:46:35 GMT -14.705712 -43.634178 38,000 206 460 0
2019-03-27 02:46:25 GMT -14.684903 -43.623913 38,000 206 460 0
2019-03-27 02:46:14 GMT -14.663544 -43.613308 38,000 206 461 0
2019-03-27 02:46:02 GMT -14.643705 -43.603436 37,975 206 460 0
2019-03-27 02:45:52 GMT -14.622711 -43.593040 38,000 206 460 0
2019-03-27 02:45:42 GMT -14.601929 -43.582764 38,000 206 459 0
2019-03-27 02:45:30 GMT -14.580414 -43.572109 37,975 206 460 0
2019-03-27 02:45:20 GMT -14.560776 -43.562447 37,975 206 460 0
2019-03-27 02:45:08 GMT -14.539948 -43.552174 37,975 206 460 0
2019-03-27 02:44:58 GMT -14.518526 -43.541615 37,975 206 461 0
2019-03-27 02:44:48 GMT -14.497879 -43.531429 38,000 206 462 0
2019-03-27 02:44:37 GMT -14.477234 -43.521183 37,975 206 462 64
2019-03-27 02:44:25 GMT -14.456797 -43.511017 38,000 206 462 0
2019-03-27 02:44:14 GMT -14.435303 -43.500366 37,975 206 462 0
2019-03-27 02:44:05 GMT -14.414994 -43.490295 37,975 206 463 0
2019-03-27 02:43:54 GMT -14.394464 -43.480129 38,000 206 463 0
2019-03-27 02:43:43 GMT -14.372955 -43.469490 38,000 206 462 0
2019-03-27 02:43:31 GMT -14.352241 -43.459217 37,975 206 463 0
2019-03-27 02:43:20 GMT -14.330967 -43.448662 37,975 206 463 0
2019-03-27 02:43:11 GMT -14.311066 -43.438759 38,000 206 462 0
2019-03-27 02:43:00 GMT -14.289582 -43.428135 37,975 206 462 0
2019-03-27 02:42:48 GMT -14.268860 -43.417919 37,975 206 462 0
2019-03-27 02:42:38 GMT -14.248032 -43.407551 38,000 206 462 0
2019-03-27 02:42:28 GMT -14.227714 -43.397491 37,975 206 462 0
2019-03-27 02:42:17 GMT -14.206284 -43.386856 37,975 206 462 0
2019-03-27 02:42:05 GMT -14.185410 -43.376534 37,975 206 462 0
2019-03-27 02:41:54 GMT -14.164682 -43.366264 38,000 206 463 0
2019-03-27 02:41:45 GMT -14.144153 -43.356098 38,000 206 464 0
2019-03-27 02:41:34 GMT -14.123428 -43.345848 38,000 206 463 0
2019-03-27 02:41:23 GMT -14.101883 -43.335236 38,000 206 463 0
2019-03-27 02:41:11 GMT -14.081354 -43.325066 38,000 206 464 0
2019-03-27 02:41:02 GMT -14.060405 -43.314754 37,975 206 464 0
2019-03-27 02:40:51 GMT -14.039200 -43.304272 37,975 206 464 0
2019-03-27 02:40:40 GMT -14.018234 -43.293900 37,975 206 465 0
2019-03-27 02:40:29 GMT -13.998211 -43.283962 38,000 206 465 0
2019-03-27 02:40:18 GMT -13.976890 -43.273411 38,000 206 465 0
2019-03-27 02:40:07 GMT -13.955104 -43.262714 37,975 206 465 0
2019-03-27 02:39:57 GMT -13.935412 -43.252979 38,000 206 464 0
2019-03-27 02:39:45 GMT -13.914185 -43.242519 38,000 206 464 0
2019-03-27 02:39:34 GMT -13.892075 -43.231579 38,000 206 464 0
2019-03-27 02:39:25 GMT -13.872162 -43.221729 38,000 206 464 0
2019-03-27 02:39:14 GMT -13.851700 -43.211643 37,975 206 465 0
2019-03-27 02:39:03 GMT -13.829544 -43.200752 38,000 206 464 0
2019-03-27 02:38:52 GMT -13.808121 -43.190193 38,000 206 466 0
We lost coverage of the aircraft here for a total of 12 minutes
2019-03-27 02:26:58 GMT -12.425491 -42.513233 37,975 206 465 0
2019-03-27 02:26:51 GMT -12.409332 -42.505440 37,975 206 465 0
2019-03-27 02:26:32 GMT -12.374050 -42.488274 37,975 206 465 0
2019-03-27 02:26:27 GMT -12.362785 -42.482780 37,975 206 465 0
2019-03-27 02:26:16 GMT -12.342115 -42.472759 38,000 206 465 0
2019-03-27 02:26:06 GMT -12.323593 -42.463768 38,000 206 465 0
2019-03-27 02:25:31 GMT -12.253876 -42.429958 37,975 206 464 0
2019-03-27 02:25:22 GMT -12.236163 -42.421345 37,975 206 464 0
2019-03-27 02:25:09 GMT -12.213585 -42.410408 37,975 206 465 0
2019-03-27 02:25:03 GMT -12.201900 -42.404770 37,975 206 465 0
2019-03-27 02:24:53 GMT -12.179855 -42.394108 38,000 206 465 0
2019-03-27 02:24:50 GMT -12.174042 -42.391270 38,000 206 465 0
2019-03-27 02:24:39 GMT -12.152206 -42.380707 37,975 206 465 0
2019-03-27 02:24:28 GMT -12.130875 -42.370338 37,975 206 464 0
2019-03-27 02:24:16 GMT -12.109959 -42.360195 37,975 206 464 0
2019-03-27 02:24:08 GMT -12.094411 -42.352631 38,000 206 464 0
2019-03-27 02:23:45 GMT -12.047516 -42.329895 37,975 206 465 0
2019-03-27 02:23:33 GMT -12.026678 -42.319817 38,000 206 464 0
2019-03-27 02:23:11 GMT -11.982513 -42.298450 38,000 206 464 64
2019-03-27 02:23:06 GMT -11.971252 -42.293007 37,975 206 464 0
2019-03-27 02:23:02 GMT -11.963516 -42.289265 37,975 206 463 64
2019-03-27 02:22:14 GMT -11.870076 -42.244167 37,975 206 462 0
2019-03-27 02:22:08 GMT -11.858484 -42.238579 38,000 206 462 0
2019-03-27 02:21:56 GMT -11.838181 -42.228840 38,000 206 462 0
2019-03-27 02:21:50 GMT -11.824173 -42.222069 37,975 206 462 0
2019-03-27 02:21:46 GMT -11.817947 -42.219131 38,000 206 462 0
2019-03-27 02:21:39 GMT -11.802063 -42.211510 37,975 206 462 0
2019-03-27 02:21:35 GMT -11.795685 -42.208412 37,975 206 462 0
2019-03-27 02:21:30 GMT -11.787911 -42.204700 37,975 206 462 0
2019-03-27 02:21:25 GMT -11.760956 -42.191761 38,000 206 462 0
2019-03-27 02:21:17 GMT -11.760956 -42.191761 38,000 206 462 0
2019-03-27 02:21:14 GMT -11.754533 -42.188705 37,975 206 462 0
2019-03-27 02:21:02 GMT -11.733398 -42.178551 38,000 206 462 0
2019-03-27 02:20:53 GMT -11.712891 -42.168701 37,975 206 461 0
2019-03-27 02:20:49 GMT -11.706665 -42.165718 38,000 206 461 0
2019-03-27 02:20:42 GMT -11.692153 -42.158684 38,000 206 462 0
2019-03-27 02:20:35 GMT -11.678979 -42.152325 38,000 206 462 0
2019-03-27 02:20:30 GMT -11.669296 -42.147602 38,000 206 462 0
2019-03-27 02:20:24 GMT -11.658123 -42.142159 38,000 206 462 0
2019-03-27 02:19:59 GMT -11.609024 -42.117603 37,975 207 462 0
2019-03-27 02:19:48 GMT -11.588481 -42.107174 37,975 207 462 0
2019-03-27 02:19:36 GMT -11.567963 -42.096767 38,000 207 462 0
2019-03-27 02:19:31 GMT -11.555057 -42.090214 38,000 207 462 0
2019-03-27 02:19:26 GMT -11.547376 -42.086357 38,000 207 463 0
2019-03-27 02:19:19 GMT -11.533310 -42.079292 38,000 207 462 0
2019-03-27 02:19:16 GMT -11.526194 -42.075806 37,975 206 462 0
2019-03-27 02:19:09 GMT -11.514313 -42.070156 38,000 205 462 0
2019-03-27 02:19:04 GMT -11.505341 -42.066036 37,975 204 462 0
2019-03-27 02:18:54 GMT -11.483688 -42.056564 38,000 204 461 0
2019-03-27 02:18:48 GMT -11.471263 -42.051136 38,000 204 461 0
2019-03-27 02:18:42 GMT -11.463023 -42.047520 38,000 204 461 0
2019-03-27 02:18:37 GMT -11.450226 -42.041931 37,975 204 461 0
2019-03-27 02:18:33 GMT -11.442352 -42.038475 37,975 204 461 0
2019-03-27 02:18:25 GMT -11.427876 -42.032101 38,000 204 461 0
2019-03-27 02:18:22 GMT -11.420521 -42.028919 38,000 204 461 0
2019-03-27 02:18:15 GMT -11.407952 -42.023380 38,000 204 460 0
2019-03-27 02:18:11 GMT -11.399506 -42.019672 38,000 204 460 0
2019-03-27 02:18:05 GMT -11.387143 -42.014225 37,975 204 461 0
2019-03-27 02:17:59 GMT -11.377899 -42.010155 38,000 204 461 0
2019-03-27 02:17:53 GMT -11.366334 -42.005070 38,000 204 460 0
2019-03-27 02:17:48 GMT -11.356705 -42.000874 38,000 204 461 0
2019-03-27 02:17:39 GMT -11.335831 -41.991734 37,975 204 461 0
2019-03-27 02:17:33 GMT -11.324623 -41.986809 37,975 204 462 0
2019-03-27 02:17:28 GMT -11.314847 -41.982517 38,000 204 462 0
2019-03-27 02:17:22 GMT -11.303192 -41.977386 38,000 204 462 0
2019-03-27 02:17:17 GMT -11.293350 -41.973076 37,975 204 462 0
2019-03-27 02:17:05 GMT -11.272110 -41.963749 37,975 204 462 0
2019-03-27 02:16:59 GMT -11.257728 -41.957413 38,000 204 462 0
2019-03-27 02:16:56 GMT -11.250687 -41.954372 38,000 204 462 0
2019-03-27 02:16:50 GMT -11.239838 -41.949589 38,000 204 462 0
2019-03-27 02:16:45 GMT -11.229584 -41.945091 37,975 204 462 0
2019-03-27 02:16:38 GMT -11.218964 -41.940403 37,975 204 461 0
2019-03-27 02:16:34 GMT -11.208522 -41.935875 37,975 204 462 0
2019-03-27 02:16:27 GMT -11.197117 -41.930862 37,975 204 462 0
2019-03-27 02:16:22 GMT -11.187620 -41.926765 38,000 204 462 0
2019-03-27 02:16:18 GMT -11.176346 -41.921841 37,975 204 463 0
2019-03-27 02:16:12 GMT -11.166458 -41.917530 37,975 204 463 0
2019-03-27 02:16:06 GMT -11.156011 -41.912987 37,975 204 463 0
2019-03-27 02:16:02 GMT -11.144513 -41.908024 38,000 204 463 0
2019-03-27 02:15:55 GMT -11.134048 -41.903465 38,000 204 464 0
2019-03-27 02:15:51 GMT -11.123337 -41.898827 38,000 204 464 0
2019-03-27 02:15:46 GMT -11.113815 -41.894707 37,975 204 464 0
2019-03-27 02:15:40 GMT -11.102523 -41.889858 38,000 204 464 0
2019-03-27 02:15:35 GMT -11.091980 -41.885330 38,000 203 464 0
2019-03-27 02:15:28 GMT -11.080444 -41.880405 38,000 203 464 0
2019-03-27 02:15:24 GMT -11.070831 -41.876286 38,000 203 464 0
2019-03-27 02:15:19 GMT -11.059229 -41.871353 38,000 203 464 0
2019-03-27 02:15:14 GMT -11.049911 -41.867382 37,975 203 463 0
2019-03-27 02:15:08 GMT -11.037964 -41.862312 38,000 203 463 0
2019-03-27 02:15:03 GMT -11.028411 -41.858246 38,000 203 463 0
2019-03-27 02:14:57 GMT -11.016632 -41.853317 37,975 203 463 0
2019-03-27 02:14:52 GMT -11.007602 -41.849480 38,000 203 463 0
2019-03-27 02:14:49 GMT -11.002258 -41.847206 37,975 203 463 0
2019-03-27 02:14:45 GMT -10.994940 -41.844082 37,975 203 463 0
2019-03-27 02:14:42 GMT -10.986235 -41.840370 37,975 204 462 0
2019-03-27 02:14:35 GMT -10.973992 -41.835022 37,975 204 463 0
2019-03-27 02:14:31 GMT -10.963943 -41.830540 37,975 205 463 0
2019-03-27 02:14:25 GMT -10.952545 -41.825142 38,000 206 463 0
2019-03-27 02:14:17 GMT -10.937897 -41.818035 38,000 206 463 0
2019-03-27 02:14:14 GMT -10.931490 -41.814880 38,000 206 463 0
2019-03-27 02:14:09 GMT -10.923343 -41.810928 37,975 206 463 0
2019-03-27 02:14:02 GMT -10.910385 -41.804588 38,000 206 462 0
2019-03-27 02:13:59 GMT -10.902441 -41.800713 38,000 206 462 0
2019-03-27 02:13:54 GMT -10.895225 -41.797195 38,000 206 463 0
2019-03-27 02:13:51 GMT -10.890058 -41.794689 37,975 206 463 0
2019-03-27 02:13:48 GMT -10.881539 -41.790497 37,975 206 463 0
2019-03-27 02:13:42 GMT -10.869156 -41.784428 37,975 206 463 0
2019-03-27 02:13:36 GMT -10.861010 -41.780476 38,000 206 463 0
2019-03-27 02:13:31 GMT -10.848254 -41.774212 38,000 206 462 0
2019-03-27 02:13:27 GMT -10.840527 -41.770454 38,000 206 462 0
2019-03-27 02:13:20 GMT -10.828097 -41.764431 38,000 206 462 0
2019-03-27 02:13:16 GMT -10.807195 -41.754265 37,975 206 462 0
2019-03-27 02:13:09 GMT -10.807195 -41.754265 38,000 206 462 0
2019-03-27 02:13:02 GMT -10.792066 -41.746891 37,975 206 462 0
2019-03-27 02:12:58 GMT -10.786247 -41.744045 38,000 206 462 0
2019-03-27 02:12:51 GMT -10.770950 -41.736588 37,975 206 463 0
2019-03-27 02:12:48 GMT -10.765182 -41.733746 37,975 206 463 0
2019-03-27 02:12:43 GMT -10.756622 -41.729576 37,975 206 462 0
2019-03-27 02:12:40 GMT -10.750634 -41.726650 38,000 206 463 0
2019-03-27 02:12:37 GMT -10.743439 -41.723186 38,000 206 463 0
2019-03-27 02:12:32 GMT -10.736847 -41.719967 37,975 206 463 0
2019-03-27 02:12:29 GMT -10.729477 -41.716366 37,975 206 463 0
2019-03-27 02:12:26 GMT -10.722610 -41.713017 38,000 206 463 0
2019-03-27 02:12:21 GMT -10.715515 -41.709545 37,975 206 464 0
2019-03-27 02:12:17 GMT -10.705032 -41.704479 38,000 206 463 0
2019-03-27 02:12:12 GMT -10.695328 -41.699745 38,000 206 463 0
2019-03-27 02:12:08 GMT -10.686813 -41.695580 37,975 206 464 0
2019-03-27 02:12:05 GMT -10.683506 -41.693981 37,975 206 464 0
2019-03-27 02:12:01 GMT -10.674774 -41.689705 37,975 206 464 0
2019-03-27 02:11:54 GMT -10.660400 -41.682697 38,000 206 464 0
2019-03-27 02:11:50 GMT -10.653809 -41.679478 38,000 206 464 0
2019-03-27 02:11:46 GMT -10.644470 -41.674931 38,000 206 464 0
2019-03-27 02:11:43 GMT -10.639069 -41.672279 37,975 206 464 0
2019-03-27 02:11:40 GMT -10.632477 -41.669060 37,975 206 464 0
2019-03-27 02:11:35 GMT -10.623733 -41.664783 38,000 206 464 0
2019-03-27 02:11:32 GMT -10.617737 -41.661861 38,000 206 464 0
2019-03-27 02:11:29 GMT -10.612421 -41.659290 38,000 206 464 0
2019-03-27 02:11:23 GMT -10.599472 -41.652958 37,975 206 464 0
2019-03-27 02:11:18 GMT -10.591891 -41.649265 38,000 206 464 0
2019-03-27 02:11:13 GMT -10.582162 -41.644543 37,975 206 465 0
2019-03-27 02:11:10 GMT -10.576538 -41.641785 37,975 206 465 0
2019-03-27 02:11:07 GMT -10.570312 -41.638752 37,975 206 465 0
2019-03-27 02:11:00 GMT -10.554929 -41.631245 37,975 206 465 0
2019-03-27 02:10:57 GMT -10.550171 -41.628902 37,975 206 465 0
2019-03-27 02:10:49 GMT -10.533737 -41.620945 37,975 206 465 0
2019-03-27 02:10:46 GMT -10.529068 -41.618671 37,975 206 465 0
2019-03-27 02:10:41 GMT -10.518585 -41.613560 38,000 206 466 0
2019-03-27 02:10:38 GMT -10.512519 -41.610622 38,000 206 465 0
2019-03-27 02:10:34 GMT -10.507864 -41.608356 38,000 206 465 0
2019-03-27 02:10:30 GMT -10.497716 -41.603443 38,000 206 465 0
2019-03-27 02:10:27 GMT -10.491152 -41.600262 37,975 206 465 0
2019-03-27 02:10:23 GMT -10.485240 -41.597420 38,000 206 465 0
2019-03-27 02:10:17 GMT -10.471436 -41.590687 37,975 206 465 0
2019-03-27 02:10:14 GMT -10.465988 -41.588047 37,975 206 465 0
2019-03-27 02:10:05 GMT -10.450605 -41.580601 37,975 206 465 0
2019-03-27 02:10:02 GMT -10.444367 -41.577568 37,975 206 466 0
2019-03-27 02:09:58 GMT -10.430008 -41.570591 38,000 206 466 0
2019-03-27 02:09:52 GMT -10.424332 -41.567799 38,000 206 466 0
2019-03-27 02:09:47 GMT -10.413177 -41.562366 37,975 206 465 0
2019-03-27 02:09:42 GMT -10.403168 -41.557491 37,975 206 465 0
2019-03-27 02:09:36 GMT -10.392792 -41.552433 38,000 206 465 0
2019-03-27 02:09:31 GMT -10.382127 -41.547215 38,000 206 464 0
2019-03-27 02:09:23 GMT -10.366425 -41.539539 37,975 206 464 0
2019-03-27 02:09:20 GMT -10.362342 -41.537506 37,975 206 464 0
2019-03-27 02:09:13 GMT -10.350331 -41.531635 37,975 206 463 0
2019-03-27 02:09:10 GMT -10.341393 -41.527229 37,975 206 463 0
2019-03-27 02:09:03 GMT -10.329802 -41.521500 37,975 206 463 0
2019-03-27 02:08:59 GMT -10.320282 -41.516869 37,975 207 464 0
2019-03-27 02:08:53 GMT -10.308155 -41.510845 37,975 207 464 0
2019-03-27 02:08:50 GMT -10.302521 -41.508072 37,975 207 464 0
2019-03-27 02:08:42 GMT -10.287048 -41.500435 37,975 207 464 0
2019-03-27 02:08:39 GMT -10.281647 -41.497784 37,975 207 463 0
2019-03-27 02:08:36 GMT -10.278580 -41.496246 37,975 207 463 0
2019-03-27 02:08:31 GMT -10.265979 -41.490009 37,975 207 462 0
2019-03-27 02:08:27 GMT -10.258438 -41.486328 38,000 206 463 0
2019-03-27 02:08:19 GMT -10.245868 -41.480209 37,975 206 462 0
2019-03-27 02:08:15 GMT -10.237349 -41.476135 38,000 206 462 0
2019-03-27 02:08:08 GMT -10.224501 -41.470074 38,000 205 462 0
2019-03-27 02:08:05 GMT -10.216873 -41.466591 38,000 205 461 0
2019-03-27 02:07:59 GMT -10.203459 -41.460365 38,000 205 461 0
2019-03-27 02:07:56 GMT -10.198711 -41.458187 37,975 205 461 0
2019-03-27 02:07:53 GMT -10.194475 -41.456245 37,975 205 461 0
2019-03-27 02:07:48 GMT -10.181999 -41.450470 38,000 205 461 0
2019-03-27 02:07:45 GMT -10.177139 -41.448250 38,000 205 461 0
2019-03-27 02:07:36 GMT -10.160019 -41.440384 37,975 205 460 0
2019-03-27 02:07:32 GMT -10.152237 -41.436798 37,975 205 460 0
2019-03-27 02:07:29 GMT -10.145599 -41.433727 37,975 205 460 0
2019-03-27 02:07:26 GMT -10.140106 -41.431213 38,000 205 460 0
2019-03-27 02:07:23 GMT -10.133514 -41.428185 38,000 205 460 0
2019-03-27 02:07:18 GMT -10.123994 -41.423809 37,975 205 460 0
2019-03-27 02:07:12 GMT -10.107655 -41.416279 37,975 205 460 0
2019-03-27 02:07:05 GMT -10.098344 -41.411968 38,000 205 460 0
2019-03-27 02:07:02 GMT -10.093506 -41.409706 37,975 205 460 0
2019-03-27 02:06:59 GMT -10.088568 -41.407471 38,000 205 460 0
2019-03-27 02:06:54 GMT -10.077349 -41.402309 38,000 205 460 0
2019-03-27 02:06:51 GMT -10.066223 -41.397182 38,000 205 460 0
2019-03-27 02:06:43 GMT -10.056308 -41.392651 38,000 205 460 0
2019-03-27 02:06:40 GMT -10.050488 -41.389950 38,000 205 460 0
2019-03-27 02:06:37 GMT -10.044846 -41.387360 38,000 205 460 0
2019-03-27 02:06:32 GMT -10.035359 -41.382988 38,000 205 460 0
2019-03-27 02:06:28 GMT -10.029447 -41.380287 38,000 205 460 0
2019-03-27 02:06:24 GMT -10.021440 -41.376595 37,975 205 460 0
2019-03-27 02:06:21 GMT -10.014496 -41.373394 38,000 205 460 0
2019-03-27 02:06:17 GMT -10.008270 -41.370556 38,000 205 460 0
2019-03-27 02:06:14 GMT -10.000724 -41.367031 38,000 205 460 0
2019-03-27 02:06:08 GMT -9.987671 -41.361057 38,000 205 460 0
2019-03-27 02:06:03 GMT -9.978193 -41.356659 38,000 205 460 0
2019-03-27 02:06:00 GMT -9.972281 -41.353912 38,000 205 460 0
2019-03-27 02:05:57 GMT -9.966660 -41.351330 38,000 205 460 0
2019-03-27 02:05:49 GMT -9.951332 -41.344254 37,975 205 460 0
2019-03-27 02:05:46 GMT -9.945694 -41.341694 37,975 205 460 0
2019-03-27 02:05:41 GMT -9.937546 -41.337921 37,975 205 461 0
2019-03-27 02:05:38 GMT -9.930130 -41.334522 37,975 205 461 0
2019-03-27 02:05:34 GMT -9.924472 -41.331940 38,000 205 461 0
2019-03-27 02:05:30 GMT -9.916901 -41.328472 37,975 205 462 0
2019-03-27 02:05:27 GMT -9.908504 -41.324600 37,975 205 461 0
2019-03-27 02:05:24 GMT -9.903709 -41.322422 37,975 205 461 0
2019-03-27 02:05:20 GMT -9.896028 -41.318871 37,975 205 461 0
2019-03-27 02:05:14 GMT -9.882935 -41.312878 37,975 205 462 0
2019-03-27 02:05:10 GMT -9.874374 -41.308922 38,000 205 462 0
2019-03-27 02:05:05 GMT -9.867119 -41.305611 38,000 205 462 0
2019-03-27 02:05:02 GMT -9.861099 -41.302822 37,975 205 462 0
2019-03-27 02:04:58 GMT -9.852127 -41.298725 37,975 205 462 0
2019-03-27 02:04:55 GMT -9.845147 -41.295525 37,975 205 463 0
2019-03-27 02:04:52 GMT -9.841507 -41.293839 37,975 205 463 0
2019-03-27 02:04:48 GMT -9.831711 -41.289368 37,975 205 463 0
2019-03-27 02:04:42 GMT -9.820567 -41.284252 37,975 205 463 0
2019-03-27 02:04:37 GMT -9.810562 -41.279636 38,000 205 463 0
2019-03-27 02:04:31 GMT -9.798843 -41.274239 37,975 205 464 0
2019-03-27 02:04:25 GMT -9.787262 -41.268932 37,975 205 464 0
2019-03-27 02:04:22 GMT -9.781998 -41.266510 37,975 205 464 0
2019-03-27 02:04:19 GMT -9.778251 -41.264790 37,975 205 464 0
2019-03-27 02:04:14 GMT -9.765518 -41.258923 38,000 205 464 0
2019-03-27 02:04:09 GMT -9.755534 -41.254326 38,000 205 464 0
2019-03-27 02:04:04 GMT -9.745926 -41.249889 38,000 205 464 0
2019-03-27 02:03:59 GMT -9.736084 -41.245377 38,000 205 464 0
2019-03-27 02:03:53 GMT -9.724530 -41.240070 38,000 205 464 0
2019-03-27 02:03:50 GMT -9.718460 -41.237274 37,975 205 464 0
2019-03-27 02:03:47 GMT -9.714335 -41.235382 38,000 205 464 0
2019-03-27 02:03:42 GMT -9.702976 -41.230175 38,000 205 463 0
2019-03-27 02:03:37 GMT -9.694153 -41.226105 38,000 205 463 0
2019-03-27 02:03:31 GMT -9.681050 -41.220089 38,000 205 463 0
2019-03-27 02:03:27 GMT -9.673462 -41.216606 37,975 205 463 0
2019-03-27 02:03:22 GMT -9.663620 -41.212090 37,975 205 463 0
2019-03-27 02:03:18 GMT -9.656750 -41.208958 38,000 205 463 0
2019-03-27 02:03:15 GMT -9.651855 -41.206692 38,000 205 463 0
2019-03-27 02:03:09 GMT -9.637943 -41.200340 38,000 205 463 0
2019-03-27 02:03:05 GMT -9.631851 -41.197567 38,000 205 463 0
2019-03-27 02:02:58 GMT -9.616063 -41.190300 38,000 205 463 0
2019-03-27 02:02:55 GMT -9.610886 -41.187931 38,000 205 463 0
2019-03-27 02:02:47 GMT -9.594882 -41.180546 38,000 205 463 0
2019-03-27 02:02:43 GMT -9.589966 -41.178341 38,000 205 462 0
2019-03-27 02:02:39 GMT -9.579437 -41.173454 38,000 205 464 0
2019-03-27 02:02:34 GMT -9.569837 -41.169041 38,000 205 464 0
2019-03-27 02:02:31 GMT -9.566718 -41.167618 38,000 205 464 0
2019-03-27 02:02:28 GMT -9.558152 -41.163689 38,000 205 463 0
2019-03-27 02:02:25 GMT -9.551880 -41.160789 38,000 205 463 0
2019-03-27 02:02:22 GMT -9.546328 -41.158241 38,000 205 463 0
2019-03-27 02:02:17 GMT -9.536552 -41.153790 38,000 205 463 0
2019-03-27 02:02:14 GMT -9.529895 -41.150715 37,975 205 463 0
2019-03-27 02:02:11 GMT -9.525009 -41.148502 38,000 205 463 0
2019-03-27 02:02:06 GMT -9.515579 -41.144173 38,000 205 463 0
2019-03-27 02:02:01 GMT -9.504593 -41.139145 38,000 205 463 0
2019-03-27 02:01:54 GMT -9.493584 -41.134090 38,000 205 463 0
2019-03-27 02:01:50 GMT -9.484041 -41.129734 38,000 205 463 0
2019-03-27 02:01:44 GMT -9.472870 -41.124619 37,975 205 463 0
2019-03-27 02:01:39 GMT -9.463074 -41.120152 37,975 205 463 0
2019-03-27 02:01:29 GMT -9.432740 -41.106247 37,975 205 463 0
2019-03-27 02:01:18 GMT -9.421143 -41.100925 37,975 205 463 0
2019-03-27 02:01:13 GMT -9.411346 -41.096455 37,975 205 463 0
2019-03-27 02:01:07 GMT -9.399994 -41.091240 37,975 205 463 0
2019-03-27 02:01:02 GMT -9.389008 -41.086212 38,000 205 464 0
2019-03-27 02:00:56 GMT -9.379019 -41.081623 38,000 205 464 0
2019-03-27 02:00:50 GMT -9.368225 -41.076672 38,000 205 464 0
2019-03-27 02:00:46 GMT -9.358017 -41.071968 38,000 205 464 0
2019-03-27 02:00:41 GMT -9.348388 -41.067558 38,000 205 464 0
2019-03-27 02:00:35 GMT -9.336411 -41.062054 37,975 205 464 0
2019-03-27 02:00:30 GMT -9.325996 -41.057236 37,975 205 466 0
2019-03-27 02:00:24 GMT -9.314591 -41.052025 37,975 205 465 0
2019-03-27 02:00:18 GMT -9.305328 -41.047764 37,975 205 465 0
2019-03-27 02:00:13 GMT -9.293930 -41.042549 38,000 205 466 0
2019-03-27 02:00:09 GMT -9.284042 -41.038033 38,000 205 466 0
2019-03-27 02:00:01 GMT -9.268876 -41.031094 38,000 205 466 0
2019-03-27 01:59:57 GMT -9.264313 -41.029049 38,000 205 466 0
2019-03-27 01:59:50 GMT -9.245973 -41.020630 37,975 205 466 0
2019-03-27 01:59:46 GMT -9.242807 -41.019161 37,975 205 467 0
2019-03-27 01:59:39 GMT -9.226235 -41.011585 37,975 205 467 0
2019-03-27 01:59:36 GMT -9.221533 -41.009407 37,975 205 467 0
2019-03-27 01:59:28 GMT -9.204025 -41.001396 37,975 205 467 0
2019-03-27 01:59:25 GMT -9.199905 -40.999489 37,975 205 467 0
2019-03-27 01:59:17 GMT -9.182848 -40.991695 37,975 205 467 0
2019-03-27 01:59:14 GMT -9.177933 -40.989433 37,975 205 467 0
2019-03-27 01:59:09 GMT -9.166694 -40.984261 37,975 205 467 0
2019-03-27 01:59:03 GMT -9.156189 -40.979469 38,000 205 468 0
2019-03-27 01:58:58 GMT -9.144791 -40.974255 38,000 205 468 0
2019-03-27 01:58:55 GMT -9.139023 -40.971603 38,000 205 468 0
2019-03-27 01:58:52 GMT -9.133875 -40.969250 38,000 205 468 0
2019-03-27 01:58:46 GMT -9.122589 -40.964108 38,000 205 468 0
2019-03-27 01:58:43 GMT -9.116045 -40.961105 38,000 205 468 0
2019-03-27 01:58:36 GMT -9.101990 -40.954704 37,975 205 469 0
2019-03-27 01:58:32 GMT -9.093095 -40.950592 37,975 205 469 0
2019-03-27 01:58:24 GMT -9.076057 -40.942825 37,975 205 469 0
2019-03-27 01:58:20 GMT -9.071091 -40.940552 37,975 205 469 0
2019-03-27 01:58:14 GMT -9.058823 -40.934917 37,975 205 469 0
2019-03-27 01:58:09 GMT -9.049301 -40.930542 37,975 205 469 0
2019-03-27 01:58:03 GMT -9.037558 -40.925159 37,975 205 470 0
2019-03-27 01:57:59 GMT -9.027832 -40.920719 38,000 205 470 0
2019-03-27 01:57:53 GMT -9.015930 -40.915276 37,975 205 470 0
2019-03-27 01:57:48 GMT -9.007187 -40.911270 37,975 205 470 0
2019-03-27 01:57:42 GMT -8.993892 -40.905178 38,000 205 470 0
2019-03-27 01:57:39 GMT -8.988922 -40.902889 38,000 205 470 0
2019-03-27 01:57:36 GMT -8.985559 -40.901390 37,975 205 470 0
2019-03-27 01:57:31 GMT -8.972260 -40.895302 38,000 205 469 0
2019-03-27 01:57:26 GMT -8.963058 -40.891113 38,000 205 469 0
2019-03-27 01:57:20 GMT -8.951390 -40.885761 37,975 205 469 0
2019-03-27 01:57:17 GMT -8.946899 -40.883713 38,000 205 469 0
2019-03-27 01:57:13 GMT -8.939799 -40.880459 38,000 205 469 0
2019-03-27 01:57:10 GMT -8.930209 -40.876102 38,000 205 469 0
2019-03-27 01:57:07 GMT -8.925430 -40.873936 37,975 205 469 0
2019-03-27 01:57:04 GMT -8.918478 -40.870750 37,975 205 469 0
2019-03-27 01:56:59 GMT -8.904007 -40.864113 38,000 205 469 0
2019-03-27 01:56:55 GMT -8.904007 -40.864113 38,000 205 469 0
2019-03-27 01:56:52 GMT -8.897855 -40.861328 37,975 204 469 0
2019-03-27 01:56:48 GMT -8.886776 -40.856308 38,000 205 468 0
2019-03-27 01:56:45 GMT -8.882812 -40.854523 37,975 204 469 0
2019-03-27 01:56:41 GMT -8.876175 -40.851543 37,975 204 468 0
2019-03-27 01:56:35 GMT -8.861389 -40.845119 37,975 204 468 0
2019-03-27 01:56:31 GMT -8.853790 -40.841908 38,000 203 468 0
2019-03-27 01:56:26 GMT -8.843948 -40.837746 38,000 203 468 0
2019-03-27 01:56:23 GMT -8.840149 -40.836182 37,975 203 468 0
2019-03-27 01:56:20 GMT -8.831268 -40.832550 37,975 202 467 0
2019-03-27 01:56:16 GMT -8.818771 -40.827522 37,975 202 468 0
2019-03-27 01:56:09 GMT -8.806380 -40.822735 38,000 201 468 0
2019-03-27 01:56:03 GMT -8.797256 -40.819237 38,000 201 468 0
2019-03-27 01:55:56 GMT -8.784919 -40.814587 38,000 201 468 0
2019-03-27 01:55:52 GMT -8.774631 -40.810753 38,000 201 468 0
2019-03-27 01:55:49 GMT -8.771000 -40.809380 38,000 201 467 0
2019-03-27 01:55:42 GMT -8.754089 -40.803036 38,000 201 467 0
2019-03-27 01:55:39 GMT -8.750061 -40.801548 38,000 201 467 0
2019-03-27 01:55:33 GMT -8.735001 -40.795868 37,975 201 466 0
2019-03-27 01:55:29 GMT -8.723282 -40.791492 37,975 201 466 0
2019-03-27 01:55:19 GMT -8.708221 -40.785812 37,975 201 466 0
2019-03-27 01:55:15 GMT -8.700119 -40.782787 37,975 201 466 0
2019-03-27 01:55:09 GMT -8.686554 -40.777653 37,975 201 466 0
2019-03-27 01:55:04 GMT -8.675149 -40.773388 38,000 201 466 0
2019-03-27 01:54:58 GMT -8.664675 -40.769459 38,000 201 466 0
2019-03-27 01:54:49 GMT -8.646333 -40.762592 38,000 201 466 0
2019-03-27 01:54:46 GMT -8.641296 -40.760719 38,000 201 466 0
2019-03-27 01:54:42 GMT -8.632370 -40.757370 37,975 201 466 0
2019-03-27 01:54:39 GMT -8.625664 -40.754826 37,975 201 466 0
2019-03-27 01:54:36 GMT -8.619566 -40.752552 37,975 201 467 0
2019-03-27 01:54:31 GMT -8.610031 -40.748989 38,000 201 467 0
2019-03-27 01:54:27 GMT -8.602155 -40.746017 38,000 201 467 0
2019-03-27 01:54:22 GMT -8.592333 -40.742325 37,975 201 467 0
2019-03-27 01:54:19 GMT -8.587646 -40.740608 38,000 201 467 0
2019-03-27 01:54:16 GMT -8.580322 -40.737816 38,000 201 467 0
2019-03-27 01:54:10 GMT -8.567101 -40.732853 37,975 201 467 0
2019-03-27 01:54:05 GMT -8.558395 -40.729576 38,000 201 467 0
2019-03-27 01:54:02 GMT -8.552484 -40.727360 37,975 201 468 0
2019-03-27 01:53:59 GMT -8.544113 -40.724224 37,975 201 468 0
2019-03-27 01:53:56 GMT -8.537888 -40.721848 38,000 201 467 0
2019-03-27 01:53:48 GMT -8.522141 -40.715939 38,000 201 467 0
2019-03-27 01:53:44 GMT -8.514404 -40.713051 38,000 201 468 0
2019-03-27 01:53:37 GMT -8.499973 -40.707615 38,000 201 468 0
2019-03-27 01:53:33 GMT -8.492020 -40.704624 38,000 201 468 0
2019-03-27 01:53:28 GMT -8.484844 -40.701931 38,000 201 468 0
2019-03-27 01:53:25 GMT -8.478792 -40.699657 37,975 201 468 0
2019-03-27 01:53:22 GMT -8.469435 -40.696152 38,000 201 468 0
2019-03-27 01:53:16 GMT -8.457001 -40.691498 37,975 201 468 0
2019-03-27 01:53:11 GMT -8.447835 -40.688057 37,975 201 467 0
2019-03-27 01:53:04 GMT -8.434800 -40.683178 37,975 201 467 0
2019-03-27 01:53:00 GMT -8.426281 -40.680004 37,975 201 467 0
2019-03-27 01:52:55 GMT -8.415015 -40.675793 37,975 201 467 0
2019-03-27 01:52:50 GMT -8.404083 -40.671665 37,975 201 467 0
2019-03-27 01:52:44 GMT -8.391907 -40.667103 37,975 201 467 0
2019-03-27 01:52:39 GMT -8.381744 -40.663288 37,975 201 467 0
2019-03-27 01:52:33 GMT -8.368091 -40.658176 37,975 201 467 0
2019-03-27 01:52:28 GMT -8.360409 -40.655285 37,975 201 467 0
2019-03-27 01:52:23 GMT -8.350845 -40.651695 37,975 201 467 0
2019-03-27 01:52:20 GMT -8.345947 -40.649879 37,975 201 467 0
2019-03-27 01:52:17 GMT -8.338211 -40.646946 38,000 201 467 0
2019-03-27 01:52:13 GMT -8.328873 -40.643456 37,975 201 467 0
2019-03-27 01:52:08 GMT -8.318512 -40.639565 37,975 201 467 0
2019-03-27 01:52:02 GMT -8.307945 -40.635586 38,000 201 467 0
2019-03-27 01:51:57 GMT -8.297653 -40.631725 38,000 201 467 0
2019-03-27 01:51:54 GMT -8.293560 -40.630234 38,000 201 467 0
2019-03-27 01:51:49 GMT -8.279083 -40.624790 37,975 201 467 0
2019-03-27 01:51:45 GMT -8.272146 -40.622231 37,975 201 466 0
2019-03-27 01:51:40 GMT -8.264046 -40.619202 38,000 201 466 0
2019-03-27 01:51:37 GMT -8.256738 -40.616455 37,975 201 466 0
2019-03-27 01:51:34 GMT -8.250220 -40.613995 37,975 201 466 0
2019-03-27 01:51:29 GMT -8.240072 -40.610203 37,975 201 466 0
2019-03-27 01:51:23 GMT -8.227707 -40.605560 38,000 201 466 0
2019-03-27 01:51:20 GMT -8.221619 -40.603279 38,000 201 466 0
2019-03-27 01:51:16 GMT -8.211303 -40.599407 38,000 201 466 0
2019-03-27 01:51:12 GMT -8.206042 -40.597466 38,000 201 465 0
2019-03-27 01:51:07 GMT -8.194885 -40.593319 37,975 201 465 0
2019-03-27 01:51:02 GMT -8.188213 -40.590790 38,000 201 465 0
2019-03-27 01:50:59 GMT -8.178680 -40.587269 38,000 201 465 0
2019-03-27 01:50:56 GMT -8.172711 -40.585011 38,000 201 465 0
2019-03-27 01:50:51 GMT -8.162888 -40.581356 38,000 201 465 0
2019-03-27 01:50:43 GMT -8.145493 -40.574837 37,975 201 465 0
2019-03-27 01:50:40 GMT -8.140450 -40.572937 37,975 201 465 0
2019-03-27 01:50:34 GMT -8.128098 -40.568321 37,975 201 465 0
2019-03-27 01:50:29 GMT -8.118347 -40.564690 37,975 201 465 0
2019-03-27 01:50:21 GMT -8.102554 -40.558777 37,975 201 466 0
2019-03-27 01:50:18 GMT -8.096466 -40.556496 38,000 201 466 0
2019-03-27 01:50:12 GMT -8.083511 -40.551609 37,975 201 466 0
2019-03-27 01:50:09 GMT -8.078247 -40.549652 38,000 201 466 0
2019-03-27 01:49:59 GMT -8.057727 -40.541965 38,000 201 466 0
2019-03-27 01:49:56 GMT -8.052885 -40.540165 38,000 201 466 0
2019-03-27 01:49:48 GMT -8.035847 -40.533772 38,000 201 466 0
2019-03-27 01:49:44 GMT -8.028539 -40.531029 38,000 201 466 0
2019-03-27 01:49:37 GMT -8.013336 -40.525307 37,975 201 466 0
2019-03-27 01:49:33 GMT -8.005188 -40.522282 38,000 201 466 0
2019-03-27 01:49:27 GMT -7.994136 -40.518101 37,975 201 466 0
2019-03-27 01:49:24 GMT -7.986969 -40.515438 37,975 201 466 0
2019-03-27 01:49:21 GMT -7.982895 -40.513901 37,975 201 466 0
2019-03-27 01:49:16 GMT -7.969894 -40.509060 37,975 201 466 0
2019-03-27 01:49:12 GMT -7.964017 -40.506828 37,975 201 467 0
2019-03-27 01:49:05 GMT -7.947968 -40.500820 38,000 201 467 0
2019-03-27 01:49:02 GMT -7.941467 -40.498398 37,975 201 467 0
2019-03-27 01:48:54 GMT -7.926217 -40.492668 38,000 201 467 0
2019-03-27 01:48:50 GMT -7.920319 -40.490486 37,975 201 466 0
2019-03-27 01:48:44 GMT -7.904892 -40.484711 38,000 201 466 0
2019-03-27 01:48:41 GMT -7.899030 -40.482536 38,000 201 466 0
2019-03-27 01:48:33 GMT -7.882411 -40.476334 38,000 201 464 0
2019-03-27 01:48:30 GMT -7.877747 -40.474609 38,000 201 464 64
2019-03-27 01:48:22 GMT -7.860159 -40.468094 37,975 201 464 0
2019-03-27 01:48:19 GMT -7.854899 -40.466152 37,975 201 464 0
2019-03-27 01:48:11 GMT -7.837907 -40.459759 38,000 201 464 0
2019-03-27 01:48:07 GMT -7.832840 -40.457897 37,975 201 464 0
2019-03-27 01:48:02 GMT -7.820916 -40.453411 37,975 201 465 0
2019-03-27 01:47:59 GMT -7.814026 -40.450809 37,975 201 465 0
2019-03-27 01:47:50 GMT -7.795405 -40.443848 37,975 201 466 -64
2019-03-27 01:47:47 GMT -7.789353 -40.441574 37,975 201 466 -64
2019-03-27 01:47:39 GMT -7.773898 -40.435795 38,000 201 466 -64
2019-03-27 01:47:36 GMT -7.768021 -40.433598 38,000 201 466 -64
2019-03-27 01:47:28 GMT -7.751816 -40.427502 37,975 201 467 -64
2019-03-27 01:47:25 GMT -7.745641 -40.425190 37,975 201 467 64
2019-03-27 01:47:16 GMT -7.728607 -40.418888 38,000 201 467 -64
2019-03-27 01:47:13 GMT -7.723528 -40.416996 38,000 201 467 -64
2019-03-27 01:47:07 GMT -7.711487 -40.412510 37,975 201 467 0
2019-03-27 01:47:03 GMT -7.701736 -40.408833 38,000 201 467 192
2019-03-27 01:46:58 GMT -7.689606 -40.404316 37,975 201 468 0
2019-03-27 01:46:55 GMT -7.684891 -40.402550 37,975 201 468 0
2019-03-27 01:46:52 GMT -7.679117 -40.400421 38,000 201 468 0
2019-03-27 01:46:48 GMT -7.670552 -40.397247 37,975 201 469 -64
2019-03-27 01:46:45 GMT -7.664246 -40.394867 37,975 201 469 0
2019-03-27 01:46:42 GMT -7.657700 -40.392445 37,975 201 469 0
2019-03-27 01:46:36 GMT -7.646857 -40.388348 38,000 201 469 0
2019-03-27 01:46:31 GMT -7.632565 -40.382996 38,000 201 468 0
2019-03-27 01:46:23 GMT -7.620575 -40.378529 38,000 201 468 0
2019-03-27 01:46:18 GMT -7.610593 -40.374802 37,975 201 468 0
2019-03-27 01:46:13 GMT -7.597977 -40.370068 37,975 201 467 0
2019-03-27 01:46:08 GMT -7.587410 -40.366138 38,000 201 467 0
2019-03-27 01:46:02 GMT -7.575806 -40.361813 37,975 201 467 0
2019-03-27 01:45:59 GMT -7.569487 -40.359459 38,000 201 467 0
2019-03-27 01:45:54 GMT -7.560130 -40.355957 37,975 201 467 0
2019-03-27 01:45:51 GMT -7.554451 -40.353825 38,000 201 467 0
2019-03-27 01:45:46 GMT -7.543464 -40.349751 38,000 201 467 0
2019-03-27 01:45:41 GMT -7.534698 -40.346500 37,975 201 468 0
2019-03-27 01:45:37 GMT -7.520462 -40.341145 37,975 201 468 0
2019-03-27 01:45:29 GMT -7.510459 -40.337440 37,975 201 468 0
2019-03-27 01:45:26 GMT -7.503057 -40.334694 38,000 201 468 0
2019-03-27 01:45:23 GMT -7.496586 -40.332279 37,975 201 468 0
2019-03-27 01:45:19 GMT -7.488440 -40.329201 37,975 201 468 0
2019-03-27 01:45:15 GMT -7.481131 -40.326454 38,000 201 469 0
2019-03-27 01:45:11 GMT -7.472938 -40.323421 38,000 201 469 0
2019-03-27 01:45:08 GMT -7.466420 -40.320961 37,975 201 469 0
2019-03-27 01:45:02 GMT -7.453339 -40.316082 38,000 201 469 0
2019-03-27 01:44:57 GMT -7.444656 -40.312840 38,000 201 469 0
2019-03-27 01:44:52 GMT -7.436829 -40.309956 38,000 201 469 0
2019-03-27 01:44:48 GMT -7.428223 -40.306744 38,000 201 469 0
2019-03-27 01:44:45 GMT -7.421637 -40.304291 37,975 201 469 0
2019-03-27 01:44:42 GMT -7.414352 -40.301575 37,975 201 468 0
2019-03-27 01:44:39 GMT -7.407020 -40.298847 37,975 201 468 0
2019-03-27 01:44:36 GMT -7.400689 -40.296528 37,975 201 468 0
2019-03-27 01:44:32 GMT -7.386978 -40.291428 37,975 201 468 0
2019-03-27 01:44:25 GMT -7.378281 -40.288170 38,000 201 469 0
2019-03-27 01:44:21 GMT -7.370523 -40.285255 38,000 201 469 0
2019-03-27 01:44:17 GMT -7.363959 -40.282841 38,000 201 469 0
2019-03-27 01:44:14 GMT -7.356812 -40.280163 38,000 201 469 0
2019-03-27 01:44:10 GMT -7.348038 -40.276875 38,000 201 469 0
2019-03-27 01:44:06 GMT -7.338043 -40.273132 37,975 201 469 0
2019-03-27 01:44:02 GMT -7.334538 -40.271854 37,975 201 469 0
2019-03-27 01:43:59 GMT -7.326553 -40.268848 37,975 201 469 0
2019-03-27 01:43:55 GMT -7.318477 -40.265839 37,975 201 469 0
2019-03-27 01:43:51 GMT -7.312100 -40.263474 37,975 201 469 0
2019-03-27 01:43:45 GMT -7.296551 -40.257648 38,000 201 469 0
2019-03-27 01:43:41 GMT -7.289429 -40.254978 38,000 201 469 0
2019-03-27 01:43:37 GMT -7.281468 -40.252010 38,000 201 469 0
2019-03-27 01:43:34 GMT -7.273499 -40.249065 38,000 201 469 0
2019-03-27 01:43:31 GMT -7.268434 -40.247181 37,975 201 468 0
2019-03-27 01:43:27 GMT -7.259674 -40.243896 37,975 201 468 0
2019-03-27 01:43:23 GMT -7.254561 -40.241974 37,975 201 469 0
2019-03-27 01:43:19 GMT -7.246787 -40.239082 37,975 201 469 0
2019-03-27 01:43:16 GMT -7.237802 -40.235722 37,975 201 469 0
2019-03-27 01:43:13 GMT -7.232914 -40.233921 38,000 201 469 0
2019-03-27 01:43:10 GMT -7.225140 -40.231033 38,000 201 469 0
2019-03-27 01:43:03 GMT -7.211060 -40.225742 38,000 201 469 0
2019-03-27 01:42:59 GMT -7.202655 -40.222652 38,000 201 469 0
2019-03-27 01:42:53 GMT -7.193298 -40.219147 37,975 201 469 0
2019-03-27 01:42:50 GMT -7.185524 -40.216259 38,000 201 469 0
2019-03-27 01:42:47 GMT -7.179379 -40.213985 38,000 201 469 0
2019-03-27 01:42:43 GMT -7.171417 -40.211033 37,975 201 470 0
2019-03-27 01:42:40 GMT -7.167089 -40.209393 37,975 201 470 0
2019-03-27 01:42:36 GMT -7.158737 -40.206284 37,975 201 470 0
2019-03-27 01:42:33 GMT -7.144363 -40.200977 37,975 201 470 0
2019-03-27 01:42:25 GMT -7.134018 -40.197113 37,975 201 470 0
2019-03-27 01:42:20 GMT -7.122446 -40.192818 37,975 201 471 0
2019-03-27 01:42:15 GMT -7.113834 -40.189598 37,975 201 471 0
2019-03-27 01:42:11 GMT -7.104630 -40.186172 38,000 201 471 0
2019-03-27 01:42:03 GMT -7.091492 -40.181286 38,000 201 471 0
2019-03-27 01:41:59 GMT -7.080002 -40.177002 38,000 201 471 0
2019-03-27 01:41:53 GMT -7.067933 -40.172455 38,000 201 471 0
2019-03-27 01:41:48 GMT -7.057480 -40.168575 38,000 201 470 0
2019-03-27 01:41:42 GMT -7.047031 -40.164688 38,000 201 470 0
2019-03-27 01:41:36 GMT -7.034958 -40.160198 38,000 201 470 0
2019-03-27 01:41:32 GMT -7.026548 -40.157066 38,000 201 470 0
2019-03-27 01:41:27 GMT -7.013467 -40.152187 38,000 201 470 0
2019-03-27 01:41:22 GMT -7.004063 -40.148685 38,000 201 470 0
2019-03-27 01:41:16 GMT -6.991774 -40.144089 37,975 201 469 0
2019-03-27 01:41:05 GMT -6.970918 -40.136326 38,000 201 469 0
2019-03-27 01:41:00 GMT -6.959885 -40.132202 37,975 201 469 0
2019-03-27 01:40:54 GMT -6.947642 -40.127659 38,000 201 469 0
2019-03-27 01:40:49 GMT -6.937592 -40.123886 37,975 201 469 0
2019-03-27 01:40:44 GMT -6.927206 -40.120033 37,975 201 469 0
2019-03-27 01:40:38 GMT -6.917633 -40.116436 38,000 201 469 0
2019-03-27 01:40:32 GMT -6.905140 -40.111794 38,000 201 469 0
2019-03-27 01:40:29 GMT -6.895364 -40.108196 38,000 201 468 0
2019-03-27 01:40:22 GMT -6.883540 -40.103790 38,000 201 468 0
2019-03-27 01:40:17 GMT -6.873550 -40.100098 38,000 201 468 0
2019-03-27 01:40:12 GMT -6.860729 -40.095314 38,000 201 467 0
2019-03-27 01:40:07 GMT -6.853226 -40.092510 37,975 201 467 0
2019-03-27 01:40:00 GMT -6.838165 -40.086922 38,000 201 466 0
2019-03-27 01:39:54 GMT -6.827631 -40.083050 38,000 201 466 0
2019-03-27 01:39:50 GMT -6.818041 -40.079453 38,000 201 467 0
2019-03-27 01:39:46 GMT -6.808311 -40.075851 37,975 201 467 0
2019-03-27 01:39:40 GMT -6.796326 -40.071377 37,975 201 466 0
2019-03-27 01:39:34 GMT -6.787399 -40.068069 37,975 201 466 0
2019-03-27 01:39:29 GMT -6.773770 -40.063019 37,975 201 466 0
2019-03-27 01:39:25 GMT -6.765701 -40.060017 37,975 201 466 0
2019-03-27 01:39:18 GMT -6.751465 -40.054710 38,000 201 466 0
2019-03-27 01:39:14 GMT -6.743790 -40.051842 38,000 201 465 0
2019-03-27 01:39:06 GMT -6.730010 -40.046730 38,000 201 465 0
2019-03-27 01:39:02 GMT -6.722122 -40.043770 38,000 201 465 0
2019-03-27 01:38:57 GMT -6.708969 -40.038868 38,000 201 465 0
2019-03-27 01:38:53 GMT -6.700869 -40.035835 37,975 201 465 0
2019-03-27 01:38:46 GMT -6.686298 -40.030437 38,000 201 464 0
2019-03-27 01:38:41 GMT -6.678617 -40.027596 38,000 201 464 0
2019-03-27 01:38:35 GMT -6.665085 -40.022587 38,000 201 463 0
2019-03-27 01:38:32 GMT -6.658832 -40.020256 38,000 201 463 0
2019-03-27 01:38:24 GMT -6.642306 -40.014099 37,975 201 462 0
2019-03-27 01:38:19 GMT -6.632204 -40.010361 37,975 201 462 0
2019-03-27 01:38:13 GMT -6.619904 -40.005783 37,975 201 462 0
2019-03-27 01:38:09 GMT -6.614887 -40.003922 38,000 201 462 0
2019-03-27 01:38:03 GMT -6.599990 -39.998379 37,975 201 462 0
2019-03-27 01:37:59 GMT -6.592484 -39.995586 37,975 201 462 0
2019-03-27 01:37:53 GMT -6.579461 -39.990753 37,975 201 462 0
2019-03-27 01:37:49 GMT -6.573212 -39.988464 38,000 201 462 0
2019-03-27 01:37:41 GMT -6.555300 -39.981853 38,000 201 461 0
2019-03-27 01:37:38 GMT -6.551669 -39.980480 38,000 201 461 0
2019-03-27 01:37:30 GMT -6.533340 -39.973709 38,000 201 461 0
2019-03-27 01:37:19 GMT -6.512658 -39.966038 37,975 201 461 0
2019-03-27 01:37:16 GMT -6.507863 -39.964237 38,000 201 461 64
2019-03-27 01:37:10 GMT -6.493973 -39.959091 37,975 201 461 0
2019-03-27 01:37:03 GMT -6.481522 -39.954437 38,000 201 461 -64
2019-03-27 01:36:56 GMT -6.466095 -39.948711 37,975 201 461 0
2019-03-27 01:36:47 GMT -6.447904 -39.941978 37,975 201 461 0
2019-03-27 01:36:44 GMT -6.443665 -39.940376 37,975 201 461 0
2019-03-27 01:36:38 GMT -6.429004 -39.934925 37,975 201 462 0
2019-03-27 01:36:35 GMT -6.423157 -39.932789 37,975 201 462 0
2019-03-27 01:36:26 GMT -6.404755 -39.925945 37,975 201 463 0
2019-03-27 01:36:22 GMT -6.398987 -39.923759 37,975 201 463 0
2019-03-27 01:36:14 GMT -6.381474 -39.917259 38,000 201 462 0
2019-03-27 01:36:11 GMT -6.378021 -39.915985 38,000 201 462 0
2019-03-27 01:36:06 GMT -6.363922 -39.910725 37,975 201 462 0
2019-03-27 01:36:01 GMT -6.356277 -39.907883 37,975 201 464 0
2019-03-27 01:35:52 GMT -6.338104 -39.901134 37,975 201 463 0
2019-03-27 01:35:47 GMT -6.329636 -39.897968 37,975 201 463 0
2019-03-27 01:35:42 GMT -6.315742 -39.892731 38,000 201 464 0
2019-03-27 01:35:38 GMT -6.310684 -39.890846 38,000 201 463 0
2019-03-27 01:35:30 GMT -6.293289 -39.884422 38,000 201 464 0
2019-03-27 01:35:27 GMT -6.288695 -39.882690 38,000 201 464 0
2019-03-27 01:35:20 GMT -6.272324 -39.876461 38,000 202 464 0
2019-03-27 01:35:16 GMT -6.265549 -39.873760 37,975 202 465 0
2019-03-27 01:35:09 GMT -6.250351 -39.867432 37,975 204 465 0
2019-03-27 01:35:06 GMT -6.246565 -39.865833 37,975 204 466 0
2019-03-27 01:35:02 GMT -6.236324 -39.861286 37,975 205 466 0
2019-03-27 01:34:58 GMT -6.229431 -39.858166 38,000 205 466 0
2019-03-27 01:34:55 GMT -6.225311 -39.856258 37,975 206 467 0
2019-03-27 01:34:51 GMT -6.215050 -39.851341 38,000 207 467 0
2019-03-27 01:34:48 GMT -6.208439 -39.848076 38,000 207 468 0
2019-03-27 01:34:37 GMT -6.188748 -39.837845 37,975 209 469 0
2019-03-27 01:34:32 GMT -6.180084 -39.833168 37,975 209 470 0
2019-03-27 01:34:27 GMT -6.168870 -39.827145 37,975 209 470 0
2019-03-27 01:34:22 GMT -6.158768 -39.821697 37,975 209 470 0
2019-03-27 01:34:17 GMT -6.144151 -39.813839 37,975 209 470 0
2019-03-27 01:34:11 GMT -6.137421 -39.810219 37,975 209 470 0
2019-03-27 01:34:06 GMT -6.127396 -39.804863 38,000 209 470 0
2019-03-27 01:34:01 GMT -6.120117 -39.800953 38,000 209 471 0
2019-03-27 01:33:56 GMT -6.109516 -39.795227 38,000 209 470 0
2019-03-27 01:33:49 GMT -6.094711 -39.787266 38,000 209 470 0
2019-03-27 01:33:45 GMT -6.087021 -39.783123 38,000 209 470 0
2019-03-27 01:33:39 GMT -6.078372 -39.778461 38,000 209 470 0
2019-03-27 01:33:35 GMT -6.070496 -39.774231 38,000 209 470 0
2019-03-27 01:33:29 GMT -6.056865 -39.766911 38,000 209 469 0
2019-03-27 01:33:22 GMT -6.044357 -39.760220 38,000 209 469 0
2019-03-27 01:33:18 GMT -6.037811 -39.756588 38,000 209 469 0
2019-03-27 01:33:15 GMT -6.029958 -39.752514 38,000 209 469 0
2019-03-27 01:33:12 GMT -6.023621 -39.749092 38,000 209 470 0
2019-03-27 01:33:06 GMT -6.014596 -39.744225 37,975 209 470 0
2019-03-27 01:33:01 GMT -6.004215 -39.738686 37,975 209 469 0
2019-03-27 01:32:57 GMT -5.986944 -39.729404 38,000 209 470 0
2019-03-27 01:32:52 GMT -5.986944 -39.729404 38,000 209 469 0
2019-03-27 01:32:46 GMT -5.976334 -39.723724 38,000 209 470 0
2019-03-27 01:32:39 GMT -5.954086 -39.711758 37,975 209 470 0
2019-03-27 01:32:35 GMT -5.954086 -39.711758 38,000 209 469 0
2019-03-27 01:32:28 GMT -5.940159 -39.704308 38,000 209 469 0
2019-03-27 01:32:24 GMT -5.932617 -39.700279 37,975 209 470 0
2019-03-27 01:32:19 GMT -5.921814 -39.694489 37,975 209 470 0
2019-03-27 01:32:14 GMT -5.913162 -39.689880 37,975 209 471 0
2019-03-27 01:32:09 GMT -5.902870 -39.684322 37,975 209 471 0
2019-03-27 01:32:06 GMT -5.899612 -39.682571 38,000 209 471 0
2019-03-27 01:32:03 GMT -5.892838 -39.678940 37,975 209 472 0
2019-03-27 01:31:57 GMT -5.882172 -39.673260 38,000 209 472 0
2019-03-27 01:31:53 GMT -5.872787 -39.668232 37,975 209 472 0
2019-03-27 01:31:42 GMT -5.852082 -39.657139 37,975 209 473 0
2019-03-27 01:31:34 GMT -5.834299 -39.647621 37,975 209 473 0
2019-03-27 01:31:31 GMT -5.831406 -39.646072 37,975 209 473 0
2019-03-27 01:31:26 GMT -5.819870 -39.639881 38,000 209 473 0
2019-03-27 01:31:20 GMT -5.811264 -39.635273 38,000 209 473 0
2019-03-27 01:31:14 GMT -5.798174 -39.628204 38,000 209 472 0
2019-03-27 01:31:07 GMT -5.783231 -39.620201 37,975 209 472 0
2019-03-27 01:31:03 GMT -5.775330 -39.615955 38,000 209 472 0
2019-03-27 01:30:56 GMT -5.761352 -39.608414 37,975 209 471 0
2019-03-27 01:30:48 GMT -5.748276 -39.601429 37,975 209 471 0
2019-03-27 01:30:44 GMT -5.740403 -39.597191 37,975 209 471 0
2019-03-27 01:30:37 GMT -5.728226 -39.590675 38,000 209 471 0
2019-03-27 01:30:27 GMT -5.707535 -39.579597 38,000 209 471 0
2019-03-27 01:30:24 GMT -5.699530 -39.575310 37,975 209 471 0
2019-03-27 01:30:16 GMT -5.687613 -39.568916 38,000 209 470 0
2019-03-27 01:30:11 GMT -5.678070 -39.563755 37,975 209 470 0
2019-03-27 01:30:05 GMT -5.665687 -39.557079 37,975 209 470 0
2019-03-27 01:29:54 GMT -5.644692 -39.545856 38,000 209 470 0
2019-03-27 01:29:44 GMT -5.625549 -39.535652 37,975 209 469 0
2019-03-27 01:29:33 GMT -5.604564 -39.524406 38,000 209 469 0
2019-03-27 01:29:22 GMT -5.583664 -39.513027 38,000 209 469 0
2019-03-27 01:29:12 GMT -5.563614 -39.502365 38,000 209 469 0
2019-03-27 01:29:00 GMT -5.539949 -39.489693 38,000 209 468 0
2019-03-27 01:28:47 GMT -5.515509 -39.476669 37,975 209 468 0
2019-03-27 01:28:36 GMT -5.494995 -39.465683 37,975 209 468 0
2019-03-27 01:28:25 GMT -5.473663 -39.454277 37,975 209 468 0
2019-03-27 01:28:14 GMT -5.453201 -39.443245 37,975 209 468 0
2019-03-27 01:28:04 GMT -5.433289 -39.432632 37,975 209 468 0
2019-03-27 01:27:53 GMT -5.412186 -39.421368 37,975 209 469 0
2019-03-27 01:27:43 GMT -5.392239 -39.410660 38,000 209 470 0
2019-03-27 01:27:31 GMT -5.370346 -39.398930 38,000 209 471 0
2019-03-27 01:27:21 GMT -5.350528 -39.388306 38,000 209 470 0
2019-03-27 01:27:10 GMT -5.329579 -39.376942 38,000 209 471 0
2019-03-27 01:26:59 GMT -5.309189 -39.366203 37,975 209 470 0
2019-03-27 01:26:48 GMT -5.286845 -39.354259 38,000 209 470 0
2019-03-27 01:26:38 GMT -5.267853 -39.344135 37,975 209 471 0
2019-03-27 01:26:30 GMT -5.250534 -39.334843 37,975 209 471 0
2019-03-27 01:26:27 GMT -5.247116 -39.333012 37,975 209 471 0
2019-03-27 01:26:24 GMT -5.241130 -39.329823 37,975 209 471 0
2019-03-27 01:26:15 GMT -5.221893 -39.319462 38,000 209 472 0
2019-03-27 01:26:06 GMT -5.206100 -39.310989 38,000 209 472 0
2019-03-27 01:26:03 GMT -5.201235 -39.308468 38,000 209 472 0
2019-03-27 01:25:53 GMT -5.180237 -39.297165 37,975 209 472 0
2019-03-27 01:25:43 GMT -5.159664 -39.286163 38,000 209 472 0
2019-03-27 01:25:32 GMT -5.139553 -39.275414 37,975 209 472 0
2019-03-27 01:25:22 GMT -5.119350 -39.264614 38,000 209 472 64
2019-03-27 01:25:10 GMT -5.098774 -39.253582 37,975 209 472 0
2019-03-27 01:25:00 GMT -5.078803 -39.242928 37,975 209 472 0
2019-03-27 01:24:50 GMT -5.057373 -39.231480 38,000 209 472 0
2019-03-27 01:24:38 GMT -5.037140 -39.220726 38,000 209 472 0
2019-03-27 01:24:29 GMT -5.016220 -39.209507 38,000 209 472 0
2019-03-27 01:24:17 GMT -4.996452 -39.198982 38,000 209 472 0
2019-03-27 01:24:08 GMT -4.975754 -39.187813 37,975 209 472 0
2019-03-27 01:23:57 GMT -4.954927 -39.176723 37,975 209 472 0
2019-03-27 01:23:46 GMT -4.934491 -39.165787 37,975 209 472 0
2019-03-27 01:23:39 GMT -4.921829 -39.159042 37,975 209 472 0
2019-03-27 01:23:36 GMT -4.914734 -39.155273 37,975 209 472 0
2019-03-27 01:23:28 GMT -4.901532 -39.148216 38,000 209 473 0
2019-03-27 01:23:25 GMT -4.893897 -39.144096 38,000 209 473 0
2019-03-27 01:23:17 GMT -4.880310 -39.136791 38,000 209 473 0
2019-03-27 01:23:14 GMT -4.872995 -39.132923 38,000 209 473 0
2019-03-27 01:23:07 GMT -4.859774 -39.125866 38,000 209 473 0
2019-03-27 01:23:04 GMT -4.853024 -39.122219 38,000 209 474 0
2019-03-27 01:22:56 GMT -4.839066 -39.114819 37,975 209 474 0
2019-03-27 01:22:53 GMT -4.832520 -39.111328 38,000 209 474 0
2019-03-27 01:22:43 GMT -4.811874 -39.100296 37,975 209 474 0
2019-03-27 01:22:35 GMT -4.797255 -39.092480 37,975 209 474 0
2019-03-27 01:22:31 GMT -4.790924 -39.089069 38,000 209 474 0
2019-03-27 01:22:24 GMT -4.775980 -39.081066 38,000 209 474 0
2019-03-27 01:22:21 GMT -4.770447 -39.078136 37,975 209 474 0
2019-03-27 01:22:11 GMT -4.749802 -39.067059 37,975 209 474 0
2019-03-27 01:22:03 GMT -4.735247 -39.059284 37,975 209 474 0
2019-03-27 01:22:00 GMT -4.729156 -39.056023 37,975 209 474 0
2019-03-27 01:21:50 GMT -4.708191 -39.044899 38,000 209 474 -64
2019-03-27 01:21:39 GMT -4.687317 -39.033680 38,000 209 473 0
2019-03-27 01:21:31 GMT -4.673286 -39.026230 37,975 209 473 0
2019-03-27 01:21:27 GMT -4.667404 -39.023113 37,975 209 473 0
2019-03-27 01:21:17 GMT -4.646006 -39.011692 37,975 209 472 0
2019-03-27 01:21:07 GMT -4.625656 -39.000908 37,975 209 471 0
2019-03-27 01:20:58 GMT -4.610813 -38.992989 37,975 209 471 0
2019-03-27 01:20:55 GMT -4.604994 -38.989910 37,975 209 471 0
2019-03-27 01:20:46 GMT -4.584686 -38.979118 37,975 208 471 0
2019-03-27 01:20:37 GMT -4.568893 -38.970741 38,000 208 471 0
2019-03-27 01:20:34 GMT -4.563858 -38.968086 38,000 208 471 0
2019-03-27 01:20:24 GMT -4.544128 -38.957661 38,000 209 470 0
2019-03-27 01:20:14 GMT -4.523392 -38.946625 38,000 209 469 0
2019-03-27 01:20:03 GMT -4.503557 -38.936020 37,975 209 468 0
2019-03-27 01:19:53 GMT -4.482096 -38.924656 37,975 209 468 0
2019-03-27 01:19:41 GMT -4.462784 -38.914318 37,975 209 468 0
2019-03-27 01:19:31 GMT -4.442459 -38.903473 37,975 209 468 0
2019-03-27 01:19:21 GMT -4.422089 -38.892673 37,975 209 468 0
2019-03-27 01:19:09 GMT -4.401374 -38.881561 38,000 209 467 0
2019-03-27 01:19:00 GMT -4.381543 -38.871098 37,975 209 467 0
2019-03-27 01:18:48 GMT -4.361115 -38.860271 38,000 208 466 0
2019-03-27 01:18:38 GMT -4.340515 -38.849331 37,975 208 466 0
2019-03-27 01:18:28 GMT -4.320094 -38.838516 37,975 209 465 0
2019-03-27 01:18:17 GMT -4.300216 -38.827957 38,000 209 465 0
2019-03-27 01:18:07 GMT -4.280013 -38.817253 38,000 209 465 0
2019-03-27 01:17:55 GMT -4.259437 -38.806316 38,000 209 464 0
2019-03-27 01:17:46 GMT -4.240219 -38.796078 38,000 209 464 0
2019-03-27 01:17:34 GMT -4.219345 -38.784950 37,975 209 463 0
2019-03-27 01:17:24 GMT -4.199338 -38.774399 38,000 209 463 0
2019-03-27 01:17:14 GMT -4.178787 -38.763397 38,000 209 463 0
2019-03-27 01:17:03 GMT -4.158783 -38.752922 37,975 208 463 64
2019-03-27 01:16:52 GMT -4.138458 -38.742077 37,975 209 462 64
2019-03-27 01:16:42 GMT -4.118570 -38.731495 37,975 209 462 0
2019-03-27 01:16:30 GMT -4.098506 -38.720795 38,000 209 462 0
2019-03-27 01:16:21 GMT -4.078767 -38.710327 38,000 209 462 0
2019-03-27 01:16:09 GMT -4.058533 -38.699574 38,000 209 462 0
2019-03-27 01:15:59 GMT -4.039032 -38.689240 38,000 209 462 0
2019-03-27 01:15:49 GMT -4.018575 -38.678410 37,975 209 462 0
2019-03-27 01:15:37 GMT -3.998139 -38.667519 37,975 209 462 0
2019-03-27 01:15:27 GMT -3.977703 -38.656673 37,975 209 462 0
2019-03-27 01:15:16 GMT -3.957047 -38.645714 37,975 209 462 0
2019-03-27 01:15:05 GMT -3.936951 -38.635098 38,000 208 463 0
2019-03-27 01:14:54 GMT -3.916077 -38.624020 37,975 209 462 0
2019-03-27 01:14:44 GMT -3.896562 -38.613674 38,000 209 462 0
2019-03-27 01:14:33 GMT -3.875519 -38.602512 37,975 209 462 0
2019-03-27 01:14:22 GMT -3.856062 -38.592178 37,975 209 462 64
2019-03-27 01:14:11 GMT -3.835253 -38.581142 37,975 209 461 0
2019-03-27 01:14:01 GMT -3.815735 -38.570808 38,000 209 461 0
2019-03-27 01:13:50 GMT -3.794752 -38.559597 38,000 209 462 0
2019-03-27 01:13:42 GMT -3.778133 -38.550739 37,975 209 461 0
2019-03-27 01:13:39 GMT -3.774362 -38.548706 38,000 209 461 0
2019-03-27 01:13:35 GMT -3.767349 -38.545021 37,975 209 461 64
2019-03-27 01:13:29 GMT -3.754852 -38.538364 37,975 209 461 -64
2019-03-27 01:13:21 GMT -3.737260 -38.529003 38,000 209 462 0
2019-03-27 01:13:10 GMT -3.717569 -38.518494 37,975 209 463 0
2019-03-27 01:13:07 GMT -3.713974 -38.516579 38,000 209 463 0
2019-03-27 01:12:57 GMT -3.693832 -38.505917 38,000 209 463 0
2019-03-27 01:12:49 GMT -3.677673 -38.497372 38,000 209 463 0
2019-03-27 01:12:46 GMT -3.673856 -38.495335 38,000 209 463 0
2019-03-27 01:12:35 GMT -3.652628 -38.484016 37,975 209 463 0
2019-03-27 01:12:28 GMT -3.637080 -38.475731 38,000 209 462 64
2019-03-27 01:12:25 GMT -3.633087 -38.473610 37,975 209 462 -128
2019-03-27 01:12:14 GMT -3.612454 -38.462662 37,975 209 462 0
2019-03-27 01:12:06 GMT -3.596952 -38.454468 37,975 209 461 0
2019-03-27 01:12:03 GMT -3.592017 -38.451862 37,975 209 461 -64
2019-03-27 01:11:56 GMT -3.577260 -38.444050 37,975 208 460 0
2019-03-27 01:11:53 GMT -3.572372 -38.441444 38,000 209 461 64
2019-03-27 01:11:45 GMT -3.557465 -38.433529 38,000 209 459 64
2019-03-27 01:11:41 GMT -3.536899 -38.422646 37,975 209 460 0
2019-03-27 01:11:35 GMT -3.536899 -38.422646 38,000 209 459 64
2019-03-27 01:11:31 GMT -3.532196 -38.420120 37,975 209 459 0
2019-03-27 01:11:23 GMT -3.516603 -38.411755 37,975 209 459 0
2019-03-27 01:11:20 GMT -3.511715 -38.409149 37,975 209 459 0
2019-03-27 01:11:13 GMT -3.497223 -38.401405 37,975 209 459 0
2019-03-27 01:11:10 GMT -3.491547 -38.398426 37,975 209 459 0
2019-03-27 01:11:03 GMT -3.477631 -38.390980 38,000 209 459 0
2019-03-27 01:10:58 GMT -3.469711 -38.386742 38,000 209 460 0
2019-03-27 01:10:52 GMT -3.457672 -38.380318 37,975 209 460 0
2019-03-27 01:10:48 GMT -3.450897 -38.376686 37,975 209 460 0
2019-03-27 01:10:41 GMT -3.436393 -38.368992 38,000 209 459 0
2019-03-27 01:10:38 GMT -3.431086 -38.366199 37,975 208 460 0
2019-03-27 01:10:31 GMT -3.417865 -38.359238 37,975 209 461 -64
2019-03-27 01:10:27 GMT -3.411069 -38.355591 38,000 209 461 0
2019-03-27 01:10:21 GMT -3.397103 -38.348156 37,975 209 461 0
2019-03-27 01:10:16 GMT -3.390884 -38.344845 37,975 209 461 0
2019-03-27 01:10:10 GMT -3.377243 -38.337582 38,000 209 461 0
2019-03-27 01:10:06 GMT -3.370468 -38.334000 38,000 209 461 0
2019-03-27 01:09:59 GMT -3.357971 -38.327343 38,000 209 461 0
2019-03-27 01:09:55 GMT -3.350418 -38.323292 38,000 209 461 0
2019-03-27 01:09:49 GMT -3.336456 -38.315891 37,975 209 461 0
2019-03-27 01:09:44 GMT -3.330580 -38.312737 37,975 209 461 0
2019-03-27 01:09:38 GMT -3.309998 -38.301785 38,000 209 461 0
2019-03-27 01:09:33 GMT -3.309998 -38.301785 38,000 209 461 64
2019-03-27 01:09:23 GMT -3.289536 -38.290890 38,000 209 462 64
2019-03-27 01:09:12 GMT -3.267609 -38.279251 38,000 209 461 -64
2019-03-27 01:09:00 GMT -3.246646 -38.268127 38,000 209 461 0
2019-03-27 01:08:54 GMT -3.235287 -38.262112 38,000 208 460 0
2019-03-27 01:08:49 GMT -3.225465 -38.256950 38,000 209 460 192
2019-03-27 01:08:39 GMT -3.207775 -38.247528 38,000 209 460 64
2019-03-27 01:08:30 GMT -3.187592 -38.236797 38,000 209 460 64
2019-03-27 01:08:18 GMT -3.168159 -38.226456 38,000 209 460 0
2019-03-27 01:08:08 GMT -3.148188 -38.215847 38,000 209 460 0
2019-03-27 01:07:58 GMT -3.127798 -38.205002 37,975 209 461 0
2019-03-27 01:07:45 GMT -3.093521 -38.186752 37,975 209 463 0
2019-03-27 01:07:37 GMT -3.088043 -38.183838 37,975 209 463 0
2019-03-27 01:07:25 GMT -3.065372 -38.171806 38,000 209 464 0
2019-03-27 01:07:14 GMT -3.046967 -38.162037 37,975 209 466 0
2019-03-27 01:07:05 GMT -3.027106 -38.151443 37,975 209 465 64
2019-03-27 01:07:02 GMT -3.022705 -38.149139 37,975 209 465 -128
2019-03-27 01:06:51 GMT -3.002666 -38.138515 37,975 208 466 0
2019-03-27 01:06:42 GMT -2.985861 -38.129566 38,000 209 467 0
2019-03-27 01:06:35 GMT -2.972081 -38.122272 37,975 208 466 0
2019-03-27 01:06:32 GMT -2.965983 -38.119053 38,000 209 466 0
2019-03-27 01:06:22 GMT -2.946105 -38.108494 37,975 209 466 0
2019-03-27 01:06:11 GMT -2.925855 -38.097698 37,975 209 467 64
2019-03-27 01:06:00 GMT -2.905014 -38.086575 37,975 209 467 0
2019-03-27 01:05:49 GMT -2.884735 -38.075821 38,000 209 466 0
2019-03-27 01:05:39 GMT -2.863940 -38.064785 37,975 209 465 0
2019-03-27 01:05:28 GMT -2.844202 -38.054272 38,000 209 463 0
2019-03-27 01:05:17 GMT -2.823673 -38.043430 37,975 209 462 64
2019-03-27 01:05:07 GMT -2.803436 -38.032619 37,975 209 462 128
2019-03-27 01:04:56 GMT -2.783386 -38.021957 37,975 208 460 64
2019-03-27 01:04:45 GMT -2.763382 -38.011391 38,000 209 460 0
2019-03-27 01:04:35 GMT -2.743603 -38.000904 38,000 209 459 0
2019-03-27 01:04:24 GMT -2.722235 -37.989491 38,000 209 458 64
2019-03-27 01:04:14 GMT -2.703801 -37.979736 37,975 208 458 -128
2019-03-27 01:04:03 GMT -2.682953 -37.968704 37,975 208 458 -64
2019-03-27 01:03:52 GMT -2.662835 -37.958050 37,975 209 459 -64
2019-03-27 01:03:41 GMT -2.642491 -37.947250 38,000 209 459 0
2019-03-27 01:03:31 GMT -2.622711 -37.936768 37,975 209 459 0
2019-03-27 01:03:20 GMT -2.603341 -37.926460 37,975 209 460 -64
2019-03-27 01:03:10 GMT -2.582951 -37.915619 38,000 209 460 0
2019-03-27 01:03:07 GMT -2.575409 -37.911640 38,000 209 459 0
2019-03-27 01:02:59 GMT -2.563156 -37.905113 37,975 209 459 0
2019-03-27 01:02:48 GMT -2.542590 -37.894260 37,975 209 459 0
2019-03-27 01:02:37 GMT -2.522415 -37.883560 38,000 209 460 0
2019-03-27 01:02:27 GMT -2.502602 -37.873047 38,000 209 460 0
2019-03-27 01:02:16 GMT -2.482212 -37.862202 37,975 209 461 0
2019-03-27 01:02:05 GMT -2.461403 -37.851170 37,975 209 462 0
2019-03-27 01:01:55 GMT -2.442307 -37.841011 38,000 209 463 0
2019-03-27 01:01:44 GMT -2.422165 -37.830349 38,000 209 463 0
2019-03-27 01:01:34 GMT -2.401657 -37.819458 37,975 209 463 0
2019-03-27 01:01:26 GMT -2.377350 -37.806515 38,000 209 463 0
2019-03-27 01:01:13 GMT -2.361595 -37.798180 37,975 209 463 64
2019-03-27 01:01:02 GMT -2.341690 -37.787567 38,000 209 462 0
2019-03-27 01:00:50 GMT -2.316067 -37.774029 38,000 209 462 0
2019-03-27 01:00:41 GMT -2.301310 -37.766167 38,000 209 462 0
2019-03-27 01:00:30 GMT -2.280454 -37.755131 37,975 209 462 64
2019-03-27 01:00:19 GMT -2.259227 -37.743862 38,000 209 461 0
2019-03-27 01:00:08 GMT -2.240112 -37.733707 38,000 209 461 0
2019-03-27 00:59:58 GMT -2.220681 -37.723358 37,975 209 461 -64
2019-03-27 00:59:47 GMT -2.200470 -37.712620 37,975 209 461 64
2019-03-27 00:59:36 GMT -2.178177 -37.700844 38,000 209 461 0
2019-03-27 00:59:26 GMT -2.160049 -37.691208 37,975 209 461 64
2019-03-27 00:59:15 GMT -2.139075 -37.680122 37,975 209 461 0
We lost coverage of the aircraft here for a total of 315 minutes
2019-03-26 19:44:14 GMT 35.454254 -21.190281 34,975 212 505 0
2019-03-26 19:44:10 GMT 35.462219 -21.184273 34,975 212 505 0
2019-03-26 19:43:37 GMT 35.527634 -21.135006 35,000 212 505 0
2019-03-26 19:42:30 GMT 35.662182 -21.033442 35,000 212 507 0
2019-03-26 19:42:19 GMT 35.683361 -21.017372 34,975 212 507 0
2019-03-26 19:42:09 GMT 35.704742 -21.001167 35,000 212 507 0
2019-03-26 19:41:59 GMT 35.724934 -20.985931 35,000 212 506 0
2019-03-26 19:41:48 GMT 35.745228 -20.970505 35,000 212 505 0
2019-03-26 19:41:38 GMT 35.766735 -20.954201 35,000 212 505 0
2019-03-26 19:41:27 GMT 35.787403 -20.938480 34,975 212 504 0
2019-03-26 19:41:10 GMT 35.820782 -20.913118 35,000 212 506 0
2019-03-26 19:41:07 GMT 35.828323 -20.907333 34,975 212 506 0
2019-03-26 19:36:35 GMT 36.367218 -20.494194 35,000 213 502 0
2019-03-26 19:36:14 GMT 36.409470 -20.461464 34,975 213 502 0
2019-03-26 19:36:04 GMT 36.428421 -20.446758 35,000 213 503 0
2019-03-26 19:35:37 GMT 36.482758 -20.404766 35,000 213 502 0
2019-03-26 19:35:33 GMT 36.490814 -20.398521 34,975 212 503 0
2019-03-26 19:34:48 GMT 36.579536 -20.329674 34,975 213 504 0
2019-03-26 19:34:41 GMT 36.593216 -20.319042 35,000 213 505 0
2019-03-26 19:34:31 GMT 36.613243 -20.303493 34,975 213 506 0
2019-03-26 19:34:20 GMT 36.634506 -20.286942 35,000 213 506 0
2019-03-26 19:33:47 GMT 36.699551 -20.236115 35,000 213 509 0
2019-03-26 19:33:37 GMT 36.720474 -20.219822 35,000 213 508 0
2019-03-26 19:33:27 GMT 36.741211 -20.203629 35,000 213 509 0
2019-03-26 19:33:17 GMT 36.759521 -20.189266 35,000 213 508 0
2019-03-26 19:33:08 GMT 36.778656 -20.174274 35,000 213 508 0
2019-03-26 19:32:57 GMT 36.799347 -20.158024 34,975 213 508 0
2019-03-26 19:32:47 GMT 36.820450 -20.141373 34,975 213 509 0
2019-03-26 19:32:37 GMT 36.840729 -20.125351 35,000 213 509 0
2019-03-26 19:32:26 GMT 36.860851 -20.109459 35,000 213 509 0
2019-03-26 19:32:08 GMT 36.898453 -20.079618 35,000 213 509 0
2019-03-26 19:32:04 GMT 36.905823 -20.073753 35,000 213 509 0
2019-03-26 19:31:55 GMT 36.923950 -20.059399 34,975 213 510 0
2019-03-26 19:31:44 GMT 36.944687 -20.042978 34,975 213 510 0
2019-03-26 19:31:34 GMT 36.965057 -20.026907 34,975 213 511 0
2019-03-26 19:31:20 GMT 36.992844 -20.005520 35,000 212 511 0
2019-03-26 19:31:14 GMT 37.006622 -19.995117 34,975 212 511 0
2019-03-26 19:31:00 GMT 37.033096 -19.975056 35,000 212 511 0
2019-03-26 19:30:52 GMT 37.049515 -19.962626 34,975 212 511 0
2019-03-26 19:30:42 GMT 37.069748 -19.947256 34,975 212 512 0
2019-03-26 19:30:32 GMT 37.090805 -19.931246 34,975 212 512 0
2019-03-26 19:30:21 GMT 37.113510 -19.913946 35,000 212 512 0
2019-03-26 19:30:11 GMT 37.133183 -19.898987 34,975 212 512 0
2019-03-26 19:30:01 GMT 37.153854 -19.883224 34,975 212 512 0
2019-03-26 19:29:50 GMT 37.175316 -19.866863 35,000 212 512 0
2019-03-26 19:29:40 GMT 37.196182 -19.851009 35,000 212 511 0
2019-03-26 19:29:25 GMT 37.226662 -19.827755 35,000 212 510 0
2019-03-26 19:29:15 GMT 37.246864 -19.812349 34,975 212 511 0
2019-03-26 19:29:09 GMT 37.258549 -19.803394 34,975 212 512 0
2019-03-26 19:28:36 GMT 37.326561 -19.751209 35,000 212 514 0
2019-03-26 19:28:17 GMT 37.364269 -19.722309 34,975 212 513 0
2019-03-26 19:28:04 GMT 37.390198 -19.702488 34,975 212 513 0
2019-03-26 19:27:57 GMT 37.405609 -19.690664 34,975 212 512 0
2019-03-26 19:27:46 GMT 37.426647 -19.674543 35,000 212 512 0
2019-03-26 19:27:31 GMT 37.457199 -19.651093 34,975 212 511 0
2019-03-26 19:27:05 GMT 37.510677 -19.609999 35,000 212 511 0
2019-03-26 19:26:54 GMT 37.531815 -19.593706 35,000 212 511 0
2019-03-26 19:26:39 GMT 37.562302 -19.570173 34,975 212 511 0
2019-03-26 19:26:33 GMT 37.573566 -19.561457 34,975 212 511 0
2019-03-26 19:26:23 GMT 37.593567 -19.546022 34,975 212 512 0
2019-03-26 19:26:12 GMT 37.616592 -19.528198 35,000 212 513 0
2019-03-26 19:26:02 GMT 37.636368 -19.512829 35,000 212 513 0
2019-03-26 19:25:44 GMT 37.673004 -19.484550 35,000 212 514 0
2019-03-26 19:25:41 GMT 37.678894 -19.479986 35,000 212 514 0
2019-03-26 19:25:27 GMT 37.706661 -19.458519 34,975 212 514 0
2019-03-26 19:25:15 GMT 37.731800 -19.439054 35,000 212 515 0
2019-03-26 19:25:10 GMT 37.742157 -19.431017 34,975 212 515 0
2019-03-26 19:24:58 GMT 37.766510 -19.412083 35,000 212 515 0
We lost coverage of the aircraft here for a total of 102 minutes
2019-03-26 17:42:38 GMT 46.814697 -5.603096 33,000 245 507 0
2019-03-26 17:42:34 GMT 46.818470 -5.591354 33,000 245 507 0
2019-03-26 17:42:16 GMT 46.836182 -5.536640 32,975 245 507 0
2019-03-26 17:42:01 GMT 46.851379 -5.489681 33,000 245 507 0
2019-03-26 17:41:56 GMT 46.856083 -5.475105 33,000 245 508 0
2019-03-26 17:41:50 GMT 46.862274 -5.455948 33,000 245 508 0
2019-03-26 17:41:42 GMT 46.870789 -5.429649 33,000 245 508 0
2019-03-26 17:41:19 GMT 46.892944 -5.360847 32,975 245 507 0
2019-03-26 17:41:14 GMT 46.898300 -5.344162 32,975 245 507 0
2019-03-26 17:41:04 GMT 46.913177 -5.297676 32,975 245 507 0
2019-03-26 17:40:54 GMT 46.918350 -5.281540 32,975 245 507 0
2019-03-26 17:40:51 GMT 46.921444 -5.271959 32,975 245 507 0
2019-03-26 17:40:41 GMT 46.932339 -5.237802 33,000 246 507 0
2019-03-26 17:40:31 GMT 46.941147 -5.210197 33,000 246 507 0
2019-03-26 17:40:23 GMT 46.951748 -5.177025 32,975 246 507 0
2019-03-26 17:40:13 GMT 46.958454 -5.155968 32,975 246 507 0
2019-03-26 17:40:06 GMT 46.965500 -5.133911 32,975 246 507 0
2019-03-26 17:40:02 GMT 46.969952 -5.119981 32,975 246 507 0
2019-03-26 17:39:51 GMT 46.980240 -5.087656 32,975 246 508 0
2019-03-26 17:39:44 GMT 46.990528 -5.055331 33,000 246 508 0
2019-03-26 17:39:41 GMT 46.990528 -5.055331 33,000 246 508 0
2019-03-26 17:39:38 GMT 46.993275 -5.046598 32,975 246 508 0
2019-03-26 17:39:30 GMT 47.000885 -5.022606 33,000 246 508 0
2019-03-26 17:39:23 GMT 47.007980 -5.000221 33,000 246 508 0
2019-03-26 17:39:20 GMT 47.011242 -4.989906 32,975 246 508 0
2019-03-26 17:39:14 GMT 47.016598 -4.973074 32,975 246 508 0
2019-03-26 17:39:09 GMT 47.021576 -4.957169 32,975 246 507 0
2019-03-26 17:39:06 GMT 47.025253 -4.945679 33,000 246 508 0
2019-03-26 17:39:00 GMT 47.030640 -4.928535 33,000 246 508 0
2019-03-26 17:38:53 GMT 47.038803 -4.902649 33,000 246 508 0
2019-03-26 17:38:46 GMT 47.044235 -4.885483 33,000 246 508 0
2019-03-26 17:38:42 GMT 47.048672 -4.871451 33,000 246 508 0
2019-03-26 17:38:33 GMT 47.056911 -4.845252 33,000 246 508 0
2019-03-26 17:38:30 GMT 47.060448 -4.833984 32,975 246 507 0
2019-03-26 17:38:25 GMT 47.065842 -4.816818 32,975 246 507 0
2019-03-26 17:38:20 GMT 47.069962 -4.803703 32,975 246 507 0
2019-03-26 17:38:17 GMT 47.073017 -4.794053 32,975 246 508 0
2019-03-26 17:38:14 GMT 47.075951 -4.784687 32,975 246 508 0
2019-03-26 17:38:10 GMT 47.080235 -4.770954 32,975 246 508 0
2019-03-26 17:38:07 GMT 47.082687 -4.763191 32,975 246 508 0
2019-03-26 17:38:03 GMT 47.086624 -4.750694 32,975 246 508 0
2019-03-26 17:37:59 GMT 47.091156 -4.736275 33,000 246 508 0
2019-03-26 17:37:56 GMT 47.093781 -4.727854 32,975 246 508 0
2019-03-26 17:37:52 GMT 47.097317 -4.716656 33,000 246 508 0
2019-03-26 17:37:49 GMT 47.100483 -4.706656 33,000 246 508 0
2019-03-26 17:37:45 GMT 47.104294 -4.694458 33,000 246 508 0
2019-03-26 17:37:38 GMT 47.111237 -4.672218 33,000 246 508 0
2019-03-26 17:37:35 GMT 47.114170 -4.662851 33,000 246 508 0
2019-03-26 17:37:29 GMT 47.127296 -4.620878 33,000 246 508 0
2019-03-26 17:37:23 GMT 47.127296 -4.620878 32,975 246 507 0
2019-03-26 17:37:19 GMT 47.130295 -4.611168 33,000 246 507 0
2019-03-26 17:37:12 GMT 47.137028 -4.589609 33,000 246 507 0
2019-03-26 17:37:08 GMT 47.140751 -4.577707 33,000 246 507 0
2019-03-26 17:37:05 GMT 47.144531 -4.565506 33,000 246 507 0
2019-03-26 17:37:01 GMT 47.148468 -4.553009 33,000 246 507 0
2019-03-26 17:36:58 GMT 47.150295 -4.547072 33,000 246 507 0
2019-03-26 17:36:53 GMT 47.154877 -4.532341 32,975 246 507 0
2019-03-26 17:36:47 GMT 47.160629 -4.513902 33,000 246 507 0
2019-03-26 17:36:43 GMT 47.164913 -4.500099 33,000 246 507 0
2019-03-26 17:36:40 GMT 47.167923 -4.490387 33,000 246 507 0
2019-03-26 17:36:36 GMT 47.171474 -4.478830 32,975 246 507 0
2019-03-26 17:36:33 GMT 47.174969 -4.467562 32,975 246 507 0
2019-03-26 17:36:30 GMT 47.177898 -4.458125 32,975 246 507 0
2019-03-26 17:36:23 GMT 47.184696 -4.436223 32,975 246 507 0
2019-03-26 17:36:20 GMT 47.187584 -4.426856 32,975 246 507 0
2019-03-26 17:36:16 GMT 47.191074 -4.415588 32,975 246 507 0
2019-03-26 17:36:13 GMT 47.194984 -4.403053 32,975 246 507 0
2019-03-26 17:36:10 GMT 47.197403 -4.395218 32,975 246 507 0
2019-03-26 17:36:05 GMT 47.202255 -4.379562 33,000 246 507 0
2019-03-26 17:36:02 GMT 47.205139 -4.370155 32,975 246 508 0
2019-03-26 17:35:59 GMT 47.207787 -4.361643 32,975 246 508 0
2019-03-26 17:35:55 GMT 47.211464 -4.349741 32,975 246 508 0
2019-03-26 17:35:52 GMT 47.214767 -4.339107 33,000 246 508 0
2019-03-26 17:35:49 GMT 47.221706 -4.316500 32,975 246 508 0
2019-03-26 17:35:45 GMT 47.221706 -4.316500 33,000 246 507 0
2019-03-26 17:35:41 GMT 47.225010 -4.305866 33,000 246 507 0
2019-03-26 17:35:37 GMT 47.229061 -4.292626 33,000 246 507 0
2019-03-26 17:35:34 GMT 47.232056 -4.282951 33,000 246 507 0
2019-03-26 17:35:29 GMT 47.237457 -4.265373 33,000 246 507 0
2019-03-26 17:35:24 GMT 47.241772 -4.251216 33,000 246 507 0
2019-03-26 17:35:21 GMT 47.244553 -4.242165 32,975 246 506 0
2019-03-26 17:35:17 GMT 47.248520 -4.229243 32,975 246 506 0
2019-03-26 17:35:14 GMT 47.250614 -4.222342 32,975 246 506 0
2019-03-26 17:35:11 GMT 47.254761 -4.208862 32,975 246 506 0
2019-03-26 17:35:07 GMT 47.258057 -4.198219 32,975 246 506 0
2019-03-26 17:35:04 GMT 47.260811 -4.189101 32,975 246 506 0
2019-03-26 17:35:00 GMT 47.264858 -4.176002 33,000 246 506 0
2019-03-26 17:34:54 GMT 47.270260 -4.158396 33,000 246 506 0
2019-03-26 17:34:50 GMT 47.274448 -4.144592 33,000 246 506 0
2019-03-26 17:34:44 GMT 47.280121 -4.126122 33,000 246 506 0
2019-03-26 17:34:40 GMT 47.284458 -4.111985 32,975 246 506 0
2019-03-26 17:34:36 GMT 47.288773 -4.097900 33,000 246 506 0
2019-03-26 17:34:33 GMT 47.290791 -4.091351 32,975 246 506 0
2019-03-26 17:34:29 GMT 47.294540 -4.079086 32,975 246 506 0
2019-03-26 17:34:25 GMT 47.298283 -4.066843 33,000 246 506 0
2019-03-26 17:34:22 GMT 47.301041 -4.057800 32,975 246 506 0
2019-03-26 17:34:16 GMT 47.307587 -4.036446 33,000 246 506 0
2019-03-26 17:34:13 GMT 47.309597 -4.029870 33,000 246 506 0
2019-03-26 17:34:07 GMT 47.315136 -4.011700 32,975 246 506 0
2019-03-26 17:34:03 GMT 47.319511 -3.997263 32,975 246 506 0
2019-03-26 17:33:58 GMT 47.324203 -3.981857 33,000 246 506 0
2019-03-26 17:33:52 GMT 47.329376 -3.964897 33,000 246 506 0
2019-03-26 17:33:48 GMT 47.334366 -3.948555 33,000 246 506 0
2019-03-26 17:33:45 GMT 47.337616 -3.937843 33,000 246 507 0
2019-03-26 17:33:40 GMT 47.341717 -3.924373 33,000 246 507 0
2019-03-26 17:33:37 GMT 47.344372 -3.915570 33,000 246 507 0
2019-03-26 17:33:32 GMT 47.348877 -3.900764 32,975 246 507 0
2019-03-26 17:33:29 GMT 47.351631 -3.891625 32,975 247 506 0
2019-03-26 17:33:26 GMT 47.354519 -3.882188 32,975 247 506 0
2019-03-26 17:33:22 GMT 47.358765 -3.868080 32,975 247 506 0
2019-03-26 17:33:19 GMT 47.361649 -3.858604 33,000 247 506 0
2019-03-26 17:33:15 GMT 47.364670 -3.849129 32,975 247 506 0
2019-03-26 17:33:12 GMT 47.368332 -3.836632 32,975 247 506 0
2019-03-26 17:33:09 GMT 47.370804 -3.828392 32,975 247 506 0
2019-03-26 17:33:05 GMT 47.374119 -3.817397 32,975 247 506 0
2019-03-26 17:33:01 GMT 47.379658 -3.799157 33,000 247 506 0
2019-03-26 17:32:58 GMT 47.381519 -3.792819 33,000 247 506 0
2019-03-26 17:32:54 GMT 47.384674 -3.782455 33,000 247 506 0
2019-03-26 17:32:51 GMT 47.388107 -3.771057 33,000 247 506 0
2019-03-26 17:32:48 GMT 47.393784 -3.752174 33,000 247 506 0
2019-03-26 17:32:45 GMT 47.393784 -3.752174 33,000 247 506 0
2019-03-26 17:32:41 GMT 47.397907 -3.738591 32,975 247 506 0
2019-03-26 17:32:34 GMT 47.403957 -3.718450 32,975 247 506 0
2019-03-26 17:32:31 GMT 47.407104 -3.708023 32,975 247 506 0
2019-03-26 17:32:24 GMT 47.413826 -3.685702 32,975 247 506 0
2019-03-26 17:32:20 GMT 47.417679 -3.672729 32,975 247 506 0
2019-03-26 17:32:16 GMT 47.421181 -3.661123 32,975 247 506 0
2019-03-26 17:32:13 GMT 47.423462 -3.653518 32,975 247 506 0
2019-03-26 17:32:08 GMT 47.429142 -3.634644 32,975 247 506 0
2019-03-26 17:32:04 GMT 47.432465 -3.623566 33,000 247 506 0
2019-03-26 17:32:00 GMT 47.436684 -3.609361 32,975 247 506 0
2019-03-26 17:31:57 GMT 47.440201 -3.597679 33,000 247 506 0
2019-03-26 17:31:52 GMT 47.443527 -3.586684 33,000 247 506 0
2019-03-26 17:31:49 GMT 47.446320 -3.577177 33,000 247 506 0
2019-03-26 17:31:46 GMT 47.449764 -3.565838 33,000 247 506 0
2019-03-26 17:31:42 GMT 47.453064 -3.554832 33,000 247 506 0
2019-03-26 17:31:39 GMT 47.456001 -3.545063 33,000 247 506 0
2019-03-26 17:31:34 GMT 47.461079 -3.528020 32,975 247 505 0
2019-03-26 17:31:29 GMT 47.465408 -3.513583 32,975 247 505 0
2019-03-26 17:31:22 GMT 47.472473 -3.489944 33,000 247 504 0
2019-03-26 17:31:19 GMT 47.475311 -3.480469 32,975 247 505 0
2019-03-26 17:31:12 GMT 47.481125 -3.460968 32,975 247 505 0
2019-03-26 17:31:09 GMT 47.484585 -3.449284 33,000 247 505 0
2019-03-26 17:31:01 GMT 47.491974 -3.424370 33,000 247 505 0
2019-03-26 17:30:58 GMT 47.494400 -3.416199 33,000 247 505 0
2019-03-26 17:30:52 GMT 47.500214 -3.396629 32,975 247 505 0
2019-03-26 17:30:48 GMT 47.503967 -3.383995 32,975 247 505 0
2019-03-26 17:30:40 GMT 47.511353 -3.359070 33,000 247 505 0
2019-03-26 17:30:37 GMT 47.514084 -3.349937 32,975 247 505 0
2019-03-26 17:30:33 GMT 47.518291 -3.335689 33,000 247 505 0
2019-03-26 17:30:30 GMT 47.521179 -3.325905 32,975 247 505 0
2019-03-26 17:30:27 GMT 47.523689 -3.317378 32,975 247 505 0
2019-03-26 17:30:23 GMT 47.528580 -3.300969 33,000 247 505 0
2019-03-26 17:30:20 GMT 47.530380 -3.294937 33,000 247 505 0
2019-03-26 17:30:17 GMT 47.533279 -3.285194 32,975 247 505 0
2019-03-26 17:30:08 GMT 47.544125 -3.248573 33,000 247 505 0
2019-03-26 17:29:57 GMT 47.551388 -3.223924 33,000 247 505 0
2019-03-26 17:29:54 GMT 47.554367 -3.213783 33,000 247 505 0
2019-03-26 17:29:49 GMT 47.559208 -3.197374 32,975 247 504 0
2019-03-26 17:29:46 GMT 47.562187 -3.187232 33,000 247 504 0
2019-03-26 17:29:43 GMT 47.564529 -3.179306 33,000 247 504 0
2019-03-26 17:29:39 GMT 47.568787 -3.164749 33,000 247 504 0
2019-03-26 17:29:36 GMT 47.571579 -3.155273 32,975 247 504 0
2019-03-26 17:29:33 GMT 47.574326 -3.145798 32,975 247 504 0
2019-03-26 17:29:28 GMT 47.578529 -3.131596 32,975 247 503 0
2019-03-26 17:29:25 GMT 47.581276 -3.122160 32,975 247 503 0
2019-03-26 17:29:20 GMT 47.585999 -3.106041 32,975 247 503 64
2019-03-26 17:29:15 GMT 47.590851 -3.089630 32,975 247 503 0
2019-03-26 17:29:12 GMT 47.593597 -3.080154 32,975 247 503 0
2019-03-26 17:29:08 GMT 47.597855 -3.065666 33,000 247 503 0
2019-03-26 17:29:04 GMT 47.600735 -3.055889 32,975 247 503 0
2019-03-26 17:29:00 GMT 47.604126 -3.044243 33,000 247 503 0
2019-03-26 17:28:56 GMT 47.608833 -3.028142 33,000 247 503 0
2019-03-26 17:28:53 GMT 47.610992 -3.020897 33,000 247 503 0
2019-03-26 17:28:50 GMT 47.613487 -3.012367 33,000 247 503 0
2019-03-26 17:28:45 GMT 47.618729 -2.994324 33,000 247 503 0
2019-03-26 17:28:42 GMT 47.621216 -2.985816 33,000 247 503 0
2019-03-26 17:28:39 GMT 47.623451 -2.978281 33,000 247 503 0
2019-03-26 17:28:33 GMT 47.629364 -2.958069 33,000 247 503 0
2019-03-26 17:28:29 GMT 47.633286 -2.944473 33,000 247 502 0
2019-03-26 17:28:25 GMT 47.639091 -2.924617 32,975 247 502 0
2019-03-26 17:28:15 GMT 47.646378 -2.899704 33,000 247 502 0
2019-03-26 17:28:12 GMT 47.648495 -2.892503 32,975 247 502 0
2019-03-26 17:28:09 GMT 47.651058 -2.883629 32,975 247 502 0
2019-03-26 17:28:06 GMT 47.653885 -2.873886 33,000 247 502 0
2019-03-26 17:28:02 GMT 47.658039 -2.859685 33,000 247 502 0
2019-03-26 17:27:59 GMT 47.660339 -2.851845 32,975 247 502 0
2019-03-26 17:27:55 GMT 47.665283 -2.834747 33,000 247 501 0
2019-03-26 17:27:52 GMT 47.667480 -2.827194 33,000 247 502 0
2019-03-26 17:27:48 GMT 47.670887 -2.815528 33,000 247 502 0
2019-03-26 17:27:44 GMT 47.674805 -2.801926 33,000 247 502 0
2019-03-26 17:27:41 GMT 47.677078 -2.794049 32,975 247 502 0
2019-03-26 17:27:34 GMT 47.683876 -2.770667 32,975 247 502 0
2019-03-26 17:27:31 GMT 47.686249 -2.762428 32,975 247 503 0
2019-03-26 17:27:27 GMT 47.689926 -2.749751 32,975 247 503 0
2019-03-26 17:27:21 GMT 47.695862 -2.729210 33,000 247 503 0
2019-03-26 17:27:16 GMT 47.700073 -2.714653 33,000 247 503 0
2019-03-26 17:27:12 GMT 47.703552 -2.702568 33,000 247 503 0
2019-03-26 17:27:08 GMT 47.707214 -2.689934 33,000 247 503 0
2019-03-26 17:27:05 GMT 47.710598 -2.678199 32,975 247 503 0
2019-03-26 17:27:02 GMT 47.715271 -2.661987 32,975 247 503 0
2019-03-26 17:26:59 GMT 47.722183 -2.637886 32,975 247 504 0
2019-03-26 17:26:50 GMT 47.724655 -2.629324 33,000 247 504 0
2019-03-26 17:26:41 GMT 47.732254 -2.603004 33,000 247 504 0
2019-03-26 17:26:37 GMT 47.735455 -2.591858 33,000 247 504 0
2019-03-26 17:26:31 GMT 47.741463 -2.570871 33,000 247 504 0
2019-03-26 17:26:28 GMT 47.744720 -2.559462 32,975 247 504 0
2019-03-26 17:26:20 GMT 47.751656 -2.535306 32,975 247 504 0
2019-03-26 17:26:17 GMT 47.753586 -2.528641 32,975 247 504 0
2019-03-26 17:26:13 GMT 47.757893 -2.513686 32,975 247 504 0
2019-03-26 17:26:10 GMT 47.760593 -2.504179 32,975 247 504 0
2019-03-26 17:26:07 GMT 47.762878 -2.496231 32,975 247 504 0
2019-03-26 17:26:00 GMT 47.770275 -2.470445 32,975 247 504 0
2019-03-26 17:25:57 GMT 47.772465 -2.462839 32,975 247 504 0
2019-03-26 17:25:51 GMT 47.777725 -2.444388 32,975 247 504 0
2019-03-26 17:25:48 GMT 47.779915 -2.436782 32,975 247 504 0
2019-03-26 17:25:45 GMT 47.783592 -2.424035 32,975 247 504 0
2019-03-26 17:25:39 GMT 47.788666 -2.406217 32,975 247 504 0
2019-03-26 17:25:36 GMT 47.791412 -2.396639 32,975 247 504 0
2019-03-26 17:25:33 GMT 47.795471 -2.382317 33,000 247 504 0
2019-03-26 17:25:30 GMT 47.801834 -2.360069 33,000 247 504 0
2019-03-26 17:25:24 GMT 47.801834 -2.360069 33,000 247 504 0
2019-03-26 17:25:19 GMT 47.806263 -2.344454 32,975 247 504 0
2019-03-26 17:25:16 GMT 47.810349 -2.330132 33,000 247 504 0
2019-03-26 17:25:08 GMT 47.817078 -2.306580 33,000 247 504 0
2019-03-26 17:25:05 GMT 47.819344 -2.298607 32,975 248 504 0
2019-03-26 17:24:59 GMT 47.824978 -2.278888 32,975 248 504 0
2019-03-26 17:24:55 GMT 47.828705 -2.265793 32,975 248 504 0
2019-03-26 17:24:52 GMT 47.834473 -2.245399 33,000 248 504 0
2019-03-26 17:24:48 GMT 47.834473 -2.245399 33,000 248 504 0
2019-03-26 17:24:42 GMT 47.840240 -2.225006 33,000 248 504 0
2019-03-26 17:24:35 GMT 47.847740 -2.198463 32,975 248 504 0
2019-03-26 17:24:32 GMT 47.849625 -2.191772 33,000 248 504 0
2019-03-26 17:24:27 GMT 47.853973 -2.176460 33,000 248 504 0
2019-03-26 17:24:24 GMT 47.856857 -2.166298 33,000 248 504 0
2019-03-26 17:24:21 GMT 47.859470 -2.157053 33,000 248 504 0
2019-03-26 17:24:16 GMT 47.863613 -2.142334 33,000 248 504 0
2019-03-26 17:24:13 GMT 47.866688 -2.131489 33,000 248 504 0
2019-03-26 17:24:05 GMT 47.873901 -2.105924 32,975 248 504 0
2019-03-26 17:24:02 GMT 47.876602 -2.096346 33,000 248 504 0
2019-03-26 17:23:59 GMT 47.878742 -2.088740 32,975 248 504 0
2019-03-26 17:23:55 GMT 47.885216 -2.065711 32,975 248 504 0
2019-03-26 17:23:52 GMT 47.885216 -2.065711 32,975 248 504 0
2019-03-26 17:23:48 GMT 47.889030 -2.052331 32,975 248 504 0
2019-03-26 17:23:45 GMT 47.891544 -2.043387 32,975 248 504 0
2019-03-26 17:23:40 GMT 47.896202 -2.026766 32,975 248 504 0
2019-03-26 17:23:37 GMT 47.899086 -2.016484 32,975 248 504 0
2019-03-26 17:23:34 GMT 47.901741 -2.006906 33,000 248 504 0
2019-03-26 17:23:30 GMT 47.905426 -1.993813 33,000 248 504 0
2019-03-26 17:23:27 GMT 47.908024 -1.984511 33,000 248 504 0
2019-03-26 17:23:22 GMT 47.913006 -1.966553 33,000 248 504 0
2019-03-26 17:23:19 GMT 47.914963 -1.959510 33,000 248 504 0
2019-03-26 17:23:16 GMT 47.917664 -1.949932 33,000 248 504 0
2019-03-26 17:23:11 GMT 47.921944 -1.934509 33,000 248 504 0
2019-03-26 17:23:08 GMT 47.924786 -1.924298 33,000 248 504 0
2019-03-26 17:23:05 GMT 47.927624 -1.914016 32,975 248 504 0
2019-03-26 17:23:00 GMT 47.937149 -1.879761 33,000 248 504 0
2019-03-26 17:22:54 GMT 47.937149 -1.879761 32,975 248 504 0
2019-03-26 17:22:51 GMT 47.939987 -1.869530 32,975 248 504 0
2019-03-26 17:22:48 GMT 47.943638 -1.856337 33,000 248 504 0
2019-03-26 17:22:44 GMT 47.949505 -1.835210 32,975 248 504 0
2019-03-26 17:22:41 GMT 47.949505 -1.835210 32,975 248 504 0
2019-03-26 17:22:38 GMT 47.951599 -1.827533 33,000 248 504 0
2019-03-26 17:22:33 GMT 47.956146 -1.811234 33,000 248 503 0
2019-03-26 17:22:30 GMT 47.958801 -1.801620 33,000 248 503 0
2019-03-26 17:22:26 GMT 47.962303 -1.789152 33,000 248 503 0
2019-03-26 17:22:22 GMT 47.965889 -1.776405 32,975 248 503 0
2019-03-26 17:22:19 GMT 47.973907 -1.747993 32,975 248 503 0
2019-03-26 17:22:13 GMT 47.973907 -1.747993 32,975 248 503 0
2019-03-26 17:22:08 GMT 47.978134 -1.732952 32,975 248 503 0
2019-03-26 17:22:05 GMT 47.981392 -1.721473 33,000 248 503 0
2019-03-26 17:21:58 GMT 47.987595 -1.699448 32,975 248 503 0
2019-03-26 17:21:55 GMT 47.990295 -1.689835 32,975 248 504 0
2019-03-26 17:21:51 GMT 47.993820 -1.677387 32,975 248 504 0
2019-03-26 17:21:47 GMT 48.001053 -1.651451 32,975 248 503 0
2019-03-26 17:21:43 GMT 48.001053 -1.651451 32,975 248 503 0
2019-03-26 17:21:39 GMT 48.006638 -1.631607 32,975 248 503 0
2019-03-26 17:21:33 GMT 48.009705 -1.620758 33,000 248 503 0
2019-03-26 17:21:26 GMT 48.016956 -1.594778 32,975 248 503 0
2019-03-26 17:21:23 GMT 48.019657 -1.585200 33,000 248 503 0
2019-03-26 17:21:18 GMT 48.023941 -1.569777 32,975 248 503 0
2019-03-26 17:21:15 GMT 48.025818 -1.563080 32,975 248 503 0
2019-03-26 17:21:12 GMT 48.029293 -1.550551 32,975 248 503 0
2019-03-26 17:21:05 GMT 48.037533 -1.521113 33,000 248 504 0
2019-03-26 17:21:02 GMT 48.037533 -1.521113 32,975 248 504 0
2019-03-26 17:20:56 GMT 48.042801 -1.502174 32,975 248 504 0
2019-03-26 17:20:53 GMT 48.044952 -1.494484 32,975 248 504 0
2019-03-26 17:20:50 GMT 48.047684 -1.484492 33,000 248 504 0
2019-03-26 17:20:46 GMT 48.051781 -1.469774 33,000 248 504 0
2019-03-26 17:20:43 GMT 48.054806 -1.458858 33,000 248 504 0
2019-03-26 17:20:34 GMT 48.062851 -1.429596 33,000 248 504 0
2019-03-26 17:20:31 GMT 48.066116 -1.417659 33,000 249 503 0
2019-03-26 17:20:25 GMT 48.070587 -1.401306 32,975 248 503 0
2019-03-26 17:20:22 GMT 48.072510 -1.394165 32,975 248 503 0
2019-03-26 17:20:19 GMT 48.076591 -1.379066 32,975 249 503 0
2019-03-26 17:20:13 GMT 48.080841 -1.363266 33,000 249 503 0
2019-03-26 17:20:10 GMT 48.083267 -1.354271 33,000 249 503 0
2019-03-26 17:20:05 GMT 48.088394 -1.334908 32,975 249 502 0
2019-03-26 17:20:02 GMT 48.090183 -1.328078 32,975 249 503 0
2019-03-26 17:19:59 GMT 48.092651 -1.318703 32,975 249 503 0
2019-03-26 17:19:56 GMT 48.097725 -1.298992 32,975 250 502 0
2019-03-26 17:19:53 GMT 48.097725 -1.298992 32,975 250 502 0
2019-03-26 17:19:50 GMT 48.100052 -1.289908 33,000 250 502 0
2019-03-26 17:19:43 GMT 48.106201 -1.265625 33,000 250 502 0
2019-03-26 17:19:39 GMT 48.109268 -1.253265 33,000 251 502 0
2019-03-26 17:19:36 GMT 48.111328 -1.244820 33,000 251 501 0
2019-03-26 17:19:32 GMT 48.114391 -1.232159 33,000 251 501 0
2019-03-26 17:19:28 GMT 48.117649 -1.218496 33,000 252 500 0
2019-03-26 17:19:23 GMT 48.121609 -1.201524 33,000 252 501 0
2019-03-26 17:19:20 GMT 48.124447 -1.189129 33,000 252 500 0
2019-03-26 17:19:16 GMT 48.127167 -1.176979 33,000 252 499 0
2019-03-26 17:19:11 GMT 48.130051 -1.163864 33,000 252 499 0
2019-03-26 17:19:07 GMT 48.133347 -1.148758 33,000 253 499 0
2019-03-26 17:19:03 GMT 48.136875 -1.132014 33,000 253 499 0
2019-03-26 17:18:59 GMT 48.139252 -1.120887 32,975 253 499 0
2019-03-26 17:18:56 GMT 48.140648 -1.114267 33,000 253 499 0
2019-03-26 17:18:51 GMT 48.144463 -1.097295 33,000 252 499 0
2019-03-26 17:18:48 GMT 48.147446 -1.084557 32,975 250 500 0
2019-03-26 17:18:41 GMT 48.152702 -1.064265 33,000 249 501 0
2019-03-26 17:18:35 GMT 48.157745 -1.045280 32,975 249 500 0
2019-03-26 17:18:29 GMT 48.162991 -1.025704 32,975 249 500 0
2019-03-26 17:18:25 GMT 48.166248 -1.013489 32,975 249 500 0
2019-03-26 17:18:20 GMT 48.170792 -0.996446 32,975 249 501 0
2019-03-26 17:18:14 GMT 48.175735 -0.977783 32,975 249 501 0
2019-03-26 17:18:09 GMT 48.179752 -0.962677 32,975 249 501 0
2019-03-26 17:18:04 GMT 48.188828 -0.928562 32,975 249 501 0
2019-03-26 17:17:59 GMT 48.188828 -0.928562 33,000 249 501 0
2019-03-26 17:17:52 GMT 48.194412 -0.907640 32,975 249 502 0
2019-03-26 17:17:49 GMT 48.197208 -0.896976 32,975 249 502 0
2019-03-26 17:17:43 GMT 48.202789 -0.876089 33,000 249 502 0
2019-03-26 17:17:39 GMT 48.205490 -0.865737 32,975 249 501 0
2019-03-26 17:17:32 GMT 48.211990 -0.841229 33,000 249 501 0
2019-03-26 17:17:28 GMT 48.214619 -0.831275 32,975 249 501 0
2019-03-26 17:17:22 GMT 48.220764 -0.808073 33,000 249 501 0
2019-03-26 17:17:19 GMT 48.228287 -0.779395 33,000 249 500 0
2019-03-26 17:17:12 GMT 48.228287 -0.779395 32,975 249 499 0
2019-03-26 17:17:08 GMT 48.231750 -0.766152 33,000 249 500 0
2019-03-26 17:17:03 GMT 48.236313 -0.748805 32,975 249 499 0
2019-03-26 17:16:57 GMT 48.241653 -0.728548 32,975 249 500 0
2019-03-26 17:16:50 GMT 48.247787 -0.705379 32,975 249 499 0
2019-03-26 17:16:47 GMT 48.249481 -0.698970 32,975 249 499 0
2019-03-26 17:16:40 GMT 48.258682 -0.664391 32,975 249 498 0
2019-03-26 17:16:30 GMT 48.265320 -0.639390 33,000 249 498 0
2019-03-26 17:16:27 GMT 48.267059 -0.632982 33,000 249 498 0
2019-03-26 17:16:21 GMT 48.275646 -0.600634 33,000 249 498 0
2019-03-26 17:16:18 GMT 48.275646 -0.600634 33,000 249 498 0
2019-03-26 17:16:15 GMT 48.276997 -0.595502 33,000 249 498 0
2019-03-26 17:16:10 GMT 48.281525 -0.578543 33,000 249 497 0
2019-03-26 17:16:07 GMT 48.283585 -0.570867 33,000 249 497 0
2019-03-26 17:16:04 GMT 48.286030 -0.561604 33,000 249 497 0
2019-03-26 17:16:01 GMT 48.288776 -0.551340 33,000 249 497 0
2019-03-26 17:15:57 GMT 48.292500 -0.537318 33,000 249 497 0
2019-03-26 17:15:54 GMT 48.294922 -0.528356 33,000 249 497 0
2019-03-26 17:15:51 GMT 48.297436 -0.518743 33,000 249 497 0
2019-03-26 17:15:45 GMT 48.302368 -0.500239 33,000 249 497 0
2019-03-26 17:15:41 GMT 48.305630 -0.488097 32,975 249 497 0
2019-03-26 17:15:38 GMT 48.309166 -0.474653 32,975 249 497 0
2019-03-26 17:15:35 GMT 48.313400 -0.458679 33,000 249 497 0
2019-03-26 17:15:28 GMT 48.317310 -0.443934 32,975 249 497 0
2019-03-26 17:15:24 GMT 48.320061 -0.433743 32,975 249 497 0
2019-03-26 17:15:20 GMT 48.324188 -0.418044 33,000 249 497 0
2019-03-26 17:15:16 GMT 48.328125 -0.403325 33,000 249 497 0
2019-03-26 17:15:10 GMT 48.332626 -0.386401 33,000 249 497 0
2019-03-26 17:15:07 GMT 48.334675 -0.378739 33,000 249 497 0
2019-03-26 17:15:04 GMT 48.337646 -0.367549 32,975 249 497 0
2019-03-26 17:15:00 GMT 48.341766 -0.352126 32,975 249 498 0
2019-03-26 17:14:53 GMT 48.346710 -0.333534 32,975 249 498 0
2019-03-26 17:14:49 GMT 48.350224 -0.320410 32,975 249 499 0
2019-03-26 17:14:45 GMT 48.354034 -0.305927 32,975 249 500 -64
2019-03-26 17:14:42 GMT 48.355911 -0.298814 33,000 249 501 -64
2019-03-26 17:14:38 GMT 48.359444 -0.285572 33,000 249 501 -64
2019-03-26 17:14:34 GMT 48.363586 -0.270032 33,000 249 503 0
2019-03-26 17:14:31 GMT 48.365448 -0.262949 33,000 249 503 64
2019-03-26 17:14:27 GMT 48.369003 -0.249587 32,975 249 504 320
2019-03-26 17:14:24 GMT 48.372620 -0.235924 32,950 249 504 704
2019-03-26 17:14:21 GMT 48.374245 -0.229773 32,925 249 504 832
2019-03-26 17:14:18 GMT 48.376991 -0.219365 32,875 249 504 1088
2019-03-26 17:14:14 GMT 48.380764 -0.205054 32,775 249 504 1152
2019-03-26 17:14:11 GMT 48.383286 -0.195641 32,725 249 504 1152
2019-03-26 17:14:08 GMT 48.386444 -0.183587 32,650 249 504 1152
2019-03-26 17:14:03 GMT 48.389832 -0.170851 32,550 249 504 1088
2019-03-26 17:14:00 GMT 48.392635 -0.160169 32,525 249 504 1088
2019-03-26 17:13:55 GMT 48.396698 -0.144865 32,450 249 504 1088
2019-03-26 17:13:52 GMT 48.398872 -0.136679 32,375 249 504 1088
2019-03-26 17:13:49 GMT 48.401550 -0.126624 32,325 249 504 1088
2019-03-26 17:13:45 GMT 48.405437 -0.111959 32,200 249 504 1088
2019-03-26 17:13:42 GMT 48.408043 -0.102202 32,175 249 504 1088
2019-03-26 17:13:39 GMT 48.410706 -0.092116 32,125 249 504 1088
2019-03-26 17:13:35 GMT 48.414185 -0.079087 30,800 249 495 1088
2019-03-26 17:13:32 GMT 48.416931 -0.068665 31,975 249 505 1216
2019-03-26 17:13:26 GMT 48.421822 -0.050089 31,850 249 505 1280
2019-03-26 17:13:22 GMT 48.425171 -0.037396 31,700 249 505 1344
2019-03-26 17:13:17 GMT 48.429474 -0.021057 31,650 249 506 1408
2019-03-26 17:13:14 GMT 48.431717 -0.012536 31,600 249 506 1408
2019-03-26 17:13:11 GMT 48.434765 -0.001084 31,500 249 506 1472
2019-03-26 17:13:07 GMT 48.437943 0.010986 31,375 249 507 1472
2019-03-26 17:13:04 GMT 48.441055 0.022818 31,275 249 508 1408
2019-03-26 17:13:00 GMT 48.444534 0.035917 31,275 249 507 1408
2019-03-26 17:12:55 GMT 48.448776 0.051968 31,075 249 508 1408
2019-03-26 17:12:50 GMT 48.454010 0.072045 31,025 249 508 1344
2019-03-26 17:12:46 GMT 48.456505 0.081602 30,900 249 509 1280
2019-03-26 17:12:42 GMT 48.460274 0.096058 30,800 249 509 1024
2019-03-26 17:12:35 GMT 48.465454 0.116131 30,675 249 509 960
2019-03-26 17:12:32 GMT 48.468338 0.127399 30,450 249 499 1088
2019-03-26 17:12:29 GMT 48.471306 0.138919 30,450 249 499 1088
2019-03-26 17:12:23 GMT 48.475571 0.155710 30,500 249 507 896
2019-03-26 17:12:19 GMT 48.479362 0.170505 30,450 249 507 896
2019-03-26 17:12:14 GMT 48.483227 0.185611 30,350 250 506 896
2019-03-26 17:12:11 GMT 48.486465 0.198458 30,275 249 505 0
2019-03-26 17:12:08 GMT 48.488068 0.204693 30,275 249 505 960
2019-03-26 17:12:03 GMT 48.492115 0.220377 30,175 249 504 960
2019-03-26 17:12:00 GMT 48.495209 0.232544 30,125 249 504 1024
2019-03-26 17:11:57 GMT 48.497284 0.240687 29,275 249 502 960
2019-03-26 17:11:54 GMT 48.500885 0.254798 30,000 249 503 960
2019-03-26 17:11:47 GMT 48.505478 0.272779 29,900 249 502 960
2019-03-26 17:11:43 GMT 48.509480 0.288391 29,825 249 502 960
2019-03-26 17:11:40 GMT 48.512321 0.299522 29,775 249 502 960
2019-03-26 17:11:37 GMT 48.514389 0.307617 29,750 249 501 1024
2019-03-26 17:11:33 GMT 48.519161 0.326193 29,625 249 500 1088
2019-03-26 17:11:29 GMT 48.520840 0.332698 29,600 249 500 1152
2019-03-26 17:11:26 GMT 48.523354 0.342455 29,475 249 501 1152
2019-03-26 17:11:23 GMT 48.526291 0.353746 29,450 249 500 1152
2019-03-26 17:11:19 GMT 48.529404 0.365801 29,325 249 495 1088
2019-03-26 17:11:16 GMT 48.532013 0.375789 29,325 249 499 1088
2019-03-26 17:11:11 GMT 48.535904 0.390719 29,250 249 499 1088
2019-03-26 17:11:07 GMT 48.540531 0.408446 29,175 249 498 1024
2019-03-26 17:11:04 GMT 48.541740 0.412999 29,125 249 498 960
2019-03-26 17:11:01 GMT 48.544765 0.424564 29,050 249 497 960
2019-03-26 17:10:58 GMT 48.547142 0.433599 29,025 249 497 960
2019-03-26 17:10:55 GMT 48.549911 0.444242 28,975 249 497 960
2019-03-26 17:10:51 GMT 48.552540 0.454198 28,925 249 496 960
2019-03-26 17:10:48 GMT 48.555817 0.466778 28,775 249 495 1088
2019-03-26 17:10:45 GMT 48.558128 0.475448 28,775 249 495 1024
2019-03-26 17:10:42 GMT 48.563339 0.495324 28,550 249 494 1088
2019-03-26 17:10:35 GMT 48.566181 0.506166 28,625 249 495 1088
2019-03-26 17:10:31 GMT 48.573395 0.533330 28,500 249 492 1088
2019-03-26 17:10:27 GMT 48.573395 0.533330 28,475 249 493 1024
2019-03-26 17:10:24 GMT 48.575592 0.541640 28,425 249 493 1088
2019-03-26 17:10:20 GMT 48.578796 0.553753 28,350 249 492 1088
2019-03-26 17:10:16 GMT 48.582615 0.568037 28,275 249 491 1088
2019-03-26 17:10:13 GMT 48.584663 0.575698 28,225 249 491 1024
2019-03-26 17:10:09 GMT 48.591156 0.600093 27,550 248 487 1024
2019-03-26 17:10:06 GMT 48.591156 0.600093 28,050 248 486 1088
2019-03-26 17:10:03 GMT 48.593719 0.609600 28,050 248 486 1088
2019-03-26 17:10:00 GMT 48.599747 0.632003 27,975 249 488 960
2019-03-26 17:09:56 GMT 48.599747 0.632003 27,700 248 487 1024
2019-03-26 17:09:52 GMT 48.603012 0.644320 27,575 248 487 1472
2019-03-26 17:09:46 GMT 48.608215 0.663444 27,700 248 487 1344
2019-03-26 17:09:42 GMT 48.611526 0.675730 27,350 248 486 1088
2019-03-26 17:09:39 GMT 48.613991 0.684839 27,575 248 486 1088
2019-03-26 17:09:36 GMT 48.616505 0.694235 27,525 248 486 1088
2019-03-26 17:09:33 GMT 48.619308 0.704604 27,425 248 485 1152
2019-03-26 17:09:29 GMT 48.622601 0.716786 27,375 248 484 1216
2019-03-26 17:09:25 GMT 48.628002 0.736807 27,275 248 484 1216
2019-03-26 17:09:18 GMT 48.631256 0.749042 27,150 249 484 1216
2019-03-26 17:09:14 GMT 48.635220 0.763694 27,075 249 483 1216
2019-03-26 17:09:08 GMT 48.639954 0.781508 26,975 249 482 1216
2019-03-26 17:09:03 GMT 48.648624 0.814217 26,525 249 478 1216
2019-03-26 17:08:57 GMT 48.648624 0.814217 26,750 249 479 1216
2019-03-26 17:08:52 GMT 48.653095 0.830986 26,575 249 479 1216
2019-03-26 17:08:48 GMT 48.656982 0.845595 26,525 248 480 1216
2019-03-26 17:08:42 GMT 48.661652 0.862920 26,100 248 479 1216
2019-03-26 17:08:38 GMT 48.664948 0.875315 25,900 248 474 704
2019-03-26 17:08:34 GMT 48.669113 0.890738 26,250 248 476 960
2019-03-26 17:08:27 GMT 48.674057 0.909189 26,150 249 475 832
2019-03-26 17:08:23 GMT 48.679321 0.928908 25,850 248 466 640
2019-03-26 17:08:16 GMT 48.683167 0.943306 26,000 248 472 640
2019-03-26 17:08:12 GMT 48.686287 0.954871 25,950 248 471 640
2019-03-26 17:08:09 GMT 48.688240 0.962171 25,875 249 464 640
2019-03-26 17:08:04 GMT 48.692944 0.979807 25,875 248 468 640
2019-03-26 17:08:01 GMT 48.695038 0.987613 25,750 249 463 640
2019-03-26 17:07:55 GMT 48.699738 1.005104 25,775 249 464 640
2019-03-26 17:07:52 GMT 48.702766 1.016524 25,750 249 464 640
2019-03-26 17:07:48 GMT 48.705978 1.028523 25,600 249 458 576
2019-03-26 17:07:43 GMT 48.709351 1.041377 25,650 249 459 576
2019-03-26 17:07:40 GMT 48.711796 1.050640 25,500 249 458 640
2019-03-26 17:07:37 GMT 48.714386 1.060462 25,525 249 456 576
2019-03-26 17:07:33 GMT 48.719757 1.080852 25,525 249 455 576
2019-03-26 17:07:30 GMT 48.719757 1.080852 25,475 249 452 512
2019-03-26 17:07:26 GMT 48.723156 1.093790 25,475 249 452 512
2019-03-26 17:07:23 GMT 48.725018 1.100873 25,450 249 451 512
2019-03-26 17:07:20 GMT 48.727299 1.109619 25,375 249 448 576
2019-03-26 17:07:17 GMT 48.730316 1.120958 25,375 248 447 704
2019-03-26 17:07:13 GMT 48.732746 1.129929 25,350 248 447 576
2019-03-26 17:07:07 GMT 48.737541 1.147854 25,250 248 441 640
2019-03-26 17:07:03 GMT 48.742661 1.166719 25,225 248 440 640
2019-03-26 17:07:00 GMT 48.746662 1.181536 25,200 248 439 704
2019-03-26 17:06:56 GMT 48.746662 1.181536 25,150 248 438 896
2019-03-26 17:06:51 GMT 48.749634 1.192580 23,800 248 416 1408
2019-03-26 17:06:48 GMT 48.751923 1.201101 25,025 248 437 1216
2019-03-26 17:06:45 GMT 48.754532 1.210679 24,875 248 436 1280
2019-03-26 17:06:42 GMT 48.756580 1.218326 24,875 248 436 1280
2019-03-26 17:06:39 GMT 48.762165 1.239142 24,775 248 431 832
2019-03-26 17:06:35 GMT 48.762165 1.239142 24,725 248 433 960
2019-03-26 17:06:32 GMT 48.764587 1.248105 24,625 248 432 832
2019-03-26 17:06:29 GMT 48.766869 1.256561 24,650 248 432 832
2019-03-26 17:06:22 GMT 48.772018 1.275823 24,375 248 426 576
2019-03-26 17:06:19 GMT 48.774315 1.284461 24,500 248 429 1152
2019-03-26 17:06:15 GMT 48.777695 1.296950 24,425 248 427 640
2019-03-26 17:06:12 GMT 48.779160 1.302514 24,400 248 427 576
2019-03-26 17:06:09 GMT 48.781765 1.312143 24,350 248 425 512
2019-03-26 17:06:02 GMT 48.786743 1.330864 24,175 248 421 1280
2019-03-26 17:05:59 GMT 48.789642 1.341459 24,200 248 420 1280
2019-03-26 17:05:53 GMT 48.793495 1.355944 24,050 248 419 1344
2019-03-26 17:05:50 GMT 48.795593 1.363784 24,000 248 419 1408
2019-03-26 17:05:43 GMT 48.800400 1.381742 23,825 248 418 1408
2019-03-26 17:05:40 GMT 48.804577 1.397215 23,650 248 416 1408
2019-03-26 17:05:32 GMT 48.810951 1.420923 23,525 248 415 1408
2019-03-26 17:05:29 GMT 48.812675 1.427428 23,450 248 415 1408
2019-03-26 17:05:26 GMT 48.812675 1.427428 23,450 248 414 1408
2019-03-26 17:05:21 GMT 48.818848 1.450266 23,300 248 414 1408
2019-03-26 17:05:18 GMT 48.818848 1.450266 23,250 248 414 1408
2019-03-26 17:05:10 GMT 48.824081 1.469855 23,075 248 413 1536
2019-03-26 17:05:06 GMT 48.826904 1.480267 22,975 248 412 1600
2019-03-26 17:05:03 GMT 48.830177 1.492334 22,825 248 411 1664
2019-03-26 17:05:00 GMT 48.834000 1.506465 22,575 248 411 1728
2019-03-26 17:04:57 GMT 48.834000 1.506465 21,850 248 410 2048
2019-03-26 17:04:54 GMT 48.835812 1.513150 22,500 248 411 1792
2019-03-26 17:04:50 GMT 48.838577 1.523508 22,500 248 411 1792
2019-03-26 17:04:47 GMT 48.840912 1.532029 22,400 248 410 1856
2019-03-26 17:04:43 GMT 48.845901 1.550692 22,200 248 410 2048
2019-03-26 17:04:40 GMT 48.845901 1.550692 22,200 248 410 2048
2019-03-26 17:04:36 GMT 48.848892 1.561576 21,850 248 410 1984
2019-03-26 17:04:33 GMT 48.850983 1.569284 21,850 248 410 1984
2019-03-26 17:04:30 GMT 48.853271 1.577806 21,850 248 411 1920
2019-03-26 17:04:26 GMT 48.855923 1.587669 21,725 248 411 1792
2019-03-26 17:04:22 GMT 48.861923 1.609779 21,575 248 410 1536
2019-03-26 17:04:18 GMT 48.864582 1.619616 21,475 248 409 1472
2019-03-26 17:04:15 GMT 48.864582 1.619616 21,450 248 409 1600
2019-03-26 17:04:11 GMT 48.867371 1.629920 21,300 248 408 1920
2019-03-26 17:04:08 GMT 48.869247 1.636822 21,050 248 409 1728
2019-03-26 17:04:04 GMT 48.871536 1.645343 21,050 248 408 2112
2019-03-26 17:03:58 GMT 48.876171 1.662549 20,950 248 409 1728
2019-03-26 17:03:55 GMT 48.879292 1.674259 20,725 249 406 1216
2019-03-26 17:03:50 GMT 48.881851 1.683727 20,650 248 405 1280
2019-03-26 17:03:47 GMT 48.887375 1.704571 20,400 249 403 2112
2019-03-26 17:03:42 GMT 48.887375 1.704571 20,600 249 404 1664
2019-03-26 17:03:37 GMT 48.891720 1.721095 20,325 249 403 2176
2019-03-26 17:03:34 GMT 48.893116 1.726371 20,250 249 403 2176
2019-03-26 17:03:30 GMT 48.896004 1.737430 20,100 249 404 1920
2019-03-26 17:03:27 GMT 48.900192 1.753693 19,975 249 403 1984
2019-03-26 17:03:23 GMT 48.900192 1.753693 19,800 250 402 2304
2019-03-26 17:03:16 GMT 48.905174 1.773208 19,600 250 402 2304
2019-03-26 17:03:13 GMT 48.907104 1.780842 19,225 251 401 2048
2019-03-26 17:03:08 GMT 48.911087 1.796987 19,275 250 403 2176
2019-03-26 17:03:05 GMT 48.912392 1.802264 19,200 250 403 2240
2019-03-26 17:03:02 GMT 48.914066 1.809202 19,125 250 403 2176
2019-03-26 17:02:55 GMT 48.918720 1.828862 18,550 251 401 1984
2019-03-26 17:02:52 GMT 48.920654 1.837111 18,750 251 401 1984
2019-03-26 17:02:48 GMT 48.923080 1.847745 18,600 251 401 2048
2019-03-26 17:02:45 GMT 48.924957 1.855967 17,500 253 401 2112
2019-03-26 17:02:42 GMT 48.927055 1.865580 18,175 252 400 2432
2019-03-26 17:02:39 GMT 48.928589 1.872518 18,250 252 400 2560
2019-03-26 17:02:35 GMT 48.930637 1.882131 18,175 252 400 2560
2019-03-26 17:02:32 GMT 48.932510 1.890987 17,825 253 402 2240
2019-03-26 17:02:29 GMT 48.934296 1.899578 17,825 253 402 2240
2019-03-26 17:02:25 GMT 48.936264 1.909297 17,550 254 400 1984
2019-03-26 17:02:22 GMT 48.938049 1.918452 17,550 254 400 1984
2019-03-26 17:02:15 GMT 48.941578 1.936485 17,375 254 399 2240
2019-03-26 17:02:12 GMT 48.942928 1.943496 17,275 254 399 2432
2019-03-26 17:02:09 GMT 48.944698 1.952603 17,125 254 399 2432
2019-03-26 17:02:05 GMT 48.946793 1.963665 16,950 254 399 2624
2019-03-26 17:02:02 GMT 48.948669 1.973314 16,800 254 399 2816
2019-03-26 17:01:58 GMT 48.950050 1.980647 16,675 254 399 2880
2019-03-26 17:01:53 GMT 48.952888 1.995753 16,375 254 401 2432
2019-03-26 17:01:50 GMT 48.954567 2.004427 16,375 254 401 2432
2019-03-26 17:01:47 GMT 48.955963 2.011944 14,850 255 398 2112
2019-03-26 17:01:44 GMT 48.957275 2.018738 16,025 255 400 2304
2019-03-26 17:01:41 GMT 48.958786 2.026837 15,950 255 400 2304
2019-03-26 17:01:37 GMT 48.960991 2.038470 15,775 255 400 2688
2019-03-26 17:01:34 GMT 48.962574 2.047143 15,625 255 401 2752
2019-03-26 17:01:29 GMT 48.965057 2.060429 15,400 255 402 2752
2019-03-26 17:01:26 GMT 48.966438 2.067743 15,200 255 402 2624
2019-03-26 17:01:22 GMT 48.969040 2.081627 15,050 255 402 1920
2019-03-26 17:01:18 GMT 48.970367 2.088670 15,000 255 402 1920
2019-03-26 17:01:15 GMT 48.972534 2.100340 14,825 255 400 1984
2019-03-26 17:01:11 GMT 48.974258 2.109520 14,725 255 399 2048
2019-03-26 17:01:08 GMT 48.975842 2.118193 14,650 255 398 2112
2019-03-26 17:01:05 GMT 48.977051 2.124698 14,575 255 398 2112
2019-03-26 17:01:01 GMT 48.979519 2.138142 14,350 255 396 2176
2019-03-26 17:00:58 GMT 48.980667 2.144306 14,350 255 396 2176
2019-03-26 17:00:55 GMT 48.981949 2.151278 14,225 255 396 2176
2019-03-26 17:00:52 GMT 48.983551 2.159870 14,100 255 396 1984
2019-03-26 17:00:48 GMT 48.985931 2.172687 13,950 255 394 1792
2019-03-26 17:00:43 GMT 48.988411 2.185701 13,225 254 386 1856
2019-03-26 17:00:39 GMT 48.989868 2.193392 13,700 255 392 1856
2019-03-26 17:00:35 GMT 48.992020 2.205012 13,550 254 390 1856
2019-03-26 17:00:32 GMT 48.993671 2.213745 13,525 254 390 1856
2019-03-26 17:00:29 GMT 48.995407 2.222900 13,225 254 386 1856
2019-03-26 17:00:24 GMT 48.997330 2.232830 13,225 254 386 1856
2019-03-26 17:00:21 GMT 48.999023 2.241704 13,125 254 384 1920
2019-03-26 17:00:17 GMT 49.001026 2.251836 13,000 254 384 1984
2019-03-26 17:00:14 GMT 49.002777 2.260860 12,700 254 381 2112
2019-03-26 17:00:11 GMT 49.004196 2.268043 12,825 254 382 2112
2019-03-26 17:00:08 GMT 49.006348 2.278888 12,525 254 381 2176
2019-03-26 17:00:02 GMT 49.008728 2.290790 12,125 253 379 2048
2019-03-26 16:59:59 GMT 49.010708 2.300552 12,325 253 378 2048
2019-03-26 16:59:54 GMT 49.012756 2.310439 12,100 253 376 2048
2019-03-26 16:59:49 GMT 49.015320 2.322552 12,050 253 376 2048
2019-03-26 16:59:46 GMT 49.017223 2.331270 11,900 252 375 1920
2019-03-26 16:59:43 GMT 49.018890 2.339032 11,825 252 374 1792
2019-03-26 16:59:39 GMT 49.021362 2.349947 11,550 251 370 1280
2019-03-26 16:59:35 GMT 49.023056 2.357342 11,625 251 370 1280
2019-03-26 16:59:32 GMT 49.024887 2.365230 11,575 251 368 1088
2019-03-26 16:59:29 GMT 49.026764 2.372976 11,500 250 366 1024
2019-03-26 16:59:26 GMT 49.028961 2.382061 11,425 249 362 1024
2019-03-26 16:59:23 GMT 49.030792 2.389245 11,375 249 360 1024
2019-03-26 16:59:19 GMT 49.033356 2.399104 11,300 248 358 1088
2019-03-26 16:59:15 GMT 49.035568 2.407235 11,200 248 356 1088
2019-03-26 16:59:12 GMT 49.037018 2.412555 11,225 248 354 1024
2019-03-26 16:59:08 GMT 49.040363 2.424654 11,100 247 349 1024
2019-03-26 16:59:05 GMT 49.041897 2.430075 11,025 247 347 1024
2019-03-26 16:59:02 GMT 49.043701 2.436570 11,025 247 345 1024
2019-03-26 16:58:57 GMT 49.046509 2.446554 10,900 248 341 1088
2019-03-26 16:58:54 GMT 49.048462 2.453637 10,700 248 337 1088
2019-03-26 16:58:51 GMT 49.049904 2.458914 10,700 248 337 1088
2019-03-26 16:58:48 GMT 49.052536 2.468262 10,700 248 332 1024
2019-03-26 16:58:41 GMT 49.055908 2.480453 10,650 248 328 960
2019-03-26 16:58:35 GMT 49.062012 2.502559 10,525 248 320 896
2019-03-26 16:58:27 GMT 49.064987 2.513263 10,425 248 314 832
2019-03-26 16:58:21 GMT 49.067642 2.522736 10,350 248 310 640
2019-03-26 16:58:18 GMT 49.069336 2.528968 10,325 247 306 832
2019-03-26 16:58:15 GMT 49.070854 2.534300 10,275 247 303 1792
2019-03-26 16:58:11 GMT 49.073135 2.542540 10,075 247 302 2048
2019-03-26 16:58:08 GMT 49.074829 2.548617 10,025 248 300 2112
2019-03-26 16:58:05 GMT 49.076569 2.554885 9,925 248 300 2048
2019-03-26 16:58:01 GMT 49.078674 2.562416 9,700 248 300 2112
2019-03-26 16:57:58 GMT 49.080303 2.568271 9,575 248 299 2112
2019-03-26 16:57:55 GMT 49.081795 2.573764 9,550 248 299 2112
2019-03-26 16:57:52 GMT 49.084026 2.581859 9,425 248 297 2112
2019-03-26 16:57:45 GMT 49.087326 2.594112 9,200 248 296 2176
2019-03-26 16:57:42 GMT 49.089157 2.601013 9,050 249 295 2048
2019-03-26 16:57:34 GMT 49.092918 2.615541 8,825 250 291 2176
2019-03-26 16:57:29 GMT 49.095337 2.624958 8,700 250 292 2048
2019-03-26 16:57:23 GMT 49.097809 2.635129 8,375 251 290 2432
2019-03-26 16:57:20 GMT 49.099365 2.641860 8,325 252 289 2752
2019-03-26 16:57:16 GMT 49.100971 2.649440 8,100 253 288 2944
2019-03-26 16:57:13 GMT 49.102089 2.655294 7,950 256 289 2880
2019-03-26 16:57:08 GMT 49.103767 2.665630 7,725 259 289 2432
2019-03-26 16:57:03 GMT 49.105255 2.677556 7,450 261 286 2240
2019-03-26 16:56:59 GMT 49.105865 2.683763 7,375 263 285 2176
2019-03-26 16:56:55 GMT 49.106281 2.690277 7,325 265 283 2176
2019-03-26 16:56:52 GMT 49.106506 2.697214 7,100 269 280 2432
2019-03-26 16:56:48 GMT 49.106461 2.705876 6,900 273 279 3264
2019-03-26 16:56:44 GMT 49.106094 2.712144 6,700 280 280 3072
2019-03-26 16:56:41 GMT 49.105488 2.718177 6,500 280 280 3072
2019-03-26 16:56:37 GMT 49.103859 2.727717 6,275 289 280 2816
2019-03-26 16:56:33 GMT 49.102295 2.734187 6,125 293 279 2944
2019-03-26 16:56:29 GMT 49.100368 2.740438 6,000 296 279 2560
2019-03-26 16:56:26 GMT 49.098457 2.745498 5,850 304 277 1536
2019-03-26 16:56:23 GMT 49.095760 2.751136 5,775 310 274 1024
2019-03-26 16:56:18 GMT 49.092033 2.757279 5,200 79 232 640
2019-03-26 16:56:12 GMT 49.086182 2.764188 5,650 328 256 1984
2019-03-26 16:56:08 GMT 49.080956 2.768555 5,425 337 253 2432
2019-03-26 16:56:04 GMT 49.076626 2.771084 5,275 344 250 2304
2019-03-26 16:56:01 GMT 49.074390 2.771952 5,200 346 250 2432
2019-03-26 16:55:58 GMT 49.070992 2.772964 4,725 9 248 2048
2019-03-26 16:55:55 GMT 49.063171 2.773253 4,825 4 248 2368
2019-03-26 16:55:52 GMT 49.063171 2.773253 4,800 5 249 2368
2019-03-26 16:55:47 GMT 49.055420 2.770879 4,125 30 243 1408
2019-03-26 16:55:44 GMT 49.055420 2.770879 4,450 23 245 1408
2019-03-26 16:55:41 GMT 49.050980 2.768203 4,450 28 244 1536
2019-03-26 16:55:38 GMT 49.049114 2.766748 4,400 32 243 1344
2019-03-26 16:55:33 GMT 49.044525 2.762076 4,225 42 240 1600
2019-03-26 16:55:30 GMT 49.041107 2.757496 4,150 47 240 1344
2019-03-26 16:55:25 GMT 49.037933 2.751653 4,075 54 239 1024
2019-03-26 16:55:21 GMT 49.035801 2.746437 4,025 61 237 832
2019-03-26 16:55:18 GMT 49.032776 2.733789 3,900 85 186 2112
2019-03-26 16:55:14 GMT 49.032776 2.733789 3,875 75 233 768
2019-03-26 16:55:11 GMT 49.031937 2.723694 3,800 85 225 704
2019-03-26 16:55:07 GMT 49.031937 2.723694 3,700 85 219 640
2019-03-26 16:55:01 GMT 49.031425 2.714852 3,750 84 216 704
2019-03-26 16:54:55 GMT 49.030910 2.706106 3,625 84 209 960
2019-03-26 16:54:52 GMT 49.030655 2.701580 3,625 84 206 832
2019-03-26 16:54:44 GMT 49.029968 2.691087 3,500 84 198 896
2019-03-26 16:54:40 GMT 49.029602 2.685312 3,450 84 193 960
2019-03-26 16:54:33 GMT 49.028725 2.670328 3,175 84 185 1856
2019-03-26 16:54:29 GMT 49.028305 2.663317 3,125 84 185 1984
2019-03-26 16:54:23 GMT 49.028305 2.663317 3,000 84 185 1984
2019-03-26 16:54:20 GMT 49.027981 2.658330 2,850 85 186 2048
2019-03-26 16:54:13 GMT 49.027496 2.649325 2,525 85 186 2048
2019-03-26 16:54:09 GMT 49.027222 2.643832 2,525 85 186 2112
2019-03-26 16:54:01 GMT 49.026535 2.633249 2,200 84 185 1792
2019-03-26 16:53:58 GMT 49.026398 2.630647 2,125 84 185 1728
2019-03-26 16:53:52 GMT 49.025803 2.621155 1,850 84 183 1792
2019-03-26 16:53:49 GMT 49.025604 2.617710 1,825 84 183 1792
2019-03-26 16:53:42 GMT 49.025093 2.608675 1,575 85 183 2240
2019-03-26 16:53:39 GMT 49.024906 2.605350 1,475 85 183 2048
2019-03-26 16:53:36 GMT 49.024719 2.601736 1,425 86 180 2304
2019-03-26 16:53:32 GMT 49.024487 2.596098 1,225 86 180 2240
2019-03-26 16:53:28 GMT 49.024246 2.590449 1,050 86 180 2240
2019-03-26 16:53:22 GMT 49.024021 2.583739 850 86 179 2368
2019-03-26 16:53:18 GMT 49.023834 2.578829 675 86 179 2368
2019-03-26 16:53:14 GMT 49.023651 2.573909 525 87 178 2368
2019-03-26 16:53:11 GMT 49.023510 2.570223 400 86 177 2368
2019-03-26 16:53:07 GMT 49.023331 2.565096 225 85 178 2240
2019-03-26 16:53:01 GMT 49.022999 2.557791 -25 85 178 1984
2019-03-26 16:52:40 GMT 49.021786 2.534620 0 84 125
2019-03-26 16:51:46 GMT 49.020752 2.521091 0 19 13
2019-03-26 16:51:22 GMT 49.019203 2.521200 0 354 13
2019-03-26 16:51:16 GMT 49.018936 2.521221 0 357 11
2019-03-26 16:51:06 GMT 49.018501 2.521274 0 357 10
2019-03-26 16:50:55 GMT 49.018101 2.521327 0 354 8
2019-03-26 16:48:14 GMT 49.018021 2.540095 0 264 22
2019-03-26 16:47:50 GMT 49.018215 2.543705 0 264 24
2019-03-26 16:47:36 GMT 49.018341 2.546011 0 264 25
2019-03-26 16:46:10 GMT 49.019112 2.560393 0 264 23
2019-03-26 16:45:50 GMT 49.019268 2.563318 0 264 20
2019-03-26 16:45:43 GMT 49.019310 2.564169 0 264 19
We lost coverage of the aircraft here for a total of 253 minutes
2019-03-26 12:32:51 GMT 48.995911 2.557138 -250 85 154 -384
2019-03-26 12:32:41 GMT 48.995300 2.546226 -75 85 152 -768
2019-03-26 12:32:38 GMT 48.995087 2.541645 -25 85 153 -768
2019-03-26 12:32:31 GMT 48.994720 2.535236 50 85 151 -768
2019-03-26 12:32:27 GMT 48.994461 2.530903 125 85 150 -832
2019-03-26 12:32:20 GMT 48.994125 2.524038 200 85 150 -448
2019-03-26 12:32:15 GMT 48.993805 2.518404 275 84 148 -640
2019-03-26 12:32:10 GMT 48.993484 2.513123 325 85 149 -1024
2019-03-26 12:32:05 GMT 48.993210 2.507982 425 85 151 -960
2019-03-26 12:32:00 GMT 48.992981 2.502629 475 85 153 -896
2019-03-26 12:31:54 GMT 48.992645 2.496354 575 85 151 -640
2019-03-26 12:31:50 GMT 48.992367 2.491222 625 85 151 -640
2019-03-26 12:31:44 GMT 48.991947 2.484500 725 84 151 -704
2019-03-26 12:31:37 GMT 48.991623 2.478790 800 85 151 -768
2019-03-26 12:31:32 GMT 48.991341 2.473225 850 85 151 -768
2019-03-26 12:31:29 GMT 48.991158 2.470117 900 85 150 -768
2019-03-26 12:31:22 GMT 48.990738 2.461154 1,025 85 152 -896
2019-03-26 12:31:19 GMT 48.990643 2.458769 1,075 85 152 -704
2019-03-26 12:31:09 GMT 48.989822 2.445444 1,250 83 151 -704
2019-03-26 12:31:01 GMT 48.989433 2.439182 1,325 85 153 -1024
2019-03-26 12:30:53 GMT 48.989014 2.431231 1,425 83 152 -1216
2019-03-26 12:30:48 GMT 48.988770 2.425936 1,550 86 153 -1024
2019-03-26 12:30:37 GMT 48.988312 2.414316 1,875 85 153 -832
2019-03-26 12:30:32 GMT 48.987946 2.407813 1,775 83 153 -1216
2019-03-26 12:30:27 GMT 48.987579 2.403400 1,850 82 153 -384
2019-03-26 12:30:20 GMT 48.986965 2.395670 1,925 83 151 -768
2019-03-26 12:30:17 GMT 48.986710 2.392625 2,175 85 152 -832
2019-03-26 12:30:12 GMT 48.986500 2.388081 2,050 87 153 -896
2019-03-26 12:30:09 GMT 48.986362 2.384322 2,075 87 153 -832
2019-03-26 12:30:06 GMT 48.986267 2.381576 2,150 88 157 -1024
2019-03-26 12:30:03 GMT 48.986176 2.377673 2,175 88 157 -832
2019-03-26 12:29:57 GMT 48.985802 2.366397 2,400 81 161 -896
2019-03-26 12:29:54 GMT 48.985802 2.366397 2,325 84 159 -896
2019-03-26 12:29:48 GMT 48.985336 2.359807 2,400 82 160 -896
2019-03-26 12:29:45 GMT 48.985195 2.358158 2,450 82 161 -832
2019-03-26 12:29:41 GMT 48.984825 2.353893 2,500 82 163 -896
2019-03-26 12:29:36 GMT 48.984009 2.344032 2,600 84 166 -960
2019-03-26 12:29:33 GMT 48.984009 2.344032 2,625 84 167 -1024
2019-03-26 12:29:29 GMT 48.983803 2.339437 2,675 85 169 -576
2019-03-26 12:29:24 GMT 48.983616 2.332860 2,750 88 176 -832
2019-03-26 12:29:19 GMT 48.983475 2.327367 2,825 86 179 -960
2019-03-26 12:29:13 GMT 48.982357 2.308936 3,050 83 182 -1088
2019-03-26 12:29:05 GMT 48.982357 2.308936 3,075 83 184 -1216
2019-03-26 12:29:02 GMT 48.982132 2.305650 3,100 83 186 -1216
2019-03-26 12:28:58 GMT 48.981720 2.300439 3,225 84 190 -1344
2019-03-26 12:28:55 GMT 48.981354 2.294312 3,325 85 191 -1088
2019-03-26 12:28:52 GMT 48.981216 2.292128 3,375 85 191 -1088
2019-03-26 12:28:49 GMT 48.981007 2.288192 3,400 85 191 -1088
2019-03-26 12:28:46 GMT 48.980774 2.283132 3,475 86 192 -1024
2019-03-26 12:28:42 GMT 48.980530 2.277550 3,550 86 192 -1024
2019-03-26 12:28:33 GMT 48.979980 2.266212 3,700 85 192 -1088
2019-03-26 12:28:30 GMT 48.979797 2.262691 3,750 85 192 -1024
2019-03-26 12:28:27 GMT 48.979519 2.258269 3,825 84 192 -1088
2019-03-26 12:28:22 GMT 48.979156 2.251634 3,925 85 192 -1024
2019-03-26 12:28:18 GMT 48.978745 2.244662 4,000 84 192 -1024
2019-03-26 12:28:13 GMT 48.978447 2.239404 4,100 84 191 -1280
2019-03-26 12:28:10 GMT 48.978149 2.234168 4,150 84 190 -1024
2019-03-26 12:28:06 GMT 48.977921 2.230436 4,200 84 190 -832
2019-03-26 12:28:02 GMT 48.977657 2.224948 4,300 85 189 -1088
2019-03-26 12:27:59 GMT 48.977371 2.219802 4,350 85 189 -1024
2019-03-26 12:27:56 GMT 48.977188 2.216914 4,400 84 189 -1024
2019-03-26 12:27:51 GMT 48.976772 2.209553 4,450 84 189 -1024
2019-03-26 12:27:48 GMT 48.976540 2.205361 4,550 85 190 -1088
2019-03-26 12:27:42 GMT 48.976181 2.198815 5,625 84 232 -1472
2019-03-26 12:27:39 GMT 48.975861 2.192336 4,725 84 190 -960
2019-03-26 12:27:35 GMT 48.975632 2.188603 4,750 84 190 -960
2019-03-26 12:27:32 GMT 48.975468 2.185557 4,825 85 191 -960
2019-03-26 12:27:29 GMT 48.975220 2.181068 4,825 85 191 -960
2019-03-26 12:27:26 GMT 48.974957 2.176811 4,900 85 197 -1024
2019-03-26 12:27:20 GMT 48.974445 2.167848 5,025 84 204 -1088
2019-03-26 12:27:15 GMT 48.974030 2.160997 5,125 84 209 -1280
2019-03-26 12:27:12 GMT 48.973801 2.156630 5,175 84 211 -1280
2019-03-26 12:27:09 GMT 48.973045 2.143635 5,350 85 221 -1408
2019-03-26 12:27:04 GMT 48.973045 2.143635 5,375 85 225 -1408
2019-03-26 12:26:59 GMT 48.972061 2.126488 5,550 84 234 -1600
2019-03-26 12:26:53 GMT 48.972061 2.126488 5,675 85 235 -1664
2019-03-26 12:26:48 GMT 48.971649 2.119349 5,800 84 238 -1664
2019-03-26 12:26:42 GMT 48.971046 2.108435 5,975 85 241 -1600
2019-03-26 12:26:39 GMT 48.970718 2.102509 6,075 85 243 -1536
2019-03-26 12:26:32 GMT 48.970047 2.091064 6,250 84 242 -1536
2019-03-26 12:26:27 GMT 48.969601 2.083788 6,375 84 242 -1536
2019-03-26 12:26:20 GMT 48.968857 2.071064 6,600 85 241 -1216
2019-03-26 12:26:17 GMT 48.968582 2.066345 6,700 85 242 -960
2019-03-26 12:26:08 GMT 48.967739 2.050540 6,825 85 241 -704
2019-03-26 12:25:58 GMT 48.966660 2.032541 6,900 84 240 -384
2019-03-26 12:25:48 GMT 48.965607 2.015076 6,975 85 240 -192
2019-03-26 12:25:38 GMT 48.964783 2.000568 7,000 85 241 0
2019-03-26 12:25:35 GMT 48.964462 1.994793 6,975 85 243 0
2019-03-26 12:25:29 GMT 48.963829 1.984044 6,975 84 244 0
2019-03-26 12:25:26 GMT 48.963642 1.980575 6,975 84 245 0
2019-03-26 12:25:18 GMT 48.962677 1.964299 7,000 85 245 -128
2019-03-26 12:25:15 GMT 48.962402 1.959088 7,000 85 245 -192
2019-03-26 12:25:07 GMT 48.961716 1.946482 7,025 85 241 -320
2019-03-26 12:24:55 GMT 48.960617 1.925282 7,175 85 242 -1216
2019-03-26 12:24:46 GMT 48.959686 1.910681 7,325 83 243 -1152
2019-03-26 12:24:43 GMT 48.959427 1.907466 7,375 83 243 -1216
2019-03-26 12:24:33 GMT 48.957916 1.888522 7,625 81 240 -1280
2019-03-26 12:24:23 GMT 48.956333 1.872952 7,825 79 241 -1216
2019-03-26 12:24:14 GMT 48.954426 1.858786 8,025 77 239 -1088
2019-03-26 12:24:11 GMT 48.953449 1.852859 8,075 76 239 -1088
2019-03-26 12:24:03 GMT 48.949997 1.838661 8,250 64 236 -1280
2019-03-26 12:23:54 GMT 48.945766 1.824959 8,450 64 237 -1088
2019-03-26 12:23:51 GMT 48.944931 1.822285 8,450 64 237 -1088
2019-03-26 12:23:43 GMT 48.941345 1.810631 8,750 65 237 -1408
2019-03-26 12:23:40 GMT 48.940063 1.806406 8,825 65 238 -1216
2019-03-26 12:23:31 GMT 48.935623 1.791898 8,900 64 236 -1344
2019-03-26 12:23:23 GMT 48.931000 1.778729 9,075 59 234 -1024
2019-03-26 12:23:20 GMT 48.929893 1.776171 9,100 57 234 -960
2019-03-26 12:23:14 GMT 48.925144 1.767715 9,250 42 232 -1088
2019-03-26 12:23:09 GMT 48.921890 1.763728 9,575 26 229 -1472
2019-03-26 12:23:02 GMT 48.914810 1.757523 9,500 26 229 -1472
2019-03-26 12:22:59 GMT 48.911682 1.755207 9,525 25 228 -1472
2019-03-26 12:22:51 GMT 48.901611 1.747812 9,825 26 226 -1408
2019-03-26 12:22:48 GMT 48.901611 1.747812 9,875 26 226 -1408
2019-03-26 12:22:41 GMT 48.894794 1.742706 10,000 26 226 -1280
2019-03-26 12:22:37 GMT 48.890835 1.739743 10,125 26 226 -1152
2019-03-26 12:22:29 GMT 48.884537 1.734995 10,375 26 227 -832
2019-03-26 12:22:25 GMT 48.880314 1.731865 10,350 26 226 -1216
2019-03-26 12:22:19 GMT 48.874603 1.727600 10,525 25 226 -1088
2019-03-26 12:22:15 GMT 48.870541 1.724564 10,550 25 226 -1088
2019-03-26 12:22:11 GMT 48.867599 1.722459 10,650 26 229 0
2019-03-26 12:22:07 GMT 48.864117 1.719866 10,700 26 227 -832
2019-03-26 12:22:04 GMT 48.856888 1.714431 10,800 26 227 -832
2019-03-26 12:21:57 GMT 48.853966 1.712277 10,850 26 228 -768
2019-03-26 12:21:52 GMT 48.849777 1.709169 11,000 26 228 -576
2019-03-26 12:21:49 GMT 48.846085 1.706473 10,950 26 228 -576
2019-03-26 12:21:41 GMT 48.838791 1.701074 11,000 25 228 0
2019-03-26 12:21:38 GMT 48.835716 1.698833 11,000 25 228 0
2019-03-26 12:21:35 GMT 48.833725 1.697317 11,000 26 229 0
2019-03-26 12:21:29 GMT 48.823792 1.689993 11,000 26 229 0
2019-03-26 12:21:25 GMT 48.823792 1.689993 11,000 26 229 0
2019-03-26 12:21:20 GMT 48.819332 1.686690 11,000 26 229 0
2019-03-26 12:21:17 GMT 48.815887 1.684161 11,000 26 229 0
2019-03-26 12:21:14 GMT 48.813606 1.682498 11,000 26 228 0
2019-03-26 12:21:10 GMT 48.803783 1.675198 11,000 26 227 0
2019-03-26 12:21:04 GMT 48.803783 1.675198 11,000 26 227 0
2019-03-26 12:21:00 GMT 48.798897 1.671584 11,000 26 227 0
2019-03-26 12:20:55 GMT 48.795685 1.669199 11,000 25 226 0
2019-03-26 12:20:52 GMT 48.792389 1.666753 11,000 25 226 0
2019-03-26 12:20:49 GMT 48.789074 1.664284 11,000 26 227 0
2019-03-26 12:20:45 GMT 48.786346 1.662316 11,000 26 227 0
2019-03-26 12:20:42 GMT 48.783581 1.660309 11,000 26 227 0
2019-03-26 12:20:38 GMT 48.778877 1.656767 11,000 26 227 0
2019-03-26 12:20:33 GMT 48.773617 1.652864 11,000 26 227 0
2019-03-26 12:20:30 GMT 48.771606 1.651400 11,000 26 227 0
2019-03-26 12:20:27 GMT 48.768814 1.649287 11,000 26 227 0
2019-03-26 12:20:24 GMT 48.766342 1.647456 11,000 26 227 0
2019-03-26 12:20:21 GMT 48.762074 1.644335 11,000 26 227 0
2019-03-26 12:20:17 GMT 48.759838 1.642601 11,000 26 227 0
2019-03-26 12:20:14 GMT 48.756626 1.640288 11,000 26 227 0
2019-03-26 12:20:09 GMT 48.752197 1.636963 11,000 26 227 0
2019-03-26 12:20:04 GMT 48.747116 1.633160 11,000 26 227 0
2019-03-26 12:20:01 GMT 48.744568 1.631325 11,000 26 227 0
2019-03-26 12:19:57 GMT 48.740799 1.628506 11,000 26 226 0
2019-03-26 12:19:53 GMT 48.736542 1.625343 11,000 26 226 0
2019-03-26 12:19:50 GMT 48.732788 1.622526 10,975 26 226 0
2019-03-26 12:19:44 GMT 48.727341 1.618511 10,975 26 226 0
2019-03-26 12:19:41 GMT 48.725018 1.616725 10,975 26 229 0
2019-03-26 12:19:37 GMT 48.721710 1.614286 11,000 26 227 0
2019-03-26 12:19:33 GMT 48.717476 1.611159 11,000 26 228 -64
2019-03-26 12:19:30 GMT 48.715008 1.609353 11,000 26 227 -64
2019-03-26 12:19:27 GMT 48.711796 1.606967 11,000 26 228 -64
2019-03-26 12:19:19 GMT 48.702297 1.599956 11,000 26 230 0
2019-03-26 12:19:11 GMT 48.696396 1.595623 10,975 26 232 0
2019-03-26 12:19:08 GMT 48.694473 1.594215 10,975 25 236 0
2019-03-26 12:18:59 GMT 48.684143 1.586657 10,975 25 245 0
2019-03-26 12:18:52 GMT 48.677628 1.581890 10,975 25 253 0
2019-03-26 12:18:49 GMT 48.674469 1.579566 10,975 25 255 0
2019-03-26 12:18:46 GMT 48.672413 1.578128 10,975 25 257 0
2019-03-26 12:18:39 GMT 48.662685 1.570973 10,975 25 266 0
2019-03-26 12:18:36 GMT 48.659683 1.568862 10,975 25 267 0
2019-03-26 12:18:30 GMT 48.654396 1.564974 10,975 25 272 -64
2019-03-26 12:18:27 GMT 48.650303 1.562010 10,975 25 276 0
2019-03-26 12:18:20 GMT 48.635880 1.551537 11,000 25 284 0
2019-03-26 12:18:15 GMT 48.635880 1.551537 11,000 25 288 0
2019-03-26 12:18:09 GMT 48.629726 1.547048 11,000 26 292 0
2019-03-26 12:18:06 GMT 48.624985 1.543509 11,000 26 296 0
2019-03-26 12:18:03 GMT 48.619389 1.539315 11,000 26 303 64
2019-03-26 12:17:58 GMT 48.615280 1.536184 10,975 27 305 128
2019-03-26 12:17:55 GMT 48.611755 1.533438 10,975 26 313 128
2019-03-26 12:17:52 GMT 48.609055 1.531436 10,975 27 310 128
2019-03-26 12:17:49 GMT 48.598999 1.523558 10,975 26 316 64
2019-03-26 12:17:45 GMT 48.598999 1.523558 10,975 28 320 0
2019-03-26 12:17:42 GMT 48.595882 1.520956 11,000 62 330 0
2019-03-26 12:17:39 GMT 48.590698 1.516113 11,000 53 328 0
2019-03-26 12:17:36 GMT 48.587643 1.512861 11,000 53 328 0
2019-03-26 12:17:33 GMT 48.582893 1.507295 11,000 39 324 0
2019-03-26 12:17:28 GMT 48.578007 1.500646 11,000 44 325 0
2019-03-26 12:17:21 GMT 48.571583 1.490382 10,975 49 326 0
2019-03-26 12:17:18 GMT 48.568130 1.483788 11,000 55 328 0
2019-03-26 12:17:12 GMT 48.562637 1.471112 11,000 61 330 0
2019-03-26 12:17:07 GMT 48.559296 1.461815 11,000 62 330 0
2019-03-26 12:17:03 GMT 48.556641 1.453998 11,000 62 330 0
2019-03-26 12:16:57 GMT 48.552429 1.441744 11,000 62 331 0
2019-03-26 12:16:51 GMT 48.547840 1.428367 11,000 62 332 0
2019-03-26 12:16:46 GMT 48.544968 1.419983 11,000 62 332 0
2019-03-26 12:16:40 GMT 48.540298 1.406461 11,000 62 332 0
2019-03-26 12:16:36 GMT 48.537132 1.397215 11,000 62 331 0
2019-03-26 12:16:32 GMT 48.534431 1.389409 11,000 62 332 0
2019-03-26 12:16:29 GMT 48.533035 1.385289 11,000 62 332 0
2019-03-26 12:16:26 GMT 48.530869 1.378925 11,000 62 332 0
2019-03-26 12:16:18 GMT 48.524982 1.361943 11,000 62 330 0
2019-03-26 12:16:14 GMT 48.517441 1.340332 11,500 61 331 0
2019-03-26 12:16:07 GMT 48.517441 1.340332 10,975 61 330 0
2019-03-26 12:16:04 GMT 48.515392 1.334694 10,975 61 331 0
2019-03-26 12:15:59 GMT 48.511322 1.323571 10,975 60 331 0
2019-03-26 12:15:54 GMT 48.503128 1.301950 11,500 59 328 -1856
2019-03-26 12:15:48 GMT 48.503128 1.301950 10,975 59 330 0
2019-03-26 12:15:45 GMT 48.500587 1.295375 10,975 59 329 -64
2019-03-26 12:15:42 GMT 48.498642 1.290471 10,975 59 329 -128
2019-03-26 12:15:36 GMT 48.493465 1.277233 11,000 59 329 -256
2019-03-26 12:15:29 GMT 48.488113 1.263639 11,075 59 327 -1216
2019-03-26 12:15:26 GMT 48.486420 1.259343 11,075 59 327 -832
2019-03-26 12:15:23 GMT 48.484131 1.253427 11,075 59 327 -832
2019-03-26 12:15:16 GMT 48.475159 1.230610 11,325 59 329 -1984
2019-03-26 12:15:06 GMT 48.470886 1.219844 11,650 59 328 -1920
2019-03-26 12:15:03 GMT 48.468155 1.212933 11,675 59 327 -1728
2019-03-26 12:14:57 GMT 48.459503 1.190960 11,875 59 336 -256
2019-03-26 12:14:52 GMT 48.459503 1.190960 11,825 59 331 0
2019-03-26 12:14:47 GMT 48.454788 1.178988 11,850 59 336 -256
2019-03-26 12:14:44 GMT 48.453186 1.174974 11,875 59 338 -384
2019-03-26 12:14:35 GMT 48.446365 1.157508 11,950 59 339 -640
2019-03-26 12:14:31 GMT 48.443420 1.149951 12,050 59 341 -1216
2019-03-26 12:14:26 GMT 48.438354 1.137085 12,150 59 342 -1280
2019-03-26 12:14:23 GMT 48.436298 1.131953 12,200 59 342 -1280
2019-03-26 12:14:19 GMT 48.433273 1.124408 12,275 59 343 -1216
2019-03-26 12:14:13 GMT 48.428291 1.111860 12,350 58 345 -1216
2019-03-26 12:14:09 GMT 48.424381 1.102030 12,500 59 345 -1408
2019-03-26 12:14:02 GMT 48.419861 1.090675 12,700 59 344 -2048
2019-03-26 12:13:59 GMT 48.416931 1.083210 12,775 59 344 -2048
2019-03-26 12:13:54 GMT 48.412975 1.073119 12,950 59 346 -1920
2019-03-26 12:13:51 GMT 48.410370 1.066469 13,050 59 346 -1856
2019-03-26 12:13:47 GMT 48.407043 1.057997 13,175 59 347 -1792
2019-03-26 12:13:43 GMT 48.404388 1.051378 13,275 59 347 -1792
2019-03-26 12:13:40 GMT 48.400772 1.042222 13,425 59 350 -1728
2019-03-26 12:13:36 GMT 48.398220 1.035751 13,500 59 350 -1728
2019-03-26 12:13:32 GMT 48.394821 1.027151 14,125 59 354 -1728
2019-03-26 12:13:29 GMT 48.392075 1.020283 13,700 59 352 -1728
2019-03-26 12:13:26 GMT 48.390213 1.015657 13,775 59 353 -1728
2019-03-26 12:13:22 GMT 48.386490 1.006165 13,900 59 354 -1792
2019-03-26 12:13:15 GMT 48.381134 0.992572 14,100 59 355 -1792
2019-03-26 12:13:12 GMT 48.377975 0.984544 14,225 59 354 -1792
2019-03-26 12:13:08 GMT 48.374634 0.976023 14,375 59 353 -1792
2019-03-26 12:13:05 GMT 48.372253 0.970107 14,425 59 353 -1792
2019-03-26 12:13:01 GMT 48.368912 0.961656 14,550 59 353 -1792
2019-03-26 12:12:58 GMT 48.366333 0.955160 14,650 59 351 -1856
2019-03-26 12:12:52 GMT 48.360901 0.941444 14,825 59 353 -1792
2019-03-26 12:12:45 GMT 48.354507 0.925237 15,075 59 352 -1792
2019-03-26 12:12:41 GMT 48.352386 0.919964 15,150 58 351 -1856
2019-03-26 12:12:37 GMT 48.348827 0.910998 15,275 58 351 -1856
2019-03-26 12:12:32 GMT 48.344559 0.900316 15,500 59 349 -1856
2019-03-26 12:12:28 GMT 48.337982 0.883893 15,675 58 349 -1792
2019-03-26 12:12:21 GMT 48.335403 0.877498 15,775 59 349 -1728
2019-03-26 12:12:16 GMT 48.332024 0.868932 15,875 59 350 -1728
2019-03-26 12:12:13 GMT 48.328392 0.859752 16,050 59 350 -1792
2019-03-26 12:12:10 GMT 48.327042 0.856428 16,050 59 350 -1792
2019-03-26 12:12:06 GMT 48.323364 0.847248 16,225 59 350 -1792
2019-03-26 12:12:03 GMT 48.320618 0.840384 16,375 59 354 -1728
2019-03-26 12:12:00 GMT 48.317963 0.833623 16,375 59 353 -1728
2019-03-26 12:11:52 GMT 48.311371 0.817214 16,625 59 356 -1792
2019-03-26 12:11:49 GMT 48.308670 0.810453 17,125 58 357 -1728
2019-03-26 12:11:43 GMT 48.303860 0.798388 16,800 58 357 -1792
2019-03-26 12:11:40 GMT 48.300926 0.791160 17,125 59 359 -1792
2019-03-26 12:11:33 GMT 48.294922 0.776199 17,400 58 365 -1856
2019-03-26 12:11:29 GMT 48.290638 0.765429 17,350 58 363 -1792
2019-03-26 12:11:23 GMT 48.286880 0.756155 17,625 58 365 -1856
2019-03-26 12:11:20 GMT 48.283703 0.748154 17,650 58 367 -1856
2019-03-26 12:11:10 GMT 48.274658 0.725802 17,925 58 367 -1856
2019-03-26 12:10:59 GMT 48.265408 0.702764 18,300 58 375 -1920
2019-03-26 12:10:52 GMT 48.259541 0.688236 18,450 58 375 -1920
2019-03-26 12:10:48 GMT 48.256142 0.679779 18,650 58 374 -1920
2019-03-26 12:10:44 GMT 48.252045 0.669516 18,725 58 375 -1920
2019-03-26 12:10:39 GMT 48.247284 0.657701 19,075 59 379 -1920
2019-03-26 12:10:31 GMT 48.240784 0.641503 19,100 59 382 -2048
2019-03-26 12:10:28 GMT 48.237568 0.633593 19,425 58 381 -2048
2019-03-26 12:10:21 GMT 48.231937 0.619499 19,650 59 383 -2112
2019-03-26 12:10:17 GMT 48.227829 0.609319 19,625 59 384 -2048
2019-03-26 12:10:09 GMT 48.220764 0.591672 19,875 59 389 -2176
2019-03-26 12:10:06 GMT 48.217644 0.583866 20,000 59 388 -2048
2019-03-26 12:09:58 GMT 48.207733 0.559176 20,425 59 390 -2176
2019-03-26 12:09:51 GMT 48.203430 0.548471 20,750 58 392 -2176
2019-03-26 12:09:47 GMT 48.197346 0.533343 20,775 58 393 -2240
2019-03-26 12:09:40 GMT 48.193680 0.524245 20,925 58 396 -2304
2019-03-26 12:09:37 GMT 48.190178 0.515635 21,200 58 396 -2304
2019-03-26 12:09:30 GMT 48.183895 0.500095 21,325 58 398 -2304
2019-03-26 12:09:25 GMT 48.174957 0.477978 21,625 58 399 -2304
2019-03-26 12:09:20 GMT 48.174957 0.477978 21,950 58 401 -2368
2019-03-26 12:09:16 GMT 48.170471 0.466849 21,850 58 400 -2304
2019-03-26 12:09:13 GMT 48.167633 0.459736 22,000 58 401 -2368
2019-03-26 12:09:06 GMT 48.160061 0.441002 22,325 58 401 -2496
2019-03-26 12:08:59 GMT 48.154770 0.427917 22,825 58 403 -2496
2019-03-26 12:08:54 GMT 48.149818 0.415790 22,825 58 403 -2496
2019-03-26 12:08:51 GMT 48.146667 0.407936 22,900 58 403 -2496
2019-03-26 12:08:47 GMT 48.142365 0.397430 23,100 58 405 -2496
2019-03-26 12:08:40 GMT 48.135899 0.381423 23,375 58 405 -2560
2019-03-26 12:08:36 GMT 48.131882 0.371613 23,550 58 405 -2560
2019-03-26 12:08:33 GMT 48.129475 0.365577 23,650 58 406 -2496
2019-03-26 12:08:29 GMT 48.124214 0.352619 23,900 58 406 -2496
2019-03-26 12:08:23 GMT 48.119659 0.341331 24,200 58 406 -2560
2019-03-26 12:08:18 GMT 48.114063 0.327618 24,325 58 408 -2560
2019-03-26 12:08:13 GMT 48.109268 0.315857 24,500 58 408 -2560
2019-03-26 12:08:08 GMT 48.101578 0.297112 25,025 58 408 -2560
2019-03-26 12:08:05 GMT 48.101578 0.297112 24,975 58 408 -2560
2019-03-26 12:08:02 GMT 48.098648 0.289833 24,975 58 408 -2560
2019-03-26 12:07:58 GMT 48.094894 0.280701 25,325 58 409 -2560
2019-03-26 12:07:54 GMT 48.091370 0.272049 25,325 58 409 -2560
2019-03-26 12:07:51 GMT 48.087433 0.262367 26,375 58 410 -2432
2019-03-26 12:07:48 GMT 48.084599 0.255362 25,825 58 411 -2368
2019-03-26 12:07:44 GMT 48.078266 0.239868 25,950 58 411 -2176
2019-03-26 12:07:37 GMT 48.074570 0.230919 26,175 58 412 -1920
2019-03-26 12:07:34 GMT 48.071228 0.222610 26,300 58 413 -1792
2019-03-26 12:07:31 GMT 48.068436 0.215813 26,300 58 414 -1600
2019-03-26 12:07:27 GMT 48.063629 0.204071 26,300 58 415 -1216
2019-03-26 12:07:24 GMT 48.055801 0.185051 26,400 58 415 -1152
2019-03-26 12:07:17 GMT 48.053501 0.179373 26,525 58 419 -1216
2019-03-26 12:07:13 GMT 48.047077 0.163739 26,600 58 416 -1088
2019-03-26 12:07:10 GMT 48.047077 0.163739 26,625 58 417 -1088
2019-03-26 12:07:03 GMT 48.039070 0.144019 26,800 58 419 -1152
2019-03-26 12:07:00 GMT 48.036942 0.138840 26,825 58 419 -1152
2019-03-26 12:06:53 GMT 48.030075 0.122086 26,950 58 421 -1216
2019-03-26 12:06:49 GMT 48.026001 0.112198 27,050 58 421 -1216
2019-03-26 12:06:42 GMT 48.018082 0.092903 27,200 58 421 -1216
2019-03-26 12:06:39 GMT 48.015560 0.086693 27,300 58 422 -1216
2019-03-26 12:06:32 GMT 48.005035 0.061180 27,450 58 423 -1216
2019-03-26 12:06:28 GMT 48.005035 0.061180 27,475 58 423 -1216
2019-03-26 12:06:21 GMT 47.996429 0.040237 27,650 58 424 -1280
2019-03-26 12:06:16 GMT 47.992191 0.030072 27,750 58 425 -1344
2019-03-26 12:06:12 GMT 47.987862 0.019578 27,850 58 425 -1344
2019-03-26 12:06:06 GMT 47.981716 0.004648 27,975 58 426 -1344
2019-03-26 12:06:02 GMT 47.977573 -0.005352 28,050 58 426 -1344
2019-03-26 12:05:56 GMT 47.972122 -0.018608 28,200 58 426 -1280
2019-03-26 12:05:51 GMT 47.966537 -0.032135 28,300 58 428 -1280
2019-03-26 12:05:48 GMT 47.962189 -0.042709 28,400 58 428 -1280
2019-03-26 12:05:45 GMT 47.960541 -0.046692 28,425 58 428 -1280
2019-03-26 12:05:41 GMT 47.956116 -0.057537 28,525 58 429 -1280
2019-03-26 12:05:38 GMT 47.952072 -0.067360 28,625 58 429 -1280
2019-03-26 12:05:34 GMT 47.948547 -0.075874 28,975 58 430 -1216
2019-03-26 12:05:30 GMT 47.939682 -0.097328 28,825 58 431 -1280
2019-03-26 12:05:25 GMT 47.934586 -0.109726 28,975 58 431 -1280
2019-03-26 12:05:21 GMT 47.930603 -0.119339 29,025 58 431 -1280
2019-03-26 12:05:12 GMT 47.921402 -0.141655 29,250 58 433 -1216
2019-03-26 12:05:08 GMT 47.921402 -0.141655 29,250 58 433 -1216
2019-03-26 12:05:04 GMT 47.913391 -0.161018 29,550 58 435 -1280
2019-03-26 12:05:00 GMT 47.913391 -0.161018 29,975 58 434 -1216
2019-03-26 12:04:57 GMT 47.906662 -0.177292 29,525 58 435 -1344
2019-03-26 12:04:54 GMT 47.902222 -0.188004 29,575 58 435 -1344
2019-03-26 12:04:49 GMT 47.902222 -0.188004 29,650 58 435 -1344
2019-03-26 12:04:46 GMT 47.899017 -0.195694 29,700 58 436 -1152
2019-03-26 12:04:43 GMT 47.895447 -0.204346 29,775 58 436 -1088
2019-03-26 12:04:39 GMT 47.891647 -0.213547 29,850 58 438 -896
2019-03-26 12:04:36 GMT 47.888443 -0.221169 29,875 58 438 -640
2019-03-26 12:04:33 GMT 47.884415 -0.230988 29,975 58 439 -576
2019-03-26 12:04:27 GMT 47.876835 -0.249235 29,975 58 440 -128
2019-03-26 12:04:22 GMT 47.872055 -0.260788 29,975 58 440 -128
2019-03-26 12:04:19 GMT 47.869492 -0.266968 29,975 58 440 -64
2019-03-26 12:04:14 GMT 47.863148 -0.282194 29,975 58 441 0
2019-03-26 12:04:11 GMT 47.861008 -0.287335 29,975 58 441 0
2019-03-26 12:04:08 GMT 47.857681 -0.295326 30,000 58 440 0
2019-03-26 12:04:02 GMT 47.850674 -0.312054 29,975 58 441 0
2019-03-26 12:03:58 GMT 47.843597 -0.329097 30,000 58 441 0
2019-03-26 12:03:55 GMT 47.839417 -0.339134 30,000 58 441 0
2019-03-26 12:03:51 GMT 47.839417 -0.339134 30,000 58 441 0
2019-03-26 12:03:48 GMT 47.836166 -0.346825 29,975 58 441 0
2019-03-26 12:03:43 GMT 47.830467 -0.360506 29,975 58 441 0
2019-03-26 12:03:40 GMT 47.828327 -0.365648 30,000 58 441 0
2019-03-26 12:03:37 GMT 47.825115 -0.373394 29,975 58 441 0
2019-03-26 12:03:30 GMT 47.813599 -0.401207 30,000 58 441 0
2019-03-26 12:03:22 GMT 47.805099 -0.421495 29,975 58 440 0
2019-03-26 12:03:19 GMT 47.805099 -0.421495 29,975 58 441 0
2019-03-26 12:03:16 GMT 47.796532 -0.441777 29,975 58 441 0
2019-03-26 12:03:11 GMT 47.792130 -0.452293 29,975 58 441 0
2019-03-26 12:03:07 GMT 47.792130 -0.452293 29,975 58 441 0
2019-03-26 12:02:58 GMT 47.782333 -0.475581 30,000 58 441 0
2019-03-26 12:02:55 GMT 47.779404 -0.482574 29,975 57 441 0
2019-03-26 12:02:52 GMT 47.776516 -0.489596 30,000 58 440 0
2019-03-26 12:02:48 GMT 47.771484 -0.501938 30,000 58 440 0
2019-03-26 12:02:45 GMT 47.769394 -0.506498 29,975 58 440 0
2019-03-26 12:02:41 GMT 47.764023 -0.519310 30,000 58 440 0
2019-03-26 12:02:36 GMT 47.755508 -0.539635 30,000 58 440 0
2019-03-26 12:02:33 GMT 47.755508 -0.539635 30,000 58 440 0
2019-03-26 12:02:30 GMT 47.751663 -0.548698 30,000 57 440 0
2019-03-26 12:02:27 GMT 47.748955 -0.555232 30,000 58 440 0
2019-03-26 12:02:24 GMT 47.746262 -0.561539 30,000 58 440 0
2019-03-26 12:02:20 GMT 47.741501 -0.572800 30,000 58 440 0
2019-03-26 12:02:16 GMT 47.733078 -0.592850 30,000 58 440 0
2019-03-26 12:02:12 GMT 47.733078 -0.592850 29,975 57 441 0
2019-03-26 12:02:08 GMT 47.728821 -0.602943 30,000 58 440 0
2019-03-26 12:02:05 GMT 47.725494 -0.610938 29,975 57 440 0
2019-03-26 12:01:59 GMT 47.719528 -0.624985 30,000 57 440 0
2019-03-26 12:01:55 GMT 47.713810 -0.638545 30,000 57 440 0
2019-03-26 12:01:46 GMT 47.705704 -0.657669 30,000 57 440 0
2019-03-26 12:01:43 GMT 47.701859 -0.666801 29,975 57 440 0
2019-03-26 12:01:36 GMT 47.694031 -0.685204 30,000 58 440 0
2019-03-26 12:01:32 GMT 47.685970 -0.704463 30,000 57 441 0
2019-03-26 12:01:28 GMT 47.685970 -0.704463 29,975 58 440 0
2019-03-26 12:01:25 GMT 47.682404 -0.712875 29,975 58 440 0
2019-03-26 12:01:21 GMT 47.678429 -0.722351 30,000 57 441 0
2019-03-26 12:01:16 GMT 47.672611 -0.736154 30,000 57 441 0
2019-03-26 12:01:11 GMT 47.666245 -0.751122 30,000 57 441 0
2019-03-26 12:01:05 GMT 47.660614 -0.764442 30,000 57 441 0
2019-03-26 12:01:01 GMT 47.656784 -0.773550 29,975 57 441 0
2019-03-26 12:00:56 GMT 47.650497 -0.788339 30,000 57 441 0
2019-03-26 12:00:50 GMT 47.645004 -0.801227 30,000 57 441 0
2019-03-26 12:00:46 GMT 47.640793 -0.811272 30,000 57 441 0
2019-03-26 12:00:41 GMT 47.634018 -0.827214 29,975 57 440 0
2019-03-26 12:00:35 GMT 47.628571 -0.840032 29,975 57 440 0
2019-03-26 12:00:30 GMT 47.622940 -0.853500 30,000 57 440 0
2019-03-26 12:00:25 GMT 47.617584 -0.865948 29,975 57 440 0
2019-03-26 12:00:19 GMT 47.611534 -0.880033 29,975 57 440 0
2019-03-26 12:00:15 GMT 47.605667 -0.893907 29,975 57 440 0
2019-03-26 12:00:09 GMT 47.600037 -0.907217 29,975 57 440 0
2019-03-26 12:00:03 GMT 47.594028 -0.921302 29,975 57 441 0
2019-03-26 11:59:58 GMT 47.588074 -0.935246 29,975 57 441 0
2019-03-26 11:59:54 GMT 47.583740 -0.945388 30,000 57 441 0
2019-03-26 11:59:49 GMT 47.577690 -0.959684 30,000 57 441 0
2019-03-26 11:59:42 GMT 47.571259 -0.974762 30,000 57 441 0
2019-03-26 11:59:38 GMT 47.566498 -0.986160 30,000 57 441 0
2019-03-26 11:59:34 GMT 47.560745 -0.999545 30,000 57 441 0
2019-03-26 11:59:28 GMT 47.555763 -1.011376 29,975 57 442 0
2019-03-26 11:59:22 GMT 47.549606 -1.025917 29,975 58 442 0
2019-03-26 11:59:18 GMT 47.544079 -1.038983 30,000 57 442 0
2019-03-26 11:59:12 GMT 47.539032 -1.050842 29,975 58 442 0
2019-03-26 11:59:07 GMT 47.532627 -1.065956 30,000 58 442 0
2019-03-26 11:59:02 GMT 47.527954 -1.076935 29,975 57 442 0
2019-03-26 11:58:59 GMT 47.524704 -1.084831 29,975 57 442 0
2019-03-26 11:58:56 GMT 47.520336 -1.094759 29,975 57 442 0
2019-03-26 11:58:52 GMT 47.516476 -1.103774 29,975 57 442 0
2019-03-26 11:58:45 GMT 47.506165 -1.129189 30,000 60 443 0
2019-03-26 11:58:42 GMT 47.506165 -1.129189 30,000 61 443 0
2019-03-26 11:58:34 GMT 47.498363 -1.151029 29,975 63 444 0
2019-03-26 11:58:31 GMT 47.496094 -1.157959 30,000 64 445 0
2019-03-26 11:58:24 GMT 47.489731 -1.178284 30,000 67 445 0
2019-03-26 11:58:21 GMT 47.487518 -1.186030 30,000 67 445 0
2019-03-26 11:58:14 GMT 47.482132 -1.205887 30,000 69 446 0
2019-03-26 11:58:11 GMT 47.479752 -1.215363 30,000 70 446 0
2019-03-26 11:58:04 GMT 47.475277 -1.235117 30,000 72 447 0
2019-03-26 11:58:01 GMT 47.473206 -1.245163 29,975 74 447 0
2019-03-26 11:57:53 GMT 47.467712 -1.276543 30,000 76 448 0
2019-03-26 11:57:43 GMT 47.464325 -1.296936 30,000 76 447 0
2019-03-26 11:57:40 GMT 47.462677 -1.306961 30,000 76 447 0
2019-03-26 11:57:33 GMT 47.457867 -1.336459 30,000 76 447 0
2019-03-26 11:57:30 GMT 47.457867 -1.336459 30,000 76 447 0
2019-03-26 11:57:22 GMT 47.454117 -1.358665 29,975 76 447 0
2019-03-26 11:57:17 GMT 47.451462 -1.375214 29,975 76 447 0
2019-03-26 11:57:14 GMT 47.450180 -1.382561 29,975 76 447 0
2019-03-26 11:57:11 GMT 47.448322 -1.393644 30,000 76 447 0
2019-03-26 11:57:03 GMT 47.444412 -1.417166 29,975 76 447 0
2019-03-26 11:57:00 GMT 47.443153 -1.424842 29,975 76 447 0
2019-03-26 11:56:57 GMT 47.441986 -1.431999 29,975 76 447 0
2019-03-26 11:56:50 GMT 47.438034 -1.455688 29,975 76 446 0
2019-03-26 11:56:47 GMT 47.436676 -1.463722 29,975 76 446 0
2019-03-26 11:56:42 GMT 47.434216 -1.478718 29,975 76 445 0
2019-03-26 11:56:38 GMT 47.432419 -1.489471 29,975 76 445 0
2019-03-26 11:56:35 GMT 47.429329 -1.507874 29,975 76 444 0
2019-03-26 11:56:32 GMT 47.429329 -1.507874 29,975 76 444 0
2019-03-26 11:56:28 GMT 47.427422 -1.519212 29,975 76 443 0
2019-03-26 11:56:24 GMT 47.425827 -1.529160 29,975 76 442 0
2019-03-26 11:56:20 GMT 47.423676 -1.541862 29,975 76 441 0
2019-03-26 11:56:16 GMT 47.421646 -1.554072 29,975 76 438 0
2019-03-26 11:56:12 GMT 47.419228 -1.568721 30,000 75 432 0
2019-03-26 11:56:09 GMT 47.417923 -1.576045 30,000 76 431 0
2019-03-26 11:56:06 GMT 47.416718 -1.583473 30,000 76 435 0
2019-03-26 11:56:01 GMT 47.414337 -1.597412 30,000 75 428 0
2019-03-26 11:55:58 GMT 47.412849 -1.606328 30,000 76 430 0
2019-03-26 11:55:55 GMT 47.411407 -1.614853 30,000 76 419 0
2019-03-26 11:55:50 GMT 47.406601 -1.643143 30,000 76 424 0
2019-03-26 11:55:45 GMT 47.406601 -1.643143 30,000 76 420 0
2019-03-26 11:55:41 GMT 47.404633 -1.654953 30,000 76 419 0
2019-03-26 11:55:36 GMT 47.401257 -1.674992 29,975 76 418 0
2019-03-26 11:55:30 GMT 47.399551 -1.685234 29,975 76 418 0
2019-03-26 11:55:26 GMT 47.397720 -1.695877 30,000 76 418 0
2019-03-26 11:55:23 GMT 47.396622 -1.702400 30,000 75 418 0
2019-03-26 11:55:20 GMT 47.395020 -1.711876 29,975 75 418 0
2019-03-26 11:55:16 GMT 47.393005 -1.724030 30,000 75 418 0
2019-03-26 11:55:13 GMT 47.391312 -1.733643 29,975 75 418 0
2019-03-26 11:55:10 GMT 47.390076 -1.740990 29,975 75 418 0
2019-03-26 11:55:05 GMT 47.388130 -1.752601 30,000 75 418 0
2019-03-26 11:55:02 GMT 47.386185 -1.763786 30,000 75 418 0
2019-03-26 11:54:59 GMT 47.385151 -1.769996 30,000 75 418 0
2019-03-26 11:54:54 GMT 47.383072 -1.782257 29,975 75 418 0
2019-03-26 11:54:51 GMT 47.381474 -1.791617 29,975 75 418 0
2019-03-26 11:54:48 GMT 47.380215 -1.798870 30,000 75 418 0
2019-03-26 11:54:45 GMT 47.376343 -1.821533 29,975 75 418 0
2019-03-26 11:54:40 GMT 47.376343 -1.821533 30,000 75 418 0
2019-03-26 11:54:37 GMT 47.374832 -1.830528 30,000 75 418 0
2019-03-26 11:54:34 GMT 47.373276 -1.839661 29,975 75 418 0
2019-03-26 11:54:29 GMT 47.370392 -1.856689 30,000 75 417 0
2019-03-26 11:54:26 GMT 47.369751 -1.860672 30,000 75 417 0
2019-03-26 11:54:23 GMT 47.368530 -1.867746 29,975 75 417 0
2019-03-26 11:54:18 GMT 47.365768 -1.883675 30,000 75 418 0
2019-03-26 11:54:15 GMT 47.364666 -1.890564 29,975 75 417 0
2019-03-26 11:54:11 GMT 47.362946 -1.900564 29,975 75 418 0
2019-03-26 11:54:08 GMT 47.360756 -1.913100 29,975 75 418 0
2019-03-26 11:54:05 GMT 47.359772 -1.919037 29,975 75 418 0
2019-03-26 11:54:02 GMT 47.358353 -1.927208 29,975 75 418 0
2019-03-26 11:53:57 GMT 47.356018 -1.941147 30,000 75 418 0
2019-03-26 11:53:54 GMT 47.354565 -1.949228 30,000 75 418 0
2019-03-26 11:53:50 GMT 47.352749 -1.959792 30,000 75 418 0
2019-03-26 11:53:46 GMT 47.350842 -1.970919 29,975 75 418 0
2019-03-26 11:53:43 GMT 47.349655 -1.977814 30,000 75 418 0
2019-03-26 11:53:39 GMT 47.347549 -1.990242 30,000 75 418 0
2019-03-26 11:53:36 GMT 47.345901 -1.999580 30,000 75 418 0
2019-03-26 11:53:30 GMT 47.342739 -2.017893 29,975 75 418 0
2019-03-26 11:53:25 GMT 47.339355 -2.037689 30,000 75 418 0
2019-03-26 11:53:22 GMT 47.339355 -2.037689 29,975 75 418 0
2019-03-26 11:53:19 GMT 47.335739 -2.058426 29,975 75 418 0
2019-03-26 11:53:15 GMT 47.335739 -2.058426 30,000 75 418 0
2019-03-26 11:53:10 GMT 47.330887 -2.086441 30,000 75 418 0
2019-03-26 11:53:04 GMT 47.330887 -2.086441 30,000 75 418 0
2019-03-26 11:53:00 GMT 47.329006 -2.097262 29,975 75 418 0
2019-03-26 11:52:57 GMT 47.327377 -2.106910 30,000 75 418 0
2019-03-26 11:52:54 GMT 47.325981 -2.115150 30,000 75 418 0
2019-03-26 11:52:51 GMT 47.324478 -2.123863 30,000 75 418 0
2019-03-26 11:52:47 GMT 47.322189 -2.136978 30,000 75 418 0
2019-03-26 11:52:43 GMT 47.321049 -2.143672 30,000 75 418 0
2019-03-26 11:52:39 GMT 47.319168 -2.154419 30,000 75 419 0
2019-03-26 11:52:34 GMT 47.315975 -2.173039 30,000 75 418 0
2019-03-26 11:52:29 GMT 47.314087 -2.183945 29,975 75 418 0
2019-03-26 11:52:25 GMT 47.312485 -2.193146 30,000 75 418 0
2019-03-26 11:52:21 GMT 47.310196 -2.206123 30,000 75 418 0
2019-03-26 11:52:17 GMT 47.308456 -2.216217 29,975 75 418 0
2019-03-26 11:52:12 GMT 47.306011 -2.230013 29,975 75 418 0
2019-03-26 11:52:05 GMT 47.302597 -2.249725 29,975 75 418 0
2019-03-26 11:52:01 GMT 47.300949 -2.259407 29,975 75 418 0
2019-03-26 11:51:54 GMT 47.297539 -2.278748 29,975 75 418 0
2019-03-26 11:51:51 GMT 47.295818 -2.288678 29,975 75 418 0
2019-03-26 11:51:47 GMT 47.293854 -2.300056 29,975 75 418 0
2019-03-26 11:51:44 GMT 47.292755 -2.306374 29,975 75 418 0
2019-03-26 11:51:40 GMT 47.290836 -2.317341 29,975 75 418 0
2019-03-26 11:51:35 GMT 47.288509 -2.330510 29,975 75 418 0
2019-03-26 11:51:32 GMT 47.286575 -2.341736 29,975 75 418 0
2019-03-26 11:51:23 GMT 47.282410 -2.365652 30,000 75 418 0
2019-03-26 11:51:20 GMT 47.280441 -2.376686 29,975 75 418 0
2019-03-26 11:51:14 GMT 47.277786 -2.391586 30,000 75 418 0
2019-03-26 11:51:10 GMT 47.275986 -2.401921 29,975 75 418 0
2019-03-26 11:51:04 GMT 47.273117 -2.418159 29,975 75 418 0
2019-03-26 11:51:01 GMT 47.271194 -2.429146 29,975 75 418 0
2019-03-26 11:50:53 GMT 47.268211 -2.446007 30,000 75 418 0
2019-03-26 11:50:50 GMT 47.262764 -2.476713 30,000 75 418 0
2019-03-26 11:50:43 GMT 47.262764 -2.476713 29,975 75 418 0
2019-03-26 11:50:37 GMT 47.259521 -2.495064 30,000 75 418 0
2019-03-26 11:50:32 GMT 47.257786 -2.504672 29,975 75 418 0
2019-03-26 11:50:29 GMT 47.256248 -2.513475 30,000 75 418 0
2019-03-26 11:50:26 GMT 47.254990 -2.520950 30,000 75 418 0
2019-03-26 11:50:22 GMT 47.252708 -2.533475 29,975 75 418 0
2019-03-26 11:50:18 GMT 47.251080 -2.542701 30,000 75 418 0
2019-03-26 11:50:15 GMT 47.249542 -2.551437 30,000 75 418 0
2019-03-26 11:50:09 GMT 47.246109 -2.570869 30,000 75 418 0
2019-03-26 11:50:01 GMT 47.242748 -2.589816 30,000 75 417 0
2019-03-26 11:49:58 GMT 47.241028 -2.599365 30,000 75 417 0
2019-03-26 11:49:54 GMT 47.239334 -2.609253 30,000 75 417 0
2019-03-26 11:49:51 GMT 47.237732 -2.618111 30,000 75 417 0
2019-03-26 11:49:48 GMT 47.236092 -2.627141 30,000 75 417 0
2019-03-26 11:49:44 GMT 47.234322 -2.637141 29,975 75 417 0
2019-03-26 11:49:40 GMT 47.232376 -2.648186 29,975 75 417 0
2019-03-26 11:49:37 GMT 47.231201 -2.654818 30,000 75 417 0
2019-03-26 11:49:30 GMT 47.227337 -2.676227 30,000 75 417 0
2019-03-26 11:49:25 GMT 47.224918 -2.690031 30,000 75 417 0
2019-03-26 11:49:20 GMT 47.222542 -2.703130 30,000 75 417 0
2019-03-26 11:49:17 GMT 47.221115 -2.711220 29,975 75 417 0
2019-03-26 11:49:10 GMT 47.217609 -2.730596 29,975 75 417 0
2019-03-26 11:49:06 GMT 47.215652 -2.741582 29,975 75 417 0
2019-03-26 11:49:01 GMT 47.213562 -2.753380 29,975 75 417 0
2019-03-26 11:48:58 GMT 47.211884 -2.762428 29,975 75 417 0
2019-03-26 11:48:55 GMT 47.210358 -2.770889 29,975 75 417 0
2019-03-26 11:48:51 GMT 47.208298 -2.782288 29,975 75 417 0
2019-03-26 11:48:48 GMT 47.204762 -2.801866 29,975 75 418 0
2019-03-26 11:48:44 GMT 47.204762 -2.801866 30,000 75 417 0
2019-03-26 11:48:38 GMT 47.201874 -2.817782 29,975 75 418 0
2019-03-26 11:48:34 GMT 47.200104 -2.827881 29,975 75 418 0
2019-03-26 11:48:28 GMT 47.196671 -2.847107 30,000 75 418 0
2019-03-26 11:48:24 GMT 47.194893 -2.856727 29,975 75 418 0
2019-03-26 11:48:18 GMT 47.192051 -2.872643 30,000 75 418 0
2019-03-26 11:48:12 GMT 47.189346 -2.887756 30,000 75 418 0
2019-03-26 11:48:07 GMT 47.186554 -2.903137 30,000 75 418 0
2019-03-26 11:48:02 GMT 47.184139 -2.916588 29,975 75 418 0
2019-03-26 11:47:58 GMT 47.181995 -2.928138 30,000 75 419 0
2019-03-26 11:47:54 GMT 47.180367 -2.937434 29,975 75 419 0
2019-03-26 11:47:51 GMT 47.178589 -2.947014 30,000 75 419 0
2019-03-26 11:47:47 GMT 47.176552 -2.958280 30,000 75 419 0
2019-03-26 11:47:44 GMT 47.174782 -2.968140 29,975 75 419 0
2019-03-26 11:47:37 GMT 47.171951 -2.983749 29,975 75 419 0
2019-03-26 11:47:33 GMT 47.169662 -2.996384 29,975 75 418 0
2019-03-26 11:47:30 GMT 47.168152 -3.004623 30,000 75 418 0
2019-03-26 11:47:26 GMT 47.166367 -3.014442 30,000 75 418 0
2019-03-26 11:47:22 GMT 47.164215 -3.026240 30,000 75 418 0
2019-03-26 11:47:18 GMT 47.162445 -3.036100 30,000 75 418 0
2019-03-26 11:47:13 GMT 47.159775 -3.050629 29,975 75 418 0
2019-03-26 11:47:06 GMT 47.155792 -3.072533 29,975 75 418 0
2019-03-26 11:47:00 GMT 47.153133 -3.087017 29,975 75 418 0
2019-03-26 11:46:55 GMT 47.150665 -3.100479 29,975 75 418 0
2019-03-26 11:46:52 GMT 47.148804 -3.110539 29,975 75 418 0
2019-03-26 11:46:46 GMT 47.146271 -3.124512 29,975 74 418 0
2019-03-26 11:46:43 GMT 47.145035 -3.131385 30,000 74 418 0
2019-03-26 11:46:40 GMT 47.143078 -3.142301 30,000 74 418 0
2019-03-26 11:46:34 GMT 47.140457 -3.156235 29,975 74 418 0
2019-03-26 11:46:31 GMT 47.138470 -3.166950 29,975 74 418 0
2019-03-26 11:46:25 GMT 47.135788 -3.181503 29,975 74 418 0
2019-03-26 11:46:20 GMT 47.133163 -3.195895 29,975 74 418 0
2019-03-26 11:46:12 GMT 47.128464 -3.221329 29,975 74 418 0
2019-03-26 11:46:09 GMT 47.127777 -3.225174 29,975 74 418 0
2019-03-26 11:46:04 GMT 47.124783 -3.241248 29,975 74 418 0
2019-03-26 11:46:00 GMT 47.123108 -3.250305 29,975 74 418 0
2019-03-26 11:45:52 GMT 47.117569 -3.280123 29,975 74 418 0
2019-03-26 11:45:43 GMT 47.114357 -3.297589 30,000 74 418 0
2019-03-26 11:45:39 GMT 47.111702 -3.311815 30,000 74 418 0
2019-03-26 11:45:32 GMT 47.108768 -3.327660 30,000 74 418 0
2019-03-26 11:45:28 GMT 47.106995 -3.337234 30,000 74 418 0
2019-03-26 11:45:19 GMT 47.101879 -3.364915 30,000 74 418 0
2019-03-26 11:45:11 GMT 47.098526 -3.383240 30,000 74 418 0
2019-03-26 11:45:08 GMT 47.096695 -3.393059 30,000 74 418 0
2019-03-26 11:45:01 GMT 47.093033 -3.412766 30,000 74 418 0
2019-03-26 11:44:56 GMT 47.089783 -3.430206 30,000 74 418 0
2019-03-26 11:44:48 GMT 47.085960 -3.450763 29,975 74 418 0
2019-03-26 11:44:44 GMT 47.084049 -3.461116 29,975 74 418 0
2019-03-26 11:44:41 GMT 47.083099 -3.466324 30,000 74 418 0
2019-03-26 11:44:37 GMT 47.080948 -3.477791 29,975 74 418 0
2019-03-26 11:44:34 GMT 47.079441 -3.485694 29,975 74 418 0
2019-03-26 11:44:31 GMT 47.077721 -3.494990 30,000 74 418 0
2019-03-26 11:44:24 GMT 47.074310 -3.513290 30,000 74 418 0
2019-03-26 11:44:21 GMT 47.072754 -3.521461 30,000 74 418 0
2019-03-26 11:44:16 GMT 47.070179 -3.535344 30,000 74 418 0
2019-03-26 11:44:12 GMT 47.068359 -3.544876 30,000 74 418 0
2019-03-26 11:44:07 GMT 47.065521 -3.560188 29,975 74 418 0
2019-03-26 11:44:03 GMT 47.061844 -3.579782 30,000 74 418 0
2019-03-26 11:43:56 GMT 47.059937 -3.589920 29,975 74 418 0
2019-03-26 11:43:53 GMT 47.058701 -3.596443 29,975 74 418 0
2019-03-26 11:43:43 GMT 47.053207 -3.625900 30,000 74 418 0
2019-03-26 11:43:39 GMT 47.051651 -3.634071 29,975 74 418 0
2019-03-26 11:43:35 GMT 47.049137 -3.647391 30,000 74 418 0
2019-03-26 11:43:30 GMT 47.046936 -3.659134 30,000 74 418 0
2019-03-26 11:43:22 GMT 47.042221 -3.684196 29,975 74 417 0
2019-03-26 11:43:15 GMT 47.039127 -3.700843 29,975 74 418 0
2019-03-26 11:43:12 GMT 47.037498 -3.709576 30,000 74 418 0
2019-03-26 11:43:08 GMT 47.033077 -3.732957 30,000 74 417 0
2019-03-26 11:43:03 GMT 47.033077 -3.732957 30,000 74 418 0
2019-03-26 11:42:59 GMT 47.031052 -3.743591 30,000 74 417 0
2019-03-26 11:42:52 GMT 47.027161 -3.764259 30,000 74 417 0
2019-03-26 11:42:49 GMT 47.025604 -3.772430 29,975 74 417 0
2019-03-26 11:42:43 GMT 47.022583 -3.788155 30,000 74 417 0
2019-03-26 11:42:31 GMT 47.016724 -3.819122 30,000 74 417 0
2019-03-26 11:42:25 GMT 47.010590 -3.851189 30,000 74 417 0
2019-03-26 11:42:20 GMT 47.010590 -3.851189 29,975 74 417 0
2019-03-26 11:42:15 GMT 47.008263 -3.863455 30,000 74 417 0
2019-03-26 11:42:12 GMT 47.006401 -3.873174 30,000 74 417 0
2019-03-26 11:42:06 GMT 47.003540 -3.888130 29,975 74 417 0
2019-03-26 11:42:02 GMT 47.000771 -3.902541 30,000 74 417 0
2019-03-26 11:41:55 GMT 46.997974 -3.917189 30,000 74 417 0
2019-03-26 11:41:51 GMT 46.995621 -3.929398 29,975 74 417 0
2019-03-26 11:41:39 GMT 46.989319 -3.962261 30,000 74 417 0
2019-03-26 11:41:34 GMT 46.986710 -3.975854 30,000 74 417 0
2019-03-26 11:41:31 GMT 46.984772 -3.985840 29,975 74 417 0
2019-03-26 11:41:20 GMT 46.979542 -4.013320 30,000 74 417 0
2019-03-26 11:41:17 GMT 46.977905 -4.021683 29,975 74 417 0
2019-03-26 11:41:12 GMT 46.975616 -4.033630 30,000 74 417 0
2019-03-26 11:41:09 GMT 46.973831 -4.042900 29,975 74 417 0
2019-03-26 11:41:02 GMT 46.970043 -4.062688 30,000 74 417 0
2019-03-26 11:40:58 GMT 46.963154 -4.098534 30,000 74 417 0
2019-03-26 11:40:49 GMT 46.963154 -4.098534 30,000 74 417 0
2019-03-26 11:40:38 GMT 46.957764 -4.126465 30,000 74 417 0
2019-03-26 11:40:28 GMT 46.952179 -4.155235 29,975 74 418 0
2019-03-26 11:40:18 GMT 46.946915 -4.182426 29,975 74 418 0
2019-03-26 11:40:06 GMT 46.940529 -4.215299 29,975 74 418 0
2019-03-26 11:39:57 GMT 46.936066 -4.238388 29,975 74 418 0
2019-03-26 11:39:47 GMT 46.930573 -4.266609 29,975 74 418 0
2019-03-26 11:39:40 GMT 46.926846 -4.285936 29,975 74 418 0
2019-03-26 11:39:36 GMT 46.918945 -4.326416 29,975 74 419 0
2019-03-26 11:39:25 GMT 46.918945 -4.326416 29,975 73 419 0
2019-03-26 11:39:15 GMT 46.913811 -4.352769 29,975 73 419 0
2019-03-26 11:39:03 GMT 46.907547 -4.384575 29,975 73 419 0
2019-03-26 11:38:53 GMT 46.902008 -4.412865 30,000 73 419 0
2019-03-26 11:38:42 GMT 46.896072 -4.443054 30,000 73 420 0
2019-03-26 11:38:33 GMT 46.891464 -4.466506 30,000 73 420 0
2019-03-26 11:38:29 GMT 46.889557 -4.476295 29,975 73 420 0
2019-03-26 11:38:22 GMT 46.884888 -4.499931 30,000 73 420 0
2019-03-26 11:38:19 GMT 46.884018 -4.504326 29,975 73 420 0
2019-03-26 11:38:09 GMT 46.878754 -4.531227 29,975 73 420 0
2019-03-26 11:38:03 GMT 46.874954 -4.550537 30,000 73 420 0
2019-03-26 11:37:58 GMT 46.872608 -4.562214 30,000 73 419 0
2019-03-26 11:37:51 GMT 46.868233 -4.584538 30,000 73 419 0
2019-03-26 11:37:38 GMT 46.861816 -4.616803 29,975 73 419 0
2019-03-26 11:37:29 GMT 46.856827 -4.641791 30,000 73 419 0
2019-03-26 11:37:21 GMT 46.852753 -4.662423 29,975 73 419 0
2019-03-26 11:37:17 GMT 46.850372 -4.674348 30,000 73 419 0
2019-03-26 11:37:11 GMT 46.846802 -4.692234 29,975 73 419 0
2019-03-26 11:37:00 GMT 46.841171 -4.720437 30,000 73 419 0
2019-03-26 11:36:56 GMT 46.839279 -4.729958 30,000 73 419 0
2019-03-26 11:36:49 GMT 46.835602 -4.748360 29,975 73 419 0
2019-03-26 11:36:44 GMT 46.832657 -4.763310 30,000 73 419 0
2019-03-26 11:36:39 GMT 46.830109 -4.776031 30,000 73 419 0
2019-03-26 11:36:32 GMT 46.826385 -4.794728 29,975 73 419 0
2019-03-26 11:36:28 GMT 46.824326 -4.805045 29,975 73 419 0
2019-03-26 11:36:18 GMT 46.818748 -4.832954 29,975 73 418 0
2019-03-26 11:36:08 GMT 46.812977 -4.861656 29,975 73 418 0
2019-03-26 11:35:56 GMT 46.806976 -4.891663 30,000 73 418 0
2019-03-26 11:35:52 GMT 46.804688 -4.902984 29,975 73 418 0
2019-03-26 11:35:47 GMT 46.801849 -4.917052 30,000 73 418 0
2019-03-26 11:35:41 GMT 46.798599 -4.933263 30,000 73 418 0
2019-03-26 11:35:37 GMT 46.795708 -4.947624 29,975 73 418 0
2019-03-26 11:35:25 GMT 46.789993 -4.976003 30,000 73 418 0
2019-03-26 11:35:19 GMT 46.786533 -4.993011 29,975 73 418 0
2019-03-26 11:35:15 GMT 46.784580 -5.002693 29,975 73 418 0
2019-03-26 11:35:09 GMT 46.780884 -5.020819 29,975 73 418 0
2019-03-26 11:35:05 GMT 46.778854 -5.030777 29,975 73 418 0
2019-03-26 11:35:00 GMT 46.776012 -5.044853 29,975 73 418 0
2019-03-26 11:34:55 GMT 46.773331 -5.058065 30,000 73 418 0
2019-03-26 11:34:49 GMT 46.770008 -5.074516 30,000 73 418 0
2019-03-26 11:34:44 GMT 46.767357 -5.087494 30,000 73 419 0
2019-03-26 11:34:34 GMT 46.761768 -5.115028 30,000 73 418 0
2019-03-26 11:34:27 GMT 46.758224 -5.132558 30,000 73 418 0
2019-03-26 11:34:24 GMT 46.756165 -5.142807 30,000 73 418 0
2019-03-26 11:34:17 GMT 46.752926 -5.158699 29,975 73 418 0
2019-03-26 11:34:13 GMT 46.750580 -5.170340 30,000 73 418 0
2019-03-26 11:34:06 GMT 46.746872 -5.188362 30,000 73 418 0
2019-03-26 11:34:03 GMT 46.744686 -5.199211 29,975 73 418 0
2019-03-26 11:33:52 GMT 46.739098 -5.226677 30,000 73 418 0
2019-03-26 11:33:42 GMT 46.733322 -5.254948 29,975 73 418 0
2019-03-26 11:33:32 GMT 46.727783 -5.281878 29,975 73 417 0
2019-03-26 11:33:22 GMT 46.722153 -5.309277 30,000 73 417 0
2019-03-26 11:33:10 GMT 46.715973 -5.339355 29,975 73 415 0
2019-03-26 11:33:01 GMT 46.710564 -5.365723 29,975 73 412 0
2019-03-26 11:32:50 GMT 46.704929 -5.393188 29,975 73 408 0
2019-03-26 11:32:40 GMT 46.699203 -5.420860 30,000 73 403 0
2019-03-26 11:32:30 GMT 46.693897 -5.446541 30,000 73 373 0
2019-03-26 11:32:18 GMT 46.688141 -5.474407 30,000 73 373 0
2019-03-26 11:32:09 GMT 46.683002 -5.499207 29,975 73 377 0
2019-03-26 11:31:57 GMT 46.672112 -5.551598 30,000 73 373 0
2019-03-26 11:31:47 GMT 46.672112 -5.551598 30,000 73 373 0
2019-03-26 11:31:38 GMT 46.667828 -5.572334 30,000 73 372 0
2019-03-26 11:31:28 GMT 46.662643 -5.596931 30,000 73 373 0
2019-03-26 11:31:15 GMT 46.656513 -5.626511 30,000 73 373 0
2019-03-26 11:31:06 GMT 46.651886 -5.648714 30,000 73 373 0
2019-03-26 11:30:55 GMT 46.646412 -5.674713 29,975 73 372 0
2019-03-26 11:30:18 GMT 46.627808 -5.763468 30,000 72 372 0
2019-03-26 11:30:11 GMT 46.623837 -5.782310 30,000 72 372 0
2019-03-26 11:29:54 GMT 46.615734 -5.821037 29,975 72 372 0
2019-03-26 11:29:46 GMT 46.611145 -5.842717 30,000 72 372 0
2019-03-26 11:29:37 GMT 46.607262 -5.861137 29,975 72 372 0
2019-03-26 11:29:32 GMT 46.604416 -5.874738 30,000 72 372 0
2019-03-26 11:29:21 GMT 46.599209 -5.899315 29,975 72 372 0
2019-03-26 11:28:59 GMT 46.587990 -5.952255 30,000 72 372 0
2019-03-26 11:28:43 GMT 46.579605 -5.991635 29,975 72 372 0
2019-03-26 11:28:33 GMT 46.574818 -6.014259 30,000 72 371 0
2019-03-26 11:28:12 GMT 46.564041 -6.064989 30,000 72 371 0
2019-03-26 11:28:08 GMT 46.562061 -6.074272 29,975 72 371 0
2019-03-26 11:26:41 GMT 46.517944 -6.280495 30,000 72 370 0
2019-03-26 11:26:13 GMT 46.503983 -6.345274 29,975 72 370 0
2019-03-26 11:25:52 GMT 46.492767 -6.396723 30,000 72 369 0
2019-03-26 11:25:37 GMT 46.485077 -6.432093 30,000 72 369 0
2019-03-26 11:25:32 GMT 46.482559 -6.443883 30,000 72 369 0
2019-03-26 11:24:41 GMT 46.456238 -6.564934 30,000 72 369 0
We lost coverage of the aircraft here for a total of 64 minutes
2019-03-26 10:20:52 GMT 46.387115 -6.556091 34,000 250 513 0
2019-03-26 10:20:46 GMT 46.392792 -6.534253 34,000 250 513 0
2019-03-26 10:20:36 GMT 46.400383 -6.505074 33,975 250 513 0
2019-03-26 10:20:26 GMT 46.408997 -6.472019 33,975 250 513 0
2019-03-26 10:20:13 GMT 46.419800 -6.430284 33,975 250 512 0
2019-03-26 10:17:39 GMT 46.546978 -5.933235 33,975 250 512 0
2019-03-26 10:17:28 GMT 46.555161 -5.900730 34,000 250 512 0
2019-03-26 10:17:21 GMT 46.560944 -5.877892 34,000 250 512 0
2019-03-26 10:17:09 GMT 46.570953 -5.838229 33,975 250 512 0
2019-03-26 10:17:01 GMT 46.577271 -5.813107 34,000 251 511 0
2019-03-26 10:16:50 GMT 46.586269 -5.777298 33,975 251 512 0
2019-03-26 10:16:40 GMT 46.593796 -5.747256 33,975 251 512 0
2019-03-26 10:16:30 GMT 46.602173 -5.713695 33,975 251 512 0
2019-03-26 10:16:18 GMT 46.611877 -5.674974 34,000 251 512 0
2019-03-26 10:16:10 GMT 46.619293 -5.645231 34,000 251 512 0
2019-03-26 10:15:58 GMT 46.627899 -5.610999 33,975 251 512 0
2019-03-26 10:15:48 GMT 46.635956 -5.578710 33,975 251 512 0
2019-03-26 10:15:38 GMT 46.644409 -5.544800 34,000 251 512 0
2019-03-26 10:15:27 GMT 46.652664 -5.511519 34,000 251 512 0
2019-03-26 10:15:17 GMT 46.660938 -5.478195 34,000 251 512 0
2019-03-26 10:15:07 GMT 46.669052 -5.445534 33,975 251 512 0
2019-03-26 10:14:56 GMT 46.677521 -5.411236 33,975 251 512 0
2019-03-26 10:14:44 GMT 46.687729 -5.369836 34,000 251 512 0
2019-03-26 10:14:35 GMT 46.694092 -5.343978 33,975 251 511 0
2019-03-26 10:14:25 GMT 46.702377 -5.310349 34,000 251 511 0
2019-03-26 10:14:14 GMT 46.711121 -5.274777 34,000 251 510 0
2019-03-26 10:14:04 GMT 46.719086 -5.242421 34,000 251 510 0
2019-03-26 10:13:53 GMT 46.727966 -5.206247 33,975 251 510 0
2019-03-26 10:13:44 GMT 46.735466 -5.175522 33,975 251 510 0
2019-03-26 10:13:34 GMT 46.742916 -5.145103 34,000 251 511 0
2019-03-26 10:13:28 GMT 46.747337 -5.126976 34,000 251 511 0
2019-03-26 10:13:24 GMT 46.751221 -5.111121 33,975 251 511 0
2019-03-26 10:13:18 GMT 46.755157 -5.094910 33,975 251 511 0
2019-03-26 10:13:08 GMT 46.763912 -5.058998 33,975 251 511 0
2019-03-26 10:13:03 GMT 46.767029 -5.046021 33,975 251 511 0
2019-03-26 10:13:00 GMT 46.769730 -5.035034 33,975 251 511 0
2019-03-26 10:12:56 GMT 46.773102 -5.021087 34,000 251 511 0
2019-03-26 10:12:49 GMT 46.778458 -4.999047 34,000 251 511 0
2019-03-26 10:12:40 GMT 46.786209 -4.966988 34,000 251 511 0
2019-03-26 10:12:31 GMT 46.792282 -4.942039 33,975 251 511 0
2019-03-26 10:12:28 GMT 46.795010 -4.930664 34,000 251 511 0
2019-03-26 10:12:21 GMT 46.800110 -4.909616 33,975 251 511 0
2019-03-26 10:12:16 GMT 46.808121 -4.876590 34,000 251 510 0
2019-03-26 10:12:12 GMT 46.808121 -4.876590 33,975 251 511 0
2019-03-26 10:12:04 GMT 46.813431 -4.854550 34,000 251 511 0
2019-03-26 10:11:59 GMT 46.817261 -4.838654 34,000 251 510 0
2019-03-26 10:11:53 GMT 46.821823 -4.819839 34,000 251 510 0
2019-03-26 10:11:49 GMT 46.825012 -4.806519 34,000 251 510 0
2019-03-26 10:11:39 GMT 46.832977 -4.773426 33,975 251 510 0
2019-03-26 10:11:35 GMT 46.836021 -4.760788 34,000 251 510 0
2019-03-26 10:11:28 GMT 46.841354 -4.738390 33,975 251 510 0
2019-03-26 10:11:23 GMT 46.845516 -4.721169 34,000 251 511 0
2019-03-26 10:11:20 GMT 46.848125 -4.710114 34,000 251 510 0
2019-03-26 10:11:14 GMT 46.852570 -4.691631 34,000 251 511 0
2019-03-26 10:11:09 GMT 46.856461 -4.675353 34,000 251 511 0
2019-03-26 10:11:04 GMT 46.861206 -4.655525 34,000 251 511 0
2019-03-26 10:10:59 GMT 46.864380 -4.642193 34,000 251 511 0
2019-03-26 10:10:49 GMT 46.872192 -4.609328 34,000 251 511 0
2019-03-26 10:10:41 GMT 46.878479 -4.583015 34,000 251 511 0
2019-03-26 10:10:36 GMT 46.882107 -4.567707 33,975 251 511 0
2019-03-26 10:10:28 GMT 46.888412 -4.541336 33,975 251 511 0
2019-03-26 10:10:18 GMT 46.896214 -4.508479 33,975 251 511 0
2019-03-26 10:10:08 GMT 46.903988 -4.475872 34,000 251 512 0
2019-03-26 10:09:58 GMT 46.912182 -4.441294 34,000 251 512 0
2019-03-26 10:09:47 GMT 46.919907 -4.408687 34,000 251 512 0
2019-03-26 10:09:37 GMT 46.927914 -4.374742 34,000 251 512 0
2019-03-26 10:09:26 GMT 46.936386 -4.338895 33,975 252 511 0
2019-03-26 10:09:16 GMT 46.944069 -4.306218 34,000 252 511 0
2019-03-26 10:09:06 GMT 46.951889 -4.272907 34,000 252 511 0
2019-03-26 10:08:55 GMT 46.959988 -4.238328 33,975 252 512 0
2019-03-26 10:08:45 GMT 46.967697 -4.205292 34,000 252 512 0
2019-03-26 10:08:35 GMT 46.975388 -4.172539 34,000 252 512 0
2019-03-26 10:08:24 GMT 46.983543 -4.137550 34,000 252 512 0
2019-03-26 10:08:15 GMT 46.998207 -4.074660 34,000 252 512 0
2019-03-26 10:08:05 GMT 46.998207 -4.074660 34,000 252 512 0
2019-03-26 10:08:02 GMT 47.000565 -4.064461 33,975 252 512 0
2019-03-26 10:07:52 GMT 47.008347 -4.031021 33,975 252 513 0
2019-03-26 10:07:43 GMT 47.014641 -4.003812 34,000 252 512 0
2019-03-26 10:07:31 GMT 47.024139 -3.962837 33,975 252 512 0
2019-03-26 10:07:21 GMT 47.031677 -3.930359 34,000 252 512 0
2019-03-26 10:07:13 GMT 47.037964 -3.903099 33,975 252 512 0
2019-03-26 10:07:08 GMT 47.041580 -3.887306 33,975 252 512 0
2019-03-26 10:07:01 GMT 47.047134 -3.863385 33,975 252 512 0
2019-03-26 10:06:57 GMT 47.050095 -3.850571 33,975 252 512 0
2019-03-26 10:06:51 GMT 47.054764 -3.830177 33,975 252 512 0
2019-03-26 10:06:47 GMT 47.057190 -3.819672 34,000 252 512 0
2019-03-26 10:06:42 GMT 47.061584 -3.800583 34,000 252 512 0
2019-03-26 10:06:31 GMT 47.073669 -3.747986 34,000 252 512 0
2019-03-26 10:06:25 GMT 47.073669 -3.747986 33,975 252 512 0
2019-03-26 10:06:21 GMT 47.077068 -3.733168 33,975 252 512 0
2019-03-26 10:06:14 GMT 47.082329 -3.710139 33,975 252 513 0
2019-03-26 10:06:11 GMT 47.084934 -3.698942 34,000 252 513 0
2019-03-26 10:06:08 GMT 47.086807 -3.690720 33,975 252 513 0
2019-03-26 10:06:04 GMT 47.089729 -3.677885 33,975 252 513 0
2019-03-26 10:06:01 GMT 47.092804 -3.664352 33,975 252 513 0
2019-03-26 10:05:57 GMT 47.095131 -3.654151 33,975 252 513 0
2019-03-26 10:05:52 GMT 47.098576 -3.639010 34,000 252 513 0
2019-03-26 10:05:47 GMT 47.102627 -3.621192 34,000 252 513 0
2019-03-26 10:05:42 GMT 47.109283 -3.591911 34,000 252 513 0
2019-03-26 10:05:38 GMT 47.109283 -3.591911 34,000 252 513 0
2019-03-26 10:05:35 GMT 47.111610 -3.581684 34,000 252 513 0
2019-03-26 10:05:32 GMT 47.113564 -3.573162 34,000 252 512 0
2019-03-26 10:05:28 GMT 47.116730 -3.559359 34,000 252 512 0
2019-03-26 10:05:25 GMT 47.119431 -3.547457 34,000 252 512 0
2019-03-26 10:05:22 GMT 47.121414 -3.538559 33,975 252 512 0
2019-03-26 10:05:19 GMT 47.123898 -3.527738 33,975 252 512 0
2019-03-26 10:05:09 GMT 47.134140 -3.482666 34,000 252 511 0
2019-03-26 10:05:01 GMT 47.136887 -3.470482 34,000 252 511 0
2019-03-26 10:04:58 GMT 47.139400 -3.459285 33,975 252 511 0
2019-03-26 10:04:55 GMT 47.141281 -3.451080 34,000 252 511 0
2019-03-26 10:04:49 GMT 47.146244 -3.429002 34,000 252 511 0
2019-03-26 10:04:45 GMT 47.149155 -3.416130 34,000 252 511 0
2019-03-26 10:04:41 GMT 47.151947 -3.403633 34,000 252 511 0
2019-03-26 10:04:38 GMT 47.154327 -3.393127 34,000 252 511 0
2019-03-26 10:04:27 GMT 47.162865 -3.355267 33,975 252 511 0
2019-03-26 10:04:20 GMT 47.167099 -3.336479 34,000 252 511 0
2019-03-26 10:04:17 GMT 47.169891 -3.323982 34,000 252 511 0
2019-03-26 10:04:10 GMT 47.174606 -3.302834 33,975 252 511 0
2019-03-26 10:04:05 GMT 47.178226 -3.286743 33,975 252 512 0
2019-03-26 10:04:00 GMT 47.182480 -3.267952 33,975 252 512 0
2019-03-26 10:03:55 GMT 47.186005 -3.252090 33,975 252 512 0
2019-03-26 10:03:52 GMT 47.188202 -3.242203 33,975 252 512 0
2019-03-26 10:03:47 GMT 47.191910 -3.225723 33,975 252 512 0
2019-03-26 10:03:44 GMT 47.193588 -3.218149 34,000 252 512 0
2019-03-26 10:03:41 GMT 47.196102 -3.206951 33,975 252 512 0
2019-03-26 10:03:34 GMT 47.200989 -3.185120 34,000 252 512 0
2019-03-26 10:03:31 GMT 47.203720 -3.172920 34,000 252 512 0
2019-03-26 10:03:24 GMT 47.208572 -3.151154 34,000 252 512 0
2019-03-26 10:03:21 GMT 47.211777 -3.136597 33,975 252 512 0
2019-03-26 10:03:16 GMT 47.214676 -3.123709 33,975 252 512 0
2019-03-26 10:03:13 GMT 47.216583 -3.115117 34,000 252 512 0
2019-03-26 10:03:10 GMT 47.219379 -3.102581 33,975 252 512 0
2019-03-26 10:03:03 GMT 47.224274 -3.080429 34,000 252 512 0
2019-03-26 10:02:59 GMT 47.229805 -3.055608 34,000 252 513 0
2019-03-26 10:02:56 GMT 47.229805 -3.055608 34,000 252 513 0
2019-03-26 10:02:52 GMT 47.231918 -3.046028 34,000 252 512 0
2019-03-26 10:02:48 GMT 47.235443 -3.030167 34,000 253 512 0
2019-03-26 10:02:44 GMT 47.237961 -3.018906 34,000 252 513 0
2019-03-26 10:02:40 GMT 47.241257 -3.004056 34,000 253 512 0
2019-03-26 10:02:35 GMT 47.244888 -2.987507 33,975 253 512 0
2019-03-26 10:02:31 GMT 47.247494 -2.975605 33,975 253 512 0
2019-03-26 10:02:27 GMT 47.250778 -2.960678 33,975 253 512 0
2019-03-26 10:02:23 GMT 47.253433 -2.948799 33,975 253 512 0
2019-03-26 10:02:18 GMT 47.257507 -2.930260 33,975 253 512 0
2019-03-26 10:02:13 GMT 47.260849 -2.915085 34,000 253 512 0
2019-03-26 10:02:07 GMT 47.265518 -2.893867 34,000 253 512 0
2019-03-26 10:02:03 GMT 47.267933 -2.882925 33,975 253 512 0
2019-03-26 10:01:59 GMT 47.270920 -2.869354 33,975 253 512 0
2019-03-26 10:01:53 GMT 47.275772 -2.847519 34,000 253 512 0
2019-03-26 10:01:49 GMT 47.277924 -2.837631 34,000 253 512 0
2019-03-26 10:01:43 GMT 47.283051 -2.814423 34,000 253 512 0
2019-03-26 10:01:38 GMT 47.286255 -2.799866 34,000 253 512 0
2019-03-26 10:01:35 GMT 47.288406 -2.789909 33,975 253 512 0
2019-03-26 10:01:31 GMT 47.291061 -2.778030 34,000 253 512 0
2019-03-26 10:01:28 GMT 47.293488 -2.766769 34,000 253 512 0
2019-03-26 10:01:25 GMT 47.297630 -2.747850 34,000 253 512 0
2019-03-26 10:01:17 GMT 47.302185 -2.727013 34,000 253 512 0
2019-03-26 10:01:13 GMT 47.304707 -2.715384 34,000 253 512 0
2019-03-26 10:01:10 GMT 47.306259 -2.708473 34,000 253 512 0
2019-03-26 10:01:07 GMT 47.308758 -2.696862 34,000 253 512 0
2019-03-26 10:01:02 GMT 47.312248 -2.680946 33,975 253 512 0
2019-03-26 10:00:56 GMT 47.316441 -2.661720 34,000 253 512 0
2019-03-26 10:00:52 GMT 47.319672 -2.646812 34,000 253 512 0
2019-03-26 10:00:45 GMT 47.324352 -2.625310 33,975 253 512 0
2019-03-26 10:00:41 GMT 47.327564 -2.610732 34,000 253 512 0
2019-03-26 10:00:35 GMT 47.336563 -2.569290 33,975 253 512 0
2019-03-26 10:00:29 GMT 47.336563 -2.569290 33,975 253 512 0
2019-03-26 10:00:24 GMT 47.339996 -2.553429 33,975 253 512 0
2019-03-26 10:00:21 GMT 47.344090 -2.534532 33,975 253 512 0
2019-03-26 10:00:12 GMT 47.348053 -2.516281 33,975 253 512 0
2019-03-26 10:00:09 GMT 47.351074 -2.502342 33,975 253 512 128
2019-03-26 10:00:03 GMT 47.354828 -2.484833 33,975 253 512 0
2019-03-26 10:00:00 GMT 47.357265 -2.473473 33,975 253 512 0
2019-03-26 09:59:57 GMT 47.359875 -2.461571 33,975 253 512 0
2019-03-26 09:59:52 GMT 47.362434 -2.449599 33,975 253 512 0
2019-03-26 09:59:47 GMT 47.367413 -2.426429 34,000 253 512 -64
2019-03-26 09:59:44 GMT 47.368515 -2.421387 34,000 253 512 -64
2019-03-26 09:59:41 GMT 47.370667 -2.411430 34,000 253 512 64
2019-03-26 09:59:38 GMT 47.373642 -2.397491 34,000 253 512 128
2019-03-26 09:59:32 GMT 47.377003 -2.381850 33,975 253 513 320
2019-03-26 09:59:27 GMT 47.380646 -2.364876 33,925 253 513 1024
2019-03-26 09:59:23 GMT 47.383568 -2.351145 33,875 253 513 1024
2019-03-26 09:59:17 GMT 47.388107 -2.330132 33,750 253 514 1280
2019-03-26 09:59:13 GMT 47.390877 -2.317129 33,650 253 514 1280
2019-03-26 09:59:08 GMT 47.394104 -2.302048 32,975 253 516 0
2019-03-26 09:59:05 GMT 47.395981 -2.293396 33,500 253 515 1280
2019-03-26 09:59:01 GMT 47.398819 -2.280006 33,325 253 516 1280
2019-03-26 09:58:56 GMT 47.403580 -2.257828 33,100 253 517 896
2019-03-26 09:58:52 GMT 47.405273 -2.249794 33,225 253 517 1152
2019-03-26 09:58:46 GMT 47.409851 -2.228302 33,100 253 517 960
2019-03-26 09:58:42 GMT 47.415527 -2.201385 33,000 253 516 320
2019-03-26 09:58:38 GMT 47.415527 -2.201385 33,000 253 516 320
2019-03-26 09:58:35 GMT 47.417599 -2.191702 32,975 253 516 64
2019-03-26 09:58:32 GMT 47.419785 -2.181267 32,975 253 516 0
2019-03-26 09:58:28 GMT 47.422859 -2.166842 32,975 253 516 0
2019-03-26 09:58:25 GMT 47.427513 -2.144728 32,975 253 516 0
2019-03-26 09:58:21 GMT 47.427513 -2.144728 32,975 253 516 0
2019-03-26 09:58:18 GMT 47.429607 -2.134658 32,975 253 515 0
2019-03-26 09:58:15 GMT 47.432167 -2.122615 33,000 253 515 0
2019-03-26 09:58:12 GMT 47.434261 -2.112544 33,000 254 515 0
2019-03-26 09:58:06 GMT 47.438324 -2.092690 32,975 254 515 0
2019-03-26 09:58:02 GMT 47.441292 -2.078247 32,975 253 516 0
2019-03-26 09:57:56 GMT 47.445202 -2.059444 33,000 253 516 0
2019-03-26 09:57:53 GMT 47.449585 -2.038994 33,000 252 516 0
2019-03-26 09:57:46 GMT 47.453201 -2.022995 33,000 252 516 0
2019-03-26 09:57:41 GMT 47.456467 -2.008667 33,000 251 517 0
2019-03-26 09:57:36 GMT 47.462612 -1.982680 33,000 251 516 0
2019-03-26 09:57:33 GMT 47.462612 -1.982680 32,975 251 517 0
2019-03-26 09:57:28 GMT 47.466248 -1.967789 32,975 251 516 0
2019-03-26 09:57:25 GMT 47.469223 -1.955910 32,975 250 517 0
2019-03-26 09:57:22 GMT 47.471237 -1.947945 33,000 250 517 0
2019-03-26 09:57:19 GMT 47.473694 -1.938383 33,000 249 517 0
2019-03-26 09:57:15 GMT 47.478424 -1.920273 33,000 249 517 0
2019-03-26 09:57:12 GMT 47.480484 -1.912376 33,000 249 518 0
2019-03-26 09:57:09 GMT 47.482864 -1.903522 33,000 249 517 0
2019-03-26 09:57:06 GMT 47.485378 -1.894296 33,000 249 518 0
2019-03-26 09:57:03 GMT 47.487579 -1.886147 33,000 249 517 0
2019-03-26 09:56:59 GMT 47.494362 -1.860845 33,000 249 517 0
2019-03-26 09:56:56 GMT 47.494362 -1.860845 32,975 249 518 0
2019-03-26 09:56:53 GMT 47.496689 -1.851952 33,000 249 517 0
2019-03-26 09:56:49 GMT 47.501678 -1.832863 33,000 250 517 0
2019-03-26 09:56:43 GMT 47.505302 -1.818660 33,000 250 518 0
2019-03-26 09:56:40 GMT 47.507488 -1.810068 33,000 250 517 0
2019-03-26 09:56:37 GMT 47.510796 -1.796828 33,000 250 517 0
2019-03-26 09:56:32 GMT 47.514053 -1.783588 33,000 251 516 0
2019-03-26 09:56:29 GMT 47.517014 -1.771271 32,975 251 517 0
2019-03-26 09:56:22 GMT 47.522552 -1.747993 32,975 251 517 0
2019-03-26 09:56:18 GMT 47.525345 -1.735977 32,975 252 516 0
2019-03-26 09:56:11 GMT 47.530624 -1.712952 32,975 252 516 0
2019-03-26 09:56:08 GMT 47.533047 -1.702247 32,975 252 517 0
2019-03-26 09:56:05 GMT 47.535282 -1.692176 32,975 252 517 0
2019-03-26 09:56:02 GMT 47.537235 -1.683514 32,975 252 517 -64
2019-03-26 09:55:58 GMT 47.540543 -1.668725 32,975 252 517 -64
2019-03-26 09:55:53 GMT 47.544827 -1.649992 33,000 252 518 -64
2019-03-26 09:55:50 GMT 47.546871 -1.641329 33,000 251 517 -64
2019-03-26 09:55:41 GMT 47.554321 -1.611900 33,000 247 519 64
2019-03-26 09:55:37 GMT 47.557800 -1.600227 33,000 245 520 64
2019-03-26 09:55:32 GMT 47.564301 -1.581963 32,975 238 524 0
2019-03-26 09:55:27 GMT 47.570522 -1.567876 32,975 235 525 0
2019-03-26 09:55:21 GMT 47.578491 -1.552917 32,975 229 527 0
2019-03-26 09:55:16 GMT 47.586674 -1.539072 33,000 229 527 0
2019-03-26 09:55:11 GMT 47.595474 -1.524564 33,000 229 527 0
2019-03-26 09:55:06 GMT 47.604271 -1.510127 32,975 229 527 0
2019-03-26 09:55:00 GMT 47.613190 -1.495377 32,975 229 527 0
2019-03-26 09:54:55 GMT 47.621494 -1.481675 32,975 229 527 0
2019-03-26 09:54:50 GMT 47.629120 -1.469009 33,000 229 527 0
2019-03-26 09:54:45 GMT 47.638229 -1.453972 33,000 229 527 0
2019-03-26 09:54:40 GMT 47.646332 -1.440582 33,000 229 527 0
2019-03-26 09:54:35 GMT 47.654640 -1.426885 33,000 229 526 0
2019-03-26 09:54:29 GMT 47.664505 -1.410507 32,975 229 526 0
2019-03-26 09:54:25 GMT 47.670841 -1.399982 32,975 229 526 0
2019-03-26 09:54:20 GMT 47.679108 -1.386269 32,975 229 526 0
2019-03-26 09:54:16 GMT 47.684483 -1.377446 33,000 229 526 0
2019-03-26 09:54:13 GMT 47.688995 -1.369911 33,000 229 526 0
2019-03-26 09:54:10 GMT 47.694210 -1.361319 32,975 229 526 0
2019-03-26 09:54:07 GMT 47.699379 -1.352656 32,975 229 526 0
2019-03-26 09:54:03 GMT 47.705704 -1.342186 33,000 229 526 0
2019-03-26 09:53:57 GMT 47.714767 -1.327148 33,000 229 526 0
2019-03-26 09:53:53 GMT 47.722229 -1.314789 32,975 229 526 0
2019-03-26 09:53:49 GMT 47.733856 -1.295357 32,975 229 526 0
2019-03-26 09:53:46 GMT 47.733856 -1.295357 32,975 229 526 0
2019-03-26 09:53:42 GMT 47.739349 -1.286224 33,000 229 526 0
2019-03-26 09:53:35 GMT 47.750866 -1.267090 33,000 229 526 0
2019-03-26 09:53:32 GMT 47.756359 -1.257935 33,000 229 526 0
2019-03-26 09:53:27 GMT 47.765259 -1.243103 33,000 229 526 0
2019-03-26 09:53:24 GMT 47.770111 -1.235001 33,000 229 526 0
2019-03-26 09:53:21 GMT 47.774323 -1.227997 33,000 229 526 0
2019-03-26 09:53:15 GMT 47.783340 -1.212891 33,000 229 526 0
2019-03-26 09:53:11 GMT 47.790482 -1.201080 32,975 229 526 0
2019-03-26 09:53:08 GMT 47.797577 -1.189201 32,975 229 526 0
2019-03-26 09:53:03 GMT 47.804867 -1.177086 32,975 229 527 0
2019-03-26 09:52:55 GMT 47.816456 -1.157649 33,000 229 527 0
2019-03-26 09:52:50 GMT 47.824081 -1.144913 32,975 229 527 0
2019-03-26 09:52:47 GMT 47.828423 -1.137648 33,000 229 527 0
2019-03-26 09:52:41 GMT 47.838104 -1.121451 32,975 229 526 0
2019-03-26 09:52:37 GMT 47.844406 -1.110855 32,975 229 526 0
2019-03-26 09:52:34 GMT 47.851181 -1.099525 33,000 229 526 0
2019-03-26 09:52:31 GMT 47.854256 -1.094407 32,975 229 526 0
2019-03-26 09:52:27 GMT 47.861332 -1.082505 32,975 229 526 0
2019-03-26 09:52:23 GMT 47.871994 -1.064617 32,975 229 526 0
2019-03-26 09:52:20 GMT 47.871994 -1.064617 32,975 229 526 0
2019-03-26 09:52:17 GMT 47.877487 -1.055392 32,975 229 527 0
2019-03-26 09:52:12 GMT 47.884888 -1.042926 32,975 229 527 0
2019-03-26 09:52:07 GMT 47.893642 -1.028348 32,975 229 527 0
2019-03-26 09:52:01 GMT 47.903931 -1.010953 33,000 229 527 0
2019-03-26 09:51:56 GMT 47.910400 -1.000108 33,000 229 527 0
2019-03-26 09:51:53 GMT 47.916218 -0.990389 33,000 229 527 0
2019-03-26 09:51:49 GMT 47.922363 -0.980037 33,000 229 527 0
2019-03-26 09:51:46 GMT 47.927204 -0.971938 33,000 229 527 0
2019-03-26 09:51:43 GMT 47.933487 -0.961304 33,000 229 527 0
2019-03-26 09:51:39 GMT 47.938190 -0.953487 33,000 229 527 0
2019-03-26 09:51:35 GMT 47.944473 -0.942833 33,000 229 527 0
2019-03-26 09:51:32 GMT 47.950760 -0.932289 32,975 229 527 0
2019-03-26 09:51:29 GMT 47.954624 -0.925739 33,000 229 527 0
2019-03-26 09:51:26 GMT 47.959625 -0.917290 32,975 229 527 0
2019-03-26 09:51:20 GMT 47.977806 -0.886583 32,975 229 526 0
2019-03-26 09:51:14 GMT 47.977806 -0.886583 33,000 229 526 0
2019-03-26 09:51:10 GMT 47.984882 -0.874610 33,000 229 526 0
2019-03-26 09:51:07 GMT 47.989838 -0.866203 33,000 229 526 0
2019-03-26 09:51:04 GMT 47.993870 -0.859398 32,975 229 527 0
2019-03-26 09:51:01 GMT 48.000137 -0.848763 33,000 229 527 0
2019-03-26 09:50:58 GMT 48.004482 -0.841440 32,975 229 527 0
2019-03-26 09:50:53 GMT 48.012039 -0.828644 32,975 229 527 0
2019-03-26 09:50:50 GMT 48.017982 -0.818552 32,975 229 527 0
2019-03-26 09:50:47 GMT 48.021698 -0.812302 32,975 229 527 0
2019-03-26 09:50:44 GMT 48.026360 -0.804396 32,975 229 527 0
2019-03-26 09:50:41 GMT 48.031631 -0.795410 33,000 229 527 0
2019-03-26 09:50:38 GMT 48.037125 -0.786140 33,000 229 527 0
2019-03-26 09:50:34 GMT 48.044540 -0.773643 33,000 229 527 0
2019-03-26 09:50:30 GMT 48.050629 -0.763275 33,000 229 527 0
2019-03-26 09:50:27 GMT 48.054993 -0.755873 33,000 229 527 0
2019-03-26 09:50:23 GMT 48.061417 -0.744958 33,000 229 527 0
2019-03-26 09:50:17 GMT 48.069580 -0.731071 33,000 229 526 0
2019-03-26 09:50:14 GMT 48.075848 -0.720379 33,000 229 526 0
2019-03-26 09:50:11 GMT 48.081436 -0.710815 33,000 229 526 0
2019-03-26 09:50:05 GMT 48.090088 -0.696053 33,000 229 526 0
2019-03-26 09:50:02 GMT 48.094421 -0.688688 33,000 229 526 0
2019-03-26 09:49:57 GMT 48.103081 -0.673969 33,000 229 526 0
2019-03-26 09:49:53 GMT 48.109314 -0.663300 33,000 229 526 0
2019-03-26 09:49:50 GMT 48.114120 -0.655128 33,000 229 526 0
2019-03-26 09:49:46 GMT 48.120529 -0.644142 33,000 229 525 0
2019-03-26 09:49:42 GMT 48.126297 -0.634323 33,000 229 525 0
2019-03-26 09:49:39 GMT 48.130592 -0.626995 33,000 229 525 0
2019-03-26 09:49:35 GMT 48.137016 -0.616009 32,975 229 525 0
2019-03-26 09:49:32 GMT 48.141811 -0.607840 32,975 229 525 0
2019-03-26 09:49:29 GMT 48.146885 -0.599107 32,975 229 525 0
2019-03-26 09:49:24 GMT 48.155216 -0.584881 32,975 229 525 0
2019-03-26 09:49:21 GMT 48.159851 -0.576988 32,975 229 525 0
2019-03-26 09:49:18 GMT 48.164482 -0.569048 32,975 229 525 0
2019-03-26 09:49:14 GMT 48.171463 -0.557050 32,975 229 525 0
2019-03-26 09:49:11 GMT 48.175461 -0.550162 32,975 229 524 0
2019-03-26 09:49:08 GMT 48.180122 -0.542305 33,000 229 524 -64
2019-03-26 09:49:01 GMT 48.191574 -0.522646 33,000 229 524 -64
2019-03-26 09:48:57 GMT 48.208195 -0.494240 31,825 229 525 448
2019-03-26 09:48:51 GMT 48.208195 -0.494240 32,750 232 528 1536
2019-03-26 09:48:48 GMT 48.212173 -0.487342 32,975 229 525 448
2019-03-26 09:48:45 GMT 48.216934 -0.479173 31,825 242 523 960
2019-03-26 09:48:42 GMT 48.222858 -0.469015 32,850 229 525 1088
2019-03-26 09:48:39 GMT 48.226025 -0.463594 32,800 229 525 1152
2019-03-26 09:48:36 GMT 48.232075 -0.453186 32,750 229 525 1216
2019-03-26 09:48:31 GMT 48.240509 -0.438678 32,650 230 524 1216
2019-03-26 09:48:28 GMT 48.245110 -0.430707 32,525 230 525 1280
2019-03-26 09:48:25 GMT 48.257355 -0.409593 32,475 230 525 1280
2019-03-26 09:48:20 GMT 48.257355 -0.409593 32,375 230 525 1344
2019-03-26 09:48:17 GMT 48.262894 -0.399989 32,325 230 525 1408
2019-03-26 09:48:13 GMT 48.268291 -0.390665 32,150 230 525 1472
2019-03-26 09:48:10 GMT 48.273514 -0.381564 32,150 230 525 1472
2019-03-26 09:48:06 GMT 48.281002 -0.368620 32,075 230 526 1536
2019-03-26 09:48:03 GMT 48.283997 -0.363324 31,950 229 528 1600
2019-03-26 09:48:00 GMT 48.290546 -0.352068 31,875 230 526 1600
2019-03-26 09:47:57 GMT 48.293564 -0.346774 31,825 229 528 1664
2019-03-26 09:47:53 GMT 48.300613 -0.334660 31,700 229 527 1600
2019-03-26 09:47:49 GMT 48.306381 -0.324801 31,600 229 528 1600
2019-03-26 09:47:46 GMT 48.310703 -0.317303 31,525 230 528 1600
2019-03-26 09:47:43 GMT 48.315357 -0.308774 31,400 232 529 1536
2019-03-26 09:47:38 GMT 48.325134 -0.289620 31,225 235 528 1344
2019-03-26 09:47:33 GMT 48.331791 -0.275236 31,175 237 527 1088
2019-03-26 09:47:29 GMT 48.335793 -0.266057 31,100 239 525 960
2019-03-26 09:47:24 GMT 48.345478 -0.241627 30,975 242 524 960
2019-03-26 09:47:18 GMT 48.348503 -0.233387 30,950 243 523 960
2019-03-26 09:47:15 GMT 48.351929 -0.223389 30,850 244 521 1024
2019-03-26 09:47:11 GMT 48.356232 -0.210041 30,825 246 520 1024
2019-03-26 09:47:08 GMT 48.359299 -0.199867 30,775 247 519 1024
2019-03-26 09:47:04 GMT 48.362560 -0.188213 30,700 249 518 1024
2019-03-26 09:47:01 GMT 48.366005 -0.174842 30,650 251 516 960
2019-03-26 09:46:58 GMT 48.368179 -0.165710 30,600 252 516 960
2019-03-26 09:46:54 GMT 48.371548 -0.150412 30,550 253 515 1024
2019-03-26 09:46:49 GMT 48.375732 -0.131061 30,425 253 515 1088
2019-03-26 09:46:46 GMT 48.377472 -0.122892 30,000 253 513 1024
2019-03-26 09:46:42 GMT 48.380344 -0.109646 30,225 253 513 1024
2019-03-26 09:46:39 GMT 48.382462 -0.099792 30,250 253 513 1024
2019-03-26 09:46:36 GMT 48.384861 -0.088613 30,175 253 513 1024
2019-03-26 09:46:32 GMT 48.387405 -0.076763 30,025 253 512 1024
2019-03-26 09:46:28 GMT 48.391068 -0.059791 30,050 253 512 1024
2019-03-26 09:46:25 GMT 48.392487 -0.053030 29,750 253 512 1024
2019-03-26 09:46:20 GMT 48.396011 -0.036832 29,900 253 511 1024
2019-03-26 09:46:17 GMT 48.398163 -0.026691 29,875 253 511 1024
2019-03-26 09:46:12 GMT 48.401573 -0.010769 29,750 253 508 1088
2019-03-26 09:46:08 GMT 48.404526 0.003028 29,725 253 510 1024
2019-03-26 09:46:05 GMT 48.407547 0.017184 29,600 253 508 1088
2019-03-26 09:46:02 GMT 48.408928 0.023635 29,600 253 510 1024
2019-03-26 09:45:57 GMT 48.412766 0.041480 29,475 253 509 1088
2019-03-26 09:45:54 GMT 48.414780 0.050847 29,450 253 509 1088
2019-03-26 09:45:51 GMT 48.416561 0.059268 29,400 253 508 1088
2019-03-26 09:45:47 GMT 48.420006 0.075386 29,275 253 508 1088
2019-03-26 09:45:44 GMT 48.421967 0.084510 29,250 253 508 1088
2019-03-26 09:45:40 GMT 48.424393 0.095919 29,175 253 507 1088
2019-03-26 09:45:37 GMT 48.426895 0.107623 29,125 253 507 1088
2019-03-26 09:45:33 GMT 48.429565 0.120005 29,050 253 507 1088
2019-03-26 09:45:30 GMT 48.431580 0.129371 29,000 253 506 1088
2019-03-26 09:45:26 GMT 48.434624 0.143762 28,875 253 506 1152
2019-03-26 09:45:23 GMT 48.436844 0.154161 28,850 253 506 1152
2019-03-26 09:45:20 GMT 48.438950 0.164161 28,800 253 505 1152
2019-03-26 09:45:16 GMT 48.442108 0.178880 28,700 253 504 1152
2019-03-26 09:45:12 GMT 48.444588 0.190598 28,675 253 504 1152
2019-03-26 09:45:09 GMT 48.446682 0.200573 28,525 253 503 1152
2019-03-26 09:45:05 GMT 48.450218 0.217269 28,525 253 503 1152
2019-03-26 09:45:02 GMT 48.451614 0.223919 28,125 253 498 1088
2019-03-26 09:44:59 GMT 48.453896 0.234544 28,350 253 502 1216
2019-03-26 09:44:56 GMT 48.456345 0.246206 28,300 253 502 1216
2019-03-26 09:44:52 GMT 48.459484 0.261142 28,225 253 488 1344
2019-03-26 09:44:48 GMT 48.462322 0.274441 28,125 253 501 1216
2019-03-26 09:44:44 GMT 48.465534 0.289692 28,025 253 501 1152
2019-03-26 09:44:41 GMT 48.466965 0.296701 28,000 253 500 1152
2019-03-26 09:44:38 GMT 48.468327 0.302991 27,300 253 491 1280
2019-03-26 09:44:35 GMT 48.470627 0.313885 27,875 253 500 1088
2019-03-26 09:44:32 GMT 48.475479 0.337055 27,325 253 498 1088
2019-03-26 09:44:25 GMT 48.477497 0.346648 27,600 253 498 1088
2019-03-26 09:44:22 GMT 48.479919 0.358182 27,650 253 498 1088
2019-03-26 09:44:17 GMT 48.482899 0.372379 27,350 253 496 1216
2019-03-26 09:44:14 GMT 48.485046 0.382550 27,500 253 497 1216
2019-03-26 09:44:11 GMT 48.487602 0.394785 27,425 253 496 1280
2019-03-26 09:44:08 GMT 48.489975 0.405916 27,325 253 495 1280
2019-03-26 09:44:04 GMT 48.492302 0.417119 27,125 253 495 1280
2019-03-26 09:44:01 GMT 48.494293 0.426636 27,200 253 494 1280
2019-03-26 09:43:55 GMT 48.498596 0.446989 27,025 253 493 1280
2019-03-26 09:43:51 GMT 48.501240 0.459763 27,000 253 494 1216
2019-03-26 09:43:44 GMT 48.505943 0.482025 26,850 253 492 1280
2019-03-26 09:43:41 GMT 48.508270 0.493156 26,775 253 492 1280
2019-03-26 09:43:36 GMT 48.512009 0.511076 26,650 253 492 1280
2019-03-26 09:43:33 GMT 48.513718 0.519249 26,575 253 491 1280
2019-03-26 09:43:30 GMT 48.515766 0.529078 26,525 253 491 1280
2019-03-26 09:43:24 GMT 48.519535 0.547293 26,375 253 491 1280
2019-03-26 09:43:20 GMT 48.522282 0.560375 26,300 253 490 1344
2019-03-26 09:43:12 GMT 48.528122 0.588684 25,300 253 488 1344
2019-03-26 09:43:09 GMT 48.529495 0.595163 26,075 253 488 1344
2019-03-26 09:43:02 GMT 48.534245 0.618198 25,900 253 488 1344
2019-03-26 09:42:59 GMT 48.536388 0.628534 25,850 253 488 1344
2019-03-26 09:42:53 GMT 48.541508 0.653181 25,575 253 486 1408
2019-03-26 09:42:49 GMT 48.542908 0.659954 25,600 253 487 1472
2019-03-26 09:42:41 GMT 48.548210 0.685489 25,425 253 485 1344
2019-03-26 09:42:38 GMT 48.550724 0.697776 25,325 253 484 1280
2019-03-26 09:42:32 GMT 48.554398 0.715449 25,200 253 484 1280
2019-03-26 09:42:29 GMT 48.556450 0.725459 25,050 253 483 1344
2019-03-26 09:42:23 GMT 48.560734 0.746058 25,000 253 482 1344
2019-03-26 09:42:18 GMT 48.563480 0.759502 24,900 253 482 1344
2019-03-26 09:42:15 GMT 48.565842 0.770733 24,825 253 481 1280
2019-03-26 09:42:12 GMT 48.567810 0.780311 24,775 253 481 1216
2019-03-26 09:42:07 GMT 48.571301 0.797304 24,625 253 480 1344
2019-03-26 09:42:01 GMT 48.574978 0.815157 24,525 253 479 1408
2019-03-26 09:41:58 GMT 48.577057 0.825031 24,425 253 478 1472
2019-03-26 09:41:55 GMT 48.579075 0.834889 24,350 253 478 1472
2019-03-26 09:41:52 GMT 48.581032 0.844429 24,300 253 478 1408
2019-03-26 09:41:48 GMT 48.587128 0.873976 24,125 253 476 1408
2019-03-26 09:41:43 GMT 48.587128 0.873976 24,050 253 477 1408
2019-03-26 09:41:40 GMT 48.588913 0.882850 23,675 253 476 1408
2019-03-26 09:41:37 GMT 48.590881 0.892428 23,875 253 476 1408
2019-03-26 09:41:34 GMT 48.592941 0.902499 23,850 253 475 1408
2019-03-26 09:41:31 GMT 48.594360 0.909471 23,800 253 475 1408
2019-03-26 09:41:26 GMT 48.597885 0.926584 23,675 253 474 1472
2019-03-26 09:41:23 GMT 48.603424 0.953698 23,350 253 473 1472
2019-03-26 09:41:17 GMT 48.603424 0.953698 23,475 253 471 1472
2019-03-26 09:41:14 GMT 48.605518 0.964050 23,400 253 471 1472
2019-03-26 09:41:11 GMT 48.608215 0.977277 23,300 253 471 1472
2019-03-26 09:41:07 GMT 48.610779 0.989854 23,200 253 470 1408
2019-03-26 09:41:02 GMT 48.613678 1.003911 22,975 253 468 1600
2019-03-26 09:40:54 GMT 48.618458 1.027366 22,525 253 468 1600
2019-03-26 09:40:50 GMT 48.621159 1.040521 22,625 253 468 1536
2019-03-26 09:40:44 GMT 48.624893 1.058913 22,600 253 467 1472
2019-03-26 09:40:41 GMT 48.626816 1.068280 22,575 253 467 1472
2019-03-26 09:40:34 GMT 48.631027 1.089092 22,325 254 465 1408
2019-03-26 09:40:30 GMT 48.633636 1.101802 22,275 253 464 1408
2019-03-26 09:40:27 GMT 48.635880 1.112929 22,200 253 464 1408
2019-03-26 09:40:22 GMT 48.638432 1.125593 22,075 254 462 1344
2019-03-26 09:40:19 GMT 48.640366 1.135183 22,025 254 462 1344
2019-03-26 09:40:13 GMT 48.644852 1.157297 21,900 254 458 1280
2019-03-26 09:40:09 GMT 48.646591 1.165889 21,725 254 457 1472
2019-03-26 09:40:06 GMT 48.648998 1.177850 21,725 254 457 1472
2019-03-26 09:40:03 GMT 48.650803 1.186664 21,550 254 456 1600
2019-03-26 09:39:57 GMT 48.653870 1.201947 21,500 254 456 1728
2019-03-26 09:39:53 GMT 48.657303 1.218989 21,325 254 455 1856
2019-03-26 09:39:48 GMT 48.659729 1.231103 21,200 254 455 1792
2019-03-26 09:39:44 GMT 48.662064 1.242652 21,100 254 455 1408
2019-03-26 09:39:40 GMT 48.664780 1.256344 21,000 254 454 960
2019-03-26 09:39:37 GMT 48.666363 1.264223 21,000 254 452 256
2019-03-26 09:39:32 GMT 48.669338 1.279329 21,000 254 452 0
2019-03-26 09:39:23 GMT 48.674881 1.307084 21,000 254 451 0
2019-03-26 09:39:20 GMT 48.676666 1.315824 21,000 254 451 0
2019-03-26 09:39:17 GMT 48.678513 1.325154 21,000 254 452 0
2019-03-26 09:39:14 GMT 48.680008 1.332726 20,975 254 452 0
2019-03-26 09:39:11 GMT 48.682068 1.343008 20,975 254 452 0
2019-03-26 09:39:07 GMT 48.685261 1.358980 21,000 254 452 0
2019-03-26 09:39:04 GMT 48.686237 1.363823 21,000 254 453 0
2019-03-26 09:38:58 GMT 48.689667 1.381038 21,000 254 453 0
2019-03-26 09:38:53 GMT 48.692596 1.395616 21,000 254 453 0
2019-03-26 09:38:47 GMT 48.696213 1.413785 20,975 254 453 0
2019-03-26 09:38:43 GMT 48.698868 1.427096 21,000 254 454 0
2019-03-26 09:38:39 GMT 48.701599 1.440727 20,975 254 453 0
2019-03-26 09:38:35 GMT 48.703743 1.451641 20,975 254 453 0
2019-03-26 09:38:32 GMT 48.705326 1.459519 20,975 254 453 0
2019-03-26 09:38:29 GMT 48.707840 1.472313 20,975 254 454 0
2019-03-26 09:38:26 GMT 48.709560 1.480769 20,975 254 454 0
2019-03-26 09:38:21 GMT 48.712372 1.495056 21,000 254 454 0
2019-03-26 09:38:18 GMT 48.714123 1.503826 20,975 254 454 0
2019-03-26 09:38:15 GMT 48.715660 1.511777 20,975 254 454 0
2019-03-26 09:38:10 GMT 48.719059 1.528762 20,975 254 454 0
2019-03-26 09:38:07 GMT 48.720875 1.537869 21,000 254 454 0
2019-03-26 09:38:04 GMT 48.722038 1.543940 21,000 254 454 0
2019-03-26 09:38:01 GMT 48.724831 1.557890 21,000 254 454 0
2019-03-26 09:37:58 GMT 48.725903 1.563383 20,975 254 454 0
2019-03-26 09:37:55 GMT 48.730232 1.585284 20,975 254 454 0
2019-03-26 09:37:51 GMT 48.730232 1.585284 20,975 254 454 0
2019-03-26 09:37:48 GMT 48.731827 1.593440 20,975 254 454 0
2019-03-26 09:37:45 GMT 48.733955 1.604076 20,975 254 454 0
2019-03-26 09:37:40 GMT 48.737679 1.622869 20,975 254 454 0
2019-03-26 09:37:35 GMT 48.742859 1.649358 20,975 254 453 0
2019-03-26 09:37:30 GMT 48.742859 1.649358 20,975 254 453 0
2019-03-26 09:37:27 GMT 48.746616 1.668476 20,975 254 453 0
2019-03-26 09:37:24 GMT 48.746616 1.668476 20,975 254 453 0
2019-03-26 09:37:18 GMT 48.752575 1.698906 20,975 254 454 0
2019-03-26 09:37:13 GMT 48.752575 1.698906 20,975 254 454 0
2019-03-26 09:37:10 GMT 48.755043 1.711699 20,975 254 453 -64
2019-03-26 09:37:07 GMT 48.756718 1.720228 20,975 254 453 -64
2019-03-26 09:37:04 GMT 48.758442 1.729335 21,000 254 453 -64
2019-03-26 09:36:59 GMT 48.761398 1.744925 21,000 255 451 128
2019-03-26 09:36:56 GMT 48.762543 1.750981 21,000 255 451 384
2019-03-26 09:36:53 GMT 48.764465 1.761334 21,000 255 450 512
2019-03-26 09:36:48 GMT 48.767487 1.777743 20,950 255 450 512
2019-03-26 09:36:45 GMT 48.769043 1.786264 20,950 256 450 704
2019-03-26 09:36:42 GMT 48.770874 1.796617 20,925 256 450 704
2019-03-26 09:36:37 GMT 48.773071 1.809364 20,850 263 434 1728
2019-03-26 09:36:34 GMT 48.776131 1.827344 20,725 260 442 1664
2019-03-26 09:36:27 GMT 48.778152 1.839787 20,525 257 447 1728
2019-03-26 09:36:24 GMT 48.779995 1.851630 20,500 258 446 1728
2019-03-26 09:36:21 GMT 48.781494 1.861690 20,125 260 442 1664
2019-03-26 09:36:18 GMT 48.783020 1.872302 20,225 259 444 1728
2019-03-26 09:36:13 GMT 48.784653 1.884155 20,200 259 443 1664
2019-03-26 09:36:10 GMT 48.786118 1.895705 20,125 259 443 1664
2019-03-26 09:36:06 GMT 48.787258 1.905116 20,050 260 440 1664
2019-03-26 09:36:03 GMT 48.788361 1.914579 19,800 262 435 1728
2019-03-26 09:35:58 GMT 48.789963 1.929720 19,800 262 438 1664
2019-03-26 09:35:53 GMT 48.791775 1.946965 19,550 262 436 1728
2019-03-26 09:35:49 GMT 48.792938 1.958736 19,525 262 435 1728
2019-03-26 09:35:45 GMT 48.793854 1.968384 19,425 263 434 1728
2019-03-26 09:35:42 GMT 48.794678 1.977398 19,100 264 430 1792
2019-03-26 09:35:38 GMT 48.795868 1.990638 19,150 263 433 1728
2019-03-26 09:35:32 GMT 48.797546 2.011365 18,900 264 430 1792
2019-03-26 09:35:27 GMT 48.798290 2.021557 18,900 264 430 1792
2019-03-26 09:35:22 GMT 48.799347 2.037400 18,750 265 428 1600
2019-03-26 09:35:18 GMT 48.800152 2.052564 18,625 267 424 1152
2019-03-26 09:35:13 GMT 48.800713 2.067381 18,550 268 421 832
2019-03-26 09:35:09 GMT 48.800949 2.075289 18,500 268 420 768
2019-03-26 09:35:06 GMT 48.801128 2.084367 18,450 269 416 960
2019-03-26 09:35:03 GMT 48.801315 2.094847 18,400 270 414 1280
2019-03-26 09:34:58 GMT 48.801411 2.108724 18,275 270 412 1920
2019-03-26 09:34:55 GMT 48.801411 2.124843 18,175 270 411 1920
2019-03-26 09:34:52 GMT 48.801411 2.124843 18,125 270 411 1856
2019-03-26 09:34:49 GMT 48.801411 2.135757 17,975 270 410 1856
2019-03-26 09:34:46 GMT 48.801411 2.143274 17,925 270 410 1856
2019-03-26 09:34:42 GMT 48.801407 2.157264 17,675 271 407 1792
2019-03-26 09:34:39 GMT 48.801407 2.165856 17,675 270 408 1792
2019-03-26 09:34:35 GMT 48.801365 2.172402 17,625 270 408 1792
2019-03-26 09:34:32 GMT 48.801365 2.186062 17,450 271 406 1920
2019-03-26 09:34:28 GMT 48.801365 2.194591 17,300 271 406 1984
2019-03-26 09:34:25 GMT 48.801361 2.203393 17,250 271 405 2048
2019-03-26 09:34:21 GMT 48.801315 2.212477 17,075 271 404 2048
2019-03-26 09:34:18 GMT 48.801315 2.221840 17,050 271 404 2048
2019-03-26 09:34:14 GMT 48.801270 2.231959 16,900 271 403 1920
2019-03-26 09:34:11 GMT 48.801224 2.242151 16,850 271 403 1856
2019-03-26 09:34:08 GMT 48.801178 2.250859 16,500 271 400 1984
2019-03-26 09:34:05 GMT 48.801178 2.262057 16,575 271 400 1984
2019-03-26 09:34:01 GMT 48.801174 2.270195 16,475 271 400 1984
2019-03-26 09:33:58 GMT 48.801132 2.278325 16,300 271 398 1920
2019-03-26 09:33:55 GMT 48.801128 2.286385 16,275 271 396 2048
2019-03-26 09:33:52 GMT 48.801132 2.295579 16,175 271 397 1920
2019-03-26 09:33:49 GMT 48.801128 2.303081 16,075 271 396 1984
2019-03-26 09:33:46 GMT 48.801083 2.312478 15,975 271 396 2048
2019-03-26 09:33:43 GMT 48.801083 2.320790 15,850 271 394 2112
2019-03-26 09:33:39 GMT 48.800991 2.340666 15,675 271 393 2240
2019-03-26 09:33:36 GMT 48.800991 2.340666 15,600 270 393 2176
2019-03-26 09:33:32 GMT 48.801041 2.348609 15,525 270 394 2112
2019-03-26 09:33:29 GMT 48.801361 2.361849 15,325 267 393 1536
2019-03-26 09:33:25 GMT 48.801727 2.370089 15,225 260 388 1728
2019-03-26 09:33:22 GMT 48.802155 2.378034 15,250 265 393 1280
2019-03-26 09:33:18 GMT 48.803192 2.390864 15,100 263 391 1024
2019-03-26 09:33:15 GMT 48.803692 2.396537 15,075 262 390 1344
2019-03-26 09:33:12 GMT 48.804668 2.405644 14,925 259 387 2048
2019-03-26 09:33:06 GMT 48.806576 2.420606 14,600 257 388 2240
2019-03-26 09:33:03 GMT 48.809143 2.437275 14,450 255 389 2368
2019-03-26 09:33:00 GMT 48.810905 2.446988 14,100 255 388 2240
2019-03-26 09:32:57 GMT 48.810905 2.446988 14,425 255 388 2304
2019-03-26 09:32:54 GMT 48.811695 2.451180 13,950 254 388 2368
2019-03-26 09:32:51 GMT 48.813721 2.461853 14,225 254 388 2368
2019-03-26 09:32:48 GMT 48.814957 2.468382 14,050 254 388 2432
2019-03-26 09:32:44 GMT 48.816788 2.478051 13,950 254 387 2176
2019-03-26 09:32:40 GMT 48.819214 2.491009 13,775 255 384 1920
2019-03-26 09:32:35 GMT 48.821686 2.503967 13,625 254 383 1856
2019-03-26 09:32:32 GMT 48.823105 2.511460 13,425 255 381 1920
2019-03-26 09:32:29 GMT 48.824451 2.518688 13,450 254 380 1920
2019-03-26 09:32:24 GMT 48.826778 2.530975 13,275 255 379 2048
2019-03-26 09:32:21 GMT 48.828037 2.537625 13,150 255 371 2240
2019-03-26 09:32:18 GMT 48.829292 2.544202 13,050 255 377 2112
2019-03-26 09:32:15 GMT 48.830978 2.553124 12,825 255 372 2176
2019-03-26 09:32:12 GMT 48.832924 2.563501 12,825 255 375 2048
2019-03-26 09:32:09 GMT 48.834042 2.569500 12,725 255 374 2048
2019-03-26 09:32:03 GMT 48.836472 2.582351 12,250 255 372 2176
2019-03-26 09:32:00 GMT 48.838139 2.591111 12,425 255 371 2240
2019-03-26 09:31:57 GMT 48.839630 2.599134 12,325 255 370 2304
2019-03-26 09:31:54 GMT 48.841278 2.607844 12,175 255 370 2240
2019-03-26 09:31:50 GMT 48.842880 2.616295 12,050 255 369 1984
2019-03-26 09:31:46 GMT 48.844986 2.627704 11,875 255 366 1664
2019-03-26 09:31:43 GMT 48.846146 2.633900 11,825 255 365 1600
2019-03-26 09:31:40 GMT 48.847504 2.641015 11,425 255 362 1664
2019-03-26 09:31:36 GMT 48.849289 2.650804 11,600 255 360 1728
2019-03-26 09:31:33 GMT 48.850895 2.659342 11,525 255 360 1792
2019-03-26 09:31:29 GMT 48.852291 2.667076 11,425 255 354 1408
2019-03-26 09:31:26 GMT 48.853733 2.674810 11,250 255 354 1408
2019-03-26 09:31:22 GMT 48.855412 2.683917 11,300 255 355 1472
2019-03-26 09:31:19 GMT 48.856712 2.691072 11,175 255 349 1088
2019-03-26 09:31:16 GMT 48.858528 2.701047 11,100 255 345 1024
2019-03-26 09:31:11 GMT 48.860065 2.709503 11,050 255 345 1024
2019-03-26 09:31:06 GMT 48.864624 2.734610 10,850 255 341 1024
2019-03-26 09:31:01 GMT 48.864624 2.734610 10,850 255 334 960
2019-03-26 09:30:58 GMT 48.865650 2.740294 10,800 255 333 960
2019-03-26 09:30:54 GMT 48.867142 2.748624 10,750 255 318 768
2019-03-26 09:30:50 GMT 48.868927 2.758413 10,675 255 326 896
2019-03-26 09:30:43 GMT 48.871399 2.772006 10,575 255 321 832
2019-03-26 09:30:40 GMT 48.872955 2.780668 10,525 255 315 768
2019-03-26 09:30:37 GMT 48.873844 2.785540 10,475 255 312 768
2019-03-26 09:30:34 GMT 48.875107 2.792499 10,450 255 310 768
2019-03-26 09:30:31 GMT 48.876389 2.799190 10,400 255 307 704
2019-03-26 09:30:27 GMT 48.877945 2.807500 10,350 254 296 1920
2019-03-26 09:30:23 GMT 48.879570 2.816186 10,300 254 299 1216
2019-03-26 09:30:17 GMT 48.881664 2.827028 10,075 255 294 2176
2019-03-26 09:30:13 GMT 48.885315 2.847079 8,875 239 298 1984
2019-03-26 09:30:07 GMT 48.885315 2.847079 9,775 254 293 2112
2019-03-26 09:30:03 GMT 48.887375 2.856938 9,450 240 298 1984
2019-03-26 09:29:56 GMT 48.891495 2.870460 9,375 241 298 1984
2019-03-26 09:29:49 GMT 48.896759 2.882221 9,075 231 300 1920
2019-03-26 09:29:45 GMT 48.899403 2.886802 9,075 231 300 1920
2019-03-26 09:29:42 GMT 48.903034 2.892151 8,875 220 302 1856
2019-03-26 09:29:38 GMT 48.906898 2.896921 8,750 216 302 1792
2019-03-26 09:29:35 GMT 48.915619 2.904968 6,475 209 302 1856
2019-03-26 09:29:30 GMT 48.915619 2.904968 8,575 206 302 1856
2019-03-26 09:29:26 GMT 48.924683 2.910602 8,400 194 300 1728
2019-03-26 09:29:20 GMT 48.929939 2.912823 8,225 192 299 1792
2019-03-26 09:29:14 GMT 48.936859 2.914757 8,075 187 298 1984
2019-03-26 09:29:10 GMT 48.943581 2.915569 7,825 182 297 2496
2019-03-26 09:29:05 GMT 48.949768 2.915743 7,675 179 296 2496
2019-03-26 09:29:02 GMT 48.953339 2.915673 6,475 116 273 2112
2019-03-26 09:28:59 GMT 48.958237 2.915321 7,425 176 295 2368
2019-03-26 09:28:53 GMT 48.965561 2.913983 7,225 156 290 2112
2019-03-26 09:28:49 GMT 48.972210 2.911232 7,025 161 292 2112
2019-03-26 09:28:45 GMT 48.977890 2.907618 6,700 148 287 2176
2019-03-26 09:28:37 GMT 48.985104 2.900752 6,475 116 273 2112
2019-03-26 09:28:33 GMT 48.988953 2.895743 6,475 135 282 2368
2019-03-26 09:28:28 GMT 48.994492 2.885883 6,200 124 277 2304
2019-03-26 09:28:22 GMT 48.997349 2.878779 6,025 116 273 2112
2019-03-26 09:28:18 GMT 48.999802 2.870178 5,850 105 266 2112
2019-03-26 09:28:14 GMT 49.001221 2.862995 5,600 102 264 2176
2019-03-26 09:28:11 GMT 49.002136 2.857220 5,000 102 262 2368
2019-03-26 09:28:08 GMT 49.002960 2.851445 5,475 102 263 2304
2019-03-26 09:28:02 GMT 49.004284 2.842568 5,275 102 261 2496
2019-03-26 09:27:59 GMT 49.005020 2.837431 5,150 102 261 2496
2019-03-26 09:27:56 GMT 49.005913 2.831148 5,000 101 260 2496
2019-03-26 09:27:52 GMT 49.006798 2.823559 4,825 85 237 1280
2019-03-26 09:27:48 GMT 49.007401 2.816233 4,125 85 237 1280
2019-03-26 09:27:44 GMT 49.007820 2.808163 4,475 92 252 1536
2019-03-26 09:27:41 GMT 49.007961 2.802815 4,125 85 237 1280
2019-03-26 09:27:38 GMT 49.007996 2.797429 4,350 89 246 1472
2019-03-26 09:27:30 GMT 49.007767 2.784752 4,125 85 237 1280
2019-03-26 09:27:27 GMT 49.007217 2.774698 4,025 84 230 1664
2019-03-26 09:27:21 GMT 49.006989 2.770597 3,975 84 229 1600
2019-03-26 09:27:15 GMT 49.006439 2.761371 3,825 84 225 1472
2019-03-26 09:27:11 GMT 49.006054 2.755183 3,700 84 222 1088
2019-03-26 09:27:07 GMT 49.005726 2.748967 3,650 85 220 960
2019-03-26 09:27:04 GMT 49.005432 2.743976 3,575 85 215 896
2019-03-26 09:27:01 GMT 49.005215 2.739571 3,550 85 211 512
2019-03-26 09:26:57 GMT 49.004841 2.733138 3,450 86 194 1088
2019-03-26 09:26:54 GMT 49.004658 2.728874 3,475 86 201 704
2019-03-26 09:26:51 GMT 49.004471 2.724609 3,400 86 197 896
2019-03-26 09:26:47 GMT 49.004242 2.719257 3,375 86 194 960
2019-03-26 09:26:44 GMT 49.003960 2.714057 3,300 84 189 896
2019-03-26 09:26:40 GMT 49.003738 2.710454 3,250 85 186 1536
2019-03-26 09:26:33 GMT 49.003120 2.699529 2,925 85 181 1984
2019-03-26 09:26:29 GMT 49.002979 2.696421 2,900 85 181 1856
2019-03-26 09:26:25 GMT 49.002594 2.689960 2,725 84 181 1728
2019-03-26 09:26:20 GMT 49.002228 2.683622 2,575 84 180 2112
2019-03-26 09:26:16 GMT 49.001957 2.679724 2,350 84 180 2048
2019-03-26 09:26:13 GMT 49.001724 2.675805 2,350 84 180 2048
2019-03-26 09:26:09 GMT 49.001350 2.670111 2,175 84 180 1984
2019-03-26 09:26:06 GMT 49.001163 2.666787 2,050 84 180 1728
2019-03-26 09:26:03 GMT 49.000946 2.662846 2,000 84 180 1728
2019-03-26 09:25:59 GMT 49.000580 2.656860 1,850 85 178 1856
2019-03-26 09:25:52 GMT 49.000187 2.649729 1,675 84 177 2432
2019-03-26 09:25:47 GMT 48.999767 2.642790 1,450 84 177 2688
2019-03-26 09:25:41 GMT 48.999435 2.635944 1,200 85 177 2432
2019-03-26 09:25:38 GMT 48.999210 2.631370 1,025 86 177 2368
2019-03-26 09:25:32 GMT 48.998932 2.624042 800 86 176 2304
2019-03-26 09:25:27 GMT 48.998611 2.615098 500 86 175 2112
2019-03-26 09:25:18 GMT 48.998337 2.606999 275 87 173 1920
2019-03-26 09:24:25 GMT 48.996185 2.562015 0 84 17
2019-03-26 09:24:14 GMT 48.996140 2.561258 0 64 6
2019-03-26 09:24:05 GMT 48.996128 2.560959 0 64 6
2019-03-26 09:23:55 GMT 48.996082 2.560660 0 64 5
2019-03-26 09:23:42 GMT 48.996311 2.560448 0 177 8
2019-03-26 09:23:33 GMT 48.996677 2.560395 0 174 10
2019-03-26 09:23:21 GMT 48.997128 2.560320 0 64 7
2019-03-26 09:23:05 GMT 48.997410 2.560290 0 64 1
2019-03-26 09:23:00 GMT 48.997421 2.560290 0 64 0
2019-03-26 09:22:00 GMT 48.997429 2.560302 0 64 0
2019-03-26 09:21:20 GMT 48.997421 2.560307 0 64 0
2019-03-26 09:20:44 GMT 48.997429 2.560302 0 64 0
2019-03-26 09:19:44 GMT 48.997421 2.560307 0 64 0
2019-03-26 09:19:14 GMT 48.997417 2.560302 0 64 0
2019-03-26 09:18:44 GMT 48.997421 2.560290 0 64 0
2019-03-26 09:18:13 GMT 48.997417 2.560302 0 64 0
2019-03-26 09:17:55 GMT 48.997421 2.560307 0 64 0
2019-03-26 09:17:45 GMT 48.997463 2.560284 0 64 6
2019-03-26 09:17:34 GMT 48.997810 2.560237 0 174 9
2019-03-26 09:17:25 GMT 48.998138 2.560194 0 177 9
2019-03-26 09:17:09 GMT 48.998772 2.560255 0 219 10
2019-03-26 09:16:59 GMT 48.998920 2.560718 0 264 9
2019-03-26 09:16:53 GMT 48.998932 2.561100 0 264 9
2019-03-26 09:16:43 GMT 48.998966 2.561716 0 264 11
2019-03-26 09:16:33 GMT 48.999001 2.562435 0 264 12
2019-03-26 09:16:23 GMT 48.999058 2.563389 0 264 20
2019-03-26 09:16:12 GMT 48.999119 2.564657 0 264 17
2019-03-26 09:16:02 GMT 48.999184 2.565906 0 267 18
2019-03-26 09:15:51 GMT 48.999245 2.567097 0 264 17
2019-03-26 09:15:42 GMT 48.999321 2.568265 0 264 18
2019-03-26 09:15:34 GMT 48.999359 2.569120 0 264 18
2019-03-26 09:15:30 GMT 48.999378 2.569445 0 264 17
2019-03-26 09:15:20 GMT 48.999443 2.570602 0 264 17
2019-03-26 09:15:15 GMT 48.999466 2.571144 0 264 17
2019-03-26 09:15:11 GMT 48.999504 2.571752 34,400 264 17
2019-03-26 09:14:58 GMT 48.999573 2.573037 34,400 264 17
2019-03-26 09:14:49 GMT 48.999630 2.574040 0 264 18
2019-03-26 09:10:58 GMT 49.000629 2.577613 0 64 2
2019-03-26 09:10:50 GMT 49.000626 2.577579 0 64 0
2019-03-26 09:10:41 GMT 49.000626 2.577544 0 64 2
2019-03-26 09:10:29 GMT 49.000618 2.577432 0 64 0

Making use of Plane Finder data

You are free to use the raw flight data, aircraft information and images provided in this report for your own purposes provided the data is correctly attributed to Plane Finder. We ask that you please credit Plane Finder and link to planefinder.net in close proximity to the content.

Optionally one of the following logos (no smaller then 150x24px) can be used and must link to planefinder.net

Embedding the Plane Finder map

You are welcome to embed the Plane Finder playback map on your website to offer visitors a more interactive experience. We suggest using the following HTML code:

<iframe src="//planefinder.net/data/report/AF456-F-GSPS-7700-squawk-2019-03-26/map" width="800" height="600" seamless="seamless"></iframe>

Where our data comes from

Plane Finder has a global network of data feeds and antenna radars that receive data broadcast directly from aircraft. The primary technologies used are ADS-B and MLAT. We also show feeds from the FAA and a FLARM glider feed.

Click here to find out more about the Plane Finder network.

How we collect our data